<?xml version="1.0" encoding="UTF-8" standalone="no" ?>
<gpx xmlns="http://www.topografix.com/GPX/1/1" xmlns:xsi="http://www.w3.org/2001/XMLSchema-instance" xsi:schemaLocation="http://www.topografix.com/GPX/1/1 http://www.topografix.com/GPX/1/1/gpx.xsd" version="1.1" creator="VisuGPX - https://www.visugpx.com">
  <metadata>
    <name>fggfdfgdgvfhggfhgfghg</name>
    <desc><![CDATA[hghgjhjgjghjghjghghjhgjhjgjgggj]]></desc>
  </metadata>
  <trk>
    <name><![CDATA[20180602142639-753Nc]]></name>
    <trkseg>
      <trkpt lat="43.77078" lon="1.28537">
        <ele>108</ele>
        <time>2017-08-06T13:42:05.000Z</time>
      </trkpt>
      <trkpt lat="43.77102" lon="1.28541">
        <ele>108</ele>
        <time>2017-08-06T13:42:05.484Z</time>
      </trkpt>
      <trkpt lat="43.77101" lon="1.28544">
        <ele>108</ele>
        <time>2017-08-06T13:42:05.532Z</time>
      </trkpt>
      <trkpt lat="43.77101" lon="1.28544">
        <ele>108</ele>
        <time>2017-08-06T13:42:05.532Z</time>
      </trkpt>
      <trkpt lat="43.77101" lon="1.28544">
        <ele>108</ele>
        <time>2017-08-06T13:42:05.534Z</time>
      </trkpt>
      <trkpt lat="43.77089" lon="1.28568">
        <ele>109</ele>
        <time>2017-08-06T13:42:05.955Z</time>
      </trkpt>
      <trkpt lat="43.7705" lon="1.28646">
        <ele>109</ele>
        <time>2017-08-06T13:42:07.328Z</time>
      </trkpt>
      <trkpt lat="43.77043" lon="1.28658">
        <ele>109</ele>
        <time>2017-08-06T13:42:07.545Z</time>
      </trkpt>
      <trkpt lat="43.77043" lon="1.28658">
        <ele>109</ele>
        <time>2017-08-06T13:42:07.547Z</time>
      </trkpt>
      <trkpt lat="43.77043" lon="1.28658">
        <ele>109</ele>
        <time>2017-08-06T13:42:07.549Z</time>
      </trkpt>
      <trkpt lat="43.77035" lon="1.28671">
        <ele>110</ele>
        <time>2017-08-06T13:42:07.797Z</time>
      </trkpt>
      <trkpt lat="43.77033" lon="1.28672">
        <ele>110</ele>
        <time>2017-08-06T13:42:07.840Z</time>
      </trkpt>
      <trkpt lat="43.77029" lon="1.28676">
        <ele>110</ele>
        <time>2017-08-06T13:42:07.939Z</time>
      </trkpt>
      <trkpt lat="43.77028" lon="1.28678">
        <ele>110</ele>
        <time>2017-08-06T13:42:07.974Z</time>
      </trkpt>
      <trkpt lat="43.77026" lon="1.28687">
        <ele>110</ele>
        <time>2017-08-06T13:42:08.110Z</time>
      </trkpt>
      <trkpt lat="43.77029" lon="1.28696">
        <ele>110</ele>
        <time>2017-08-06T13:42:08.253Z</time>
      </trkpt>
      <trkpt lat="43.77036" lon="1.28706">
        <ele>110</ele>
        <time>2017-08-06T13:42:08.455Z</time>
      </trkpt>
      <trkpt lat="43.77045" lon="1.28734">
        <ele>109</ele>
        <time>2017-08-06T13:42:08.899Z</time>
      </trkpt>
      <trkpt lat="43.77047" lon="1.28743">
        <ele>109</ele>
        <time>2017-08-06T13:42:09.032Z</time>
      </trkpt>
      <trkpt lat="43.77048" lon="1.28743">
        <ele>109</ele>
        <time>2017-08-06T13:42:09.038Z</time>
      </trkpt>
      <trkpt lat="43.77048" lon="1.28743">
        <ele>109</ele>
        <time>2017-08-06T13:42:09.043Z</time>
      </trkpt>
      <trkpt lat="43.77055" lon="1.2877">
        <ele>110</ele>
        <time>2017-08-06T13:42:09.457Z</time>
      </trkpt>
      <trkpt lat="43.77089" lon="1.28882">
        <ele>114</ele>
        <time>2017-08-06T13:42:11.215Z</time>
      </trkpt>
      <trkpt lat="43.77089" lon="1.28909">
        <ele>114</ele>
        <time>2017-08-06T13:42:11.606Z</time>
      </trkpt>
      <trkpt lat="43.77088" lon="1.28921">
        <ele>114</ele>
        <time>2017-08-06T13:42:11.781Z</time>
      </trkpt>
      <trkpt lat="43.7708" lon="1.28955">
        <ele>113</ele>
        <time>2017-08-06T13:42:12.298Z</time>
      </trkpt>
      <trkpt lat="43.77075" lon="1.28975">
        <ele>113</ele>
        <time>2017-08-06T13:42:12.604Z</time>
      </trkpt>
      <trkpt lat="43.7706" lon="1.29002">
        <ele>114</ele>
        <time>2017-08-06T13:42:13.097Z</time>
      </trkpt>
      <trkpt lat="43.77047" lon="1.2902">
        <ele>114</ele>
        <time>2017-08-06T13:42:13.465Z</time>
      </trkpt>
      <trkpt lat="43.77035" lon="1.29044">
        <ele>114</ele>
        <time>2017-08-06T13:42:13.887Z</time>
      </trkpt>
      <trkpt lat="43.77032" lon="1.29055">
        <ele>114</ele>
        <time>2017-08-06T13:42:14.054Z</time>
      </trkpt>
      <trkpt lat="43.77031" lon="1.29056">
        <ele>114</ele>
        <time>2017-08-06T13:42:14.070Z</time>
      </trkpt>
      <trkpt lat="43.77031" lon="1.29057">
        <ele>114</ele>
        <time>2017-08-06T13:42:14.086Z</time>
      </trkpt>
      <trkpt lat="43.7702" lon="1.2909">
        <ele>115</ele>
        <time>2017-08-06T13:42:14.618Z</time>
      </trkpt>
      <trkpt lat="43.77007" lon="1.29114">
        <ele>116</ele>
        <time>2017-08-06T13:42:15.052Z</time>
      </trkpt>
      <trkpt lat="43.7702" lon="1.2909">
        <ele>115</ele>
        <time>2017-08-06T13:42:15.486Z</time>
      </trkpt>
      <trkpt lat="43.77029" lon="1.29064">
        <ele>114</ele>
        <time>2017-08-06T13:42:15.900Z</time>
      </trkpt>
      <trkpt lat="43.77029" lon="1.29063">
        <ele>114</ele>
        <time>2017-08-06T13:42:15.919Z</time>
      </trkpt>
      <trkpt lat="43.77029" lon="1.29062">
        <ele>114</ele>
        <time>2017-08-06T13:42:15.938Z</time>
      </trkpt>
      <trkpt lat="43.77035" lon="1.29044">
        <ele>114</ele>
        <time>2017-08-06T13:42:16.216Z</time>
      </trkpt>
      <trkpt lat="43.77047" lon="1.2902">
        <ele>114</ele>
        <time>2017-08-06T13:42:16.638Z</time>
      </trkpt>
      <trkpt lat="43.77057" lon="1.29006">
        <ele>114</ele>
        <time>2017-08-06T13:42:16.923Z</time>
      </trkpt>
      <trkpt lat="43.77041" lon="1.2903">
        <ele>114</ele>
        <time>2017-08-06T13:42:17.396Z</time>
      </trkpt>
      <trkpt lat="43.77031" lon="1.29056">
        <ele>114</ele>
        <time>2017-08-06T13:42:17.822Z</time>
      </trkpt>
      <trkpt lat="43.77015" lon="1.29099">
        <ele>115</ele>
        <time>2017-08-06T13:42:18.522Z</time>
      </trkpt>
      <trkpt lat="43.77007" lon="1.29114">
        <ele>116</ele>
        <time>2017-08-06T13:42:18.792Z</time>
      </trkpt>
      <trkpt lat="43.76996" lon="1.29112">
        <ele>115</ele>
        <time>2017-08-06T13:42:19.014Z</time>
      </trkpt>
      <trkpt lat="43.76985" lon="1.29112">
        <ele>115</ele>
        <time>2017-08-06T13:42:19.234Z</time>
      </trkpt>
      <trkpt lat="43.76979" lon="1.29114">
        <ele>116</ele>
        <time>2017-08-06T13:42:19.358Z</time>
      </trkpt>
      <trkpt lat="43.76976" lon="1.29116">
        <ele>116</ele>
        <time>2017-08-06T13:42:19.425Z</time>
      </trkpt>
      <trkpt lat="43.76945" lon="1.29159">
        <ele>116</ele>
        <time>2017-08-06T13:42:20.304Z</time>
      </trkpt>
      <trkpt lat="43.76933" lon="1.29165">
        <ele>117</ele>
        <time>2017-08-06T13:42:20.560Z</time>
      </trkpt>
      <trkpt lat="43.76922" lon="1.29173">
        <ele>117</ele>
        <time>2017-08-06T13:42:20.809Z</time>
      </trkpt>
      <trkpt lat="43.76917" lon="1.29162">
        <ele>117</ele>
        <time>2017-08-06T13:42:20.997Z</time>
      </trkpt>
      <trkpt lat="43.76912" lon="1.29154">
        <ele>117</ele>
        <time>2017-08-06T13:42:21.150Z</time>
      </trkpt>
      <trkpt lat="43.76898" lon="1.29152">
        <ele>117</ele>
        <time>2017-08-06T13:42:21.432Z</time>
      </trkpt>
      <trkpt lat="43.7689" lon="1.29151">
        <ele>117</ele>
        <time>2017-08-06T13:42:21.593Z</time>
      </trkpt>
      <trkpt lat="43.7688" lon="1.29147">
        <ele>117</ele>
        <time>2017-08-06T13:42:21.802Z</time>
      </trkpt>
      <trkpt lat="43.76839" lon="1.29125">
        <ele>117</ele>
        <time>2017-08-06T13:42:22.695Z</time>
      </trkpt>
      <trkpt lat="43.76837" lon="1.29124">
        <ele>117</ele>
        <time>2017-08-06T13:42:22.720Z</time>
      </trkpt>
      <trkpt lat="43.76836" lon="1.29123">
        <ele>117</ele>
        <time>2017-08-06T13:42:22.746Z</time>
      </trkpt>
      <trkpt lat="43.76832" lon="1.29121">
        <ele>118</ele>
        <time>2017-08-06T13:42:22.835Z</time>
      </trkpt>
      <trkpt lat="43.76814" lon="1.29119">
        <ele>118</ele>
        <time>2017-08-06T13:42:23.197Z</time>
      </trkpt>
      <trkpt lat="43.76787" lon="1.2912">
        <ele>119</ele>
        <time>2017-08-06T13:42:23.738Z</time>
      </trkpt>
      <trkpt lat="43.76772" lon="1.2912">
        <ele>119</ele>
        <time>2017-08-06T13:42:24.039Z</time>
      </trkpt>
      <trkpt lat="43.76739" lon="1.29118">
        <ele>121</ele>
        <time>2017-08-06T13:42:24.701Z</time>
      </trkpt>
      <trkpt lat="43.76711" lon="1.29108">
        <ele>121</ele>
        <time>2017-08-06T13:42:25.280Z</time>
      </trkpt>
      <trkpt lat="43.76695" lon="1.29097">
        <ele>121</ele>
        <time>2017-08-06T13:42:25.638Z</time>
      </trkpt>
      <trkpt lat="43.76677" lon="1.2908">
        <ele>121</ele>
        <time>2017-08-06T13:42:26.075Z</time>
      </trkpt>
      <trkpt lat="43.76647" lon="1.29041">
        <ele>120</ele>
        <time>2017-08-06T13:42:26.900Z</time>
      </trkpt>
      <trkpt lat="43.76626" lon="1.29008">
        <ele>120</ele>
        <time>2017-08-06T13:42:27.537Z</time>
      </trkpt>
      <trkpt lat="43.76607" lon="1.28989">
        <ele>120</ele>
        <time>2017-08-06T13:42:28.007Z</time>
      </trkpt>
      <trkpt lat="43.76584" lon="1.28974">
        <ele>120</ele>
        <time>2017-08-06T13:42:28.516Z</time>
      </trkpt>
      <trkpt lat="43.76538" lon="1.28956">
        <ele>120</ele>
        <time>2017-08-06T13:42:29.474Z</time>
      </trkpt>
      <trkpt lat="43.76525" lon="1.28952">
        <ele>121</ele>
        <time>2017-08-06T13:42:29.741Z</time>
      </trkpt>
      <trkpt lat="43.76495" lon="1.28949">
        <ele>120</ele>
        <time>2017-08-06T13:42:30.344Z</time>
      </trkpt>
      <trkpt lat="43.76466" lon="1.28951">
        <ele>120</ele>
        <time>2017-08-06T13:42:30.926Z</time>
      </trkpt>
      <trkpt lat="43.76416" lon="1.28942">
        <ele>119</ele>
        <time>2017-08-06T13:42:31.936Z</time>
      </trkpt>
      <trkpt lat="43.76274" lon="1.28918">
        <ele>121</ele>
        <time>2017-08-06T13:42:34.803Z</time>
      </trkpt>
      <trkpt lat="43.76195" lon="1.28902">
        <ele>122</ele>
        <time>2017-08-06T13:42:36.403Z</time>
      </trkpt>
      <trkpt lat="43.7608" lon="1.28872">
        <ele>122</ele>
        <time>2017-08-06T13:42:38.748Z</time>
      </trkpt>
      <trkpt lat="43.75996" lon="1.28849">
        <ele>123</ele>
        <time>2017-08-06T13:42:40.457Z</time>
      </trkpt>
      <trkpt lat="43.75996" lon="1.28849">
        <ele>123</ele>
        <time>2017-08-06T13:42:40.475Z</time>
      </trkpt>
      <trkpt lat="43.75995" lon="1.28848">
        <ele>123</ele>
        <time>2017-08-06T13:42:40.494Z</time>
      </trkpt>
      <trkpt lat="43.75968" lon="1.28841">
        <ele>123</ele>
        <time>2017-08-06T13:42:41.037Z</time>
      </trkpt>
      <trkpt lat="43.75946" lon="1.28839">
        <ele>123</ele>
        <time>2017-08-06T13:42:41.479Z</time>
      </trkpt>
      <trkpt lat="43.75852" lon="1.28745">
        <ele>120</ele>
        <time>2017-08-06T13:42:43.803Z</time>
      </trkpt>
      <trkpt lat="43.75752" lon="1.28643">
        <ele>121</ele>
        <time>2017-08-06T13:42:46.292Z</time>
      </trkpt>
      <trkpt lat="43.75657" lon="1.28547">
        <ele>124</ele>
        <time>2017-08-06T13:42:48.649Z</time>
      </trkpt>
      <trkpt lat="43.75577" lon="1.28462">
        <ele>127</ele>
        <time>2017-08-06T13:42:50.670Z</time>
      </trkpt>
      <trkpt lat="43.75547" lon="1.28501">
        <ele>126</ele>
        <time>2017-08-06T13:42:51.495Z</time>
      </trkpt>
      <trkpt lat="43.75527" lon="1.28524">
        <ele>125</ele>
        <time>2017-08-06T13:42:52.016Z</time>
      </trkpt>
      <trkpt lat="43.75512" lon="1.28536">
        <ele>125</ele>
        <time>2017-08-06T13:42:52.363Z</time>
      </trkpt>
      <trkpt lat="43.75488" lon="1.28549">
        <ele>126</ele>
        <time>2017-08-06T13:42:52.879Z</time>
      </trkpt>
      <trkpt lat="43.75449" lon="1.28556">
        <ele>127</ele>
        <time>2017-08-06T13:42:53.667Z</time>
      </trkpt>
      <trkpt lat="43.75434" lon="1.28557">
        <ele>127</ele>
        <time>2017-08-06T13:42:53.968Z</time>
      </trkpt>
      <trkpt lat="43.75402" lon="1.28559">
        <ele>128</ele>
        <time>2017-08-06T13:42:54.604Z</time>
      </trkpt>
      <trkpt lat="43.75401" lon="1.28559">
        <ele>128</ele>
        <time>2017-08-06T13:42:54.625Z</time>
      </trkpt>
      <trkpt lat="43.754" lon="1.28559">
        <ele>128</ele>
        <time>2017-08-06T13:42:54.646Z</time>
      </trkpt>
      <trkpt lat="43.75351" lon="1.28562">
        <ele>128</ele>
        <time>2017-08-06T13:42:55.633Z</time>
      </trkpt>
      <trkpt lat="43.75225" lon="1.28572">
        <ele>128</ele>
        <time>2017-08-06T13:42:58.162Z</time>
      </trkpt>
      <trkpt lat="43.75059" lon="1.28583">
        <ele>128</ele>
        <time>2017-08-06T13:43:01.492Z</time>
      </trkpt>
      <trkpt lat="43.7501" lon="1.2858">
        <ele>128</ele>
        <time>2017-08-06T13:43:02.475Z</time>
      </trkpt>
      <trkpt lat="43.74931" lon="1.28562">
        <ele>128</ele>
        <time>2017-08-06T13:43:04.079Z</time>
      </trkpt>
      <trkpt lat="43.74772" lon="1.28524">
        <ele>128</ele>
        <time>2017-08-06T13:43:07.312Z</time>
      </trkpt>
      <trkpt lat="43.74687" lon="1.28503">
        <ele>128</ele>
        <time>2017-08-06T13:43:09.042Z</time>
      </trkpt>
      <trkpt lat="43.74599" lon="1.28479">
        <ele>129</ele>
        <time>2017-08-06T13:43:10.839Z</time>
      </trkpt>
      <trkpt lat="43.74557" lon="1.28469">
        <ele>130</ele>
        <time>2017-08-06T13:43:11.693Z</time>
      </trkpt>
      <trkpt lat="43.74523" lon="1.28469">
        <ele>130</ele>
        <time>2017-08-06T13:43:12.374Z</time>
      </trkpt>
      <trkpt lat="43.74476" lon="1.28472">
        <ele>130</ele>
        <time>2017-08-06T13:43:13.317Z</time>
      </trkpt>
      <trkpt lat="43.74415" lon="1.28476">
        <ele>130</ele>
        <time>2017-08-06T13:43:14.541Z</time>
      </trkpt>
      <trkpt lat="43.74394" lon="1.28482">
        <ele>130</ele>
        <time>2017-08-06T13:43:14.971Z</time>
      </trkpt>
      <trkpt lat="43.7433" lon="1.28516">
        <ele>129</ele>
        <time>2017-08-06T13:43:16.345Z</time>
      </trkpt>
      <trkpt lat="43.74301" lon="1.28533">
        <ele>129</ele>
        <time>2017-08-06T13:43:16.976Z</time>
      </trkpt>
      <trkpt lat="43.74285" lon="1.28545">
        <ele>130</ele>
        <time>2017-08-06T13:43:17.341Z</time>
      </trkpt>
      <trkpt lat="43.74244" lon="1.28587">
        <ele>130</ele>
        <time>2017-08-06T13:43:18.363Z</time>
      </trkpt>
      <trkpt lat="43.7422" lon="1.28614">
        <ele>130</ele>
        <time>2017-08-06T13:43:18.983Z</time>
      </trkpt>
      <trkpt lat="43.74116" lon="1.2873">
        <ele>130</ele>
        <time>2017-08-06T13:43:21.660Z</time>
      </trkpt>
      <trkpt lat="43.74063" lon="1.28773">
        <ele>131</ele>
        <time>2017-08-06T13:43:22.891Z</time>
      </trkpt>
      <trkpt lat="43.73983" lon="1.28832">
        <ele>132</ele>
        <time>2017-08-06T13:43:24.708Z</time>
      </trkpt>
      <trkpt lat="43.73933" lon="1.2887">
        <ele>131</ele>
        <time>2017-08-06T13:43:25.851Z</time>
      </trkpt>
      <trkpt lat="43.73884" lon="1.28915">
        <ele>131</ele>
        <time>2017-08-06T13:43:27.029Z</time>
      </trkpt>
      <trkpt lat="43.73864" lon="1.28933">
        <ele>131</ele>
        <time>2017-08-06T13:43:27.507Z</time>
      </trkpt>
      <trkpt lat="43.73832" lon="1.28959">
        <ele>131</ele>
        <time>2017-08-06T13:43:28.251Z</time>
      </trkpt>
      <trkpt lat="43.73793" lon="1.28985">
        <ele>131</ele>
        <time>2017-08-06T13:43:29.118Z</time>
      </trkpt>
      <trkpt lat="43.73773" lon="1.28996">
        <ele>131</ele>
        <time>2017-08-06T13:43:29.549Z</time>
      </trkpt>
      <trkpt lat="43.73756" lon="1.29003">
        <ele>131</ele>
        <time>2017-08-06T13:43:29.904Z</time>
      </trkpt>
      <trkpt lat="43.73714" lon="1.29011">
        <ele>132</ele>
        <time>2017-08-06T13:43:30.754Z</time>
      </trkpt>
      <trkpt lat="43.73666" lon="1.2901">
        <ele>133</ele>
        <time>2017-08-06T13:43:31.716Z</time>
      </trkpt>
      <trkpt lat="43.73427" lon="1.28992">
        <ele>135</ele>
        <time>2017-08-06T13:43:36.512Z</time>
      </trkpt>
      <trkpt lat="43.73411" lon="1.28994">
        <ele>136</ele>
        <time>2017-08-06T13:43:36.834Z</time>
      </trkpt>
      <trkpt lat="43.73386" lon="1.29004">
        <ele>135</ele>
        <time>2017-08-06T13:43:37.355Z</time>
      </trkpt>
      <trkpt lat="43.73331" lon="1.29041">
        <ele>138</ele>
        <time>2017-08-06T13:43:38.580Z</time>
      </trkpt>
      <trkpt lat="43.73262" lon="1.29088">
        <ele>139</ele>
        <time>2017-08-06T13:43:40.121Z</time>
      </trkpt>
      <trkpt lat="43.73242" lon="1.29101">
        <ele>140</ele>
        <time>2017-08-06T13:43:40.564Z</time>
      </trkpt>
      <trkpt lat="43.7321" lon="1.29116">
        <ele>140</ele>
        <time>2017-08-06T13:43:41.241Z</time>
      </trkpt>
      <trkpt lat="43.73183" lon="1.29131">
        <ele>140</ele>
        <time>2017-08-06T13:43:41.824Z</time>
      </trkpt>
      <trkpt lat="43.73159" lon="1.29147">
        <ele>142</ele>
        <time>2017-08-06T13:43:42.358Z</time>
      </trkpt>
      <trkpt lat="43.73134" lon="1.29168">
        <ele>141</ele>
        <time>2017-08-06T13:43:42.944Z</time>
      </trkpt>
      <trkpt lat="43.73112" lon="1.29193">
        <ele>141</ele>
        <time>2017-08-06T13:43:43.514Z</time>
      </trkpt>
      <trkpt lat="43.73022" lon="1.29309">
        <ele>140</ele>
        <time>2017-08-06T13:43:45.979Z</time>
      </trkpt>
      <trkpt lat="43.72981" lon="1.29364">
        <ele>140</ele>
        <time>2017-08-06T13:43:47.123Z</time>
      </trkpt>
      <trkpt lat="43.72947" lon="1.29414">
        <ele>140</ele>
        <time>2017-08-06T13:43:48.117Z</time>
      </trkpt>
      <trkpt lat="43.72913" lon="1.29461">
        <ele>141</ele>
        <time>2017-08-06T13:43:49.080Z</time>
      </trkpt>
      <trkpt lat="43.72792" lon="1.29608">
        <ele>144</ele>
        <time>2017-08-06T13:43:52.307Z</time>
      </trkpt>
      <trkpt lat="43.72752" lon="1.29668">
        <ele>144</ele>
        <time>2017-08-06T13:43:53.489Z</time>
      </trkpt>
      <trkpt lat="43.72696" lon="1.29758">
        <ele>144</ele>
        <time>2017-08-06T13:43:55.209Z</time>
      </trkpt>
      <trkpt lat="43.72686" lon="1.2977">
        <ele>145</ele>
        <time>2017-08-06T13:43:55.474Z</time>
      </trkpt>
      <trkpt lat="43.72665" lon="1.29788">
        <ele>148</ele>
        <time>2017-08-06T13:43:55.969Z</time>
      </trkpt>
      <trkpt lat="43.72652" lon="1.29793">
        <ele>148</ele>
        <time>2017-08-06T13:43:56.239Z</time>
      </trkpt>
      <trkpt lat="43.72643" lon="1.29794">
        <ele>148</ele>
        <time>2017-08-06T13:43:56.420Z</time>
      </trkpt>
      <trkpt lat="43.72625" lon="1.29791">
        <ele>149</ele>
        <time>2017-08-06T13:43:56.783Z</time>
      </trkpt>
      <trkpt lat="43.72608" lon="1.29784">
        <ele>150</ele>
        <time>2017-08-06T13:43:57.138Z</time>
      </trkpt>
      <trkpt lat="43.72603" lon="1.29785">
        <ele>150</ele>
        <time>2017-08-06T13:43:57.239Z</time>
      </trkpt>
      <trkpt lat="43.726" lon="1.29787">
        <ele>150</ele>
        <time>2017-08-06T13:43:57.306Z</time>
      </trkpt>
      <trkpt lat="43.72552" lon="1.29759">
        <ele>155</ele>
        <time>2017-08-06T13:43:58.350Z</time>
      </trkpt>
      <trkpt lat="43.72544" lon="1.29755">
        <ele>155</ele>
        <time>2017-08-06T13:43:58.520Z</time>
      </trkpt>
      <trkpt lat="43.72526" lon="1.2975">
        <ele>155</ele>
        <time>2017-08-06T13:43:58.888Z</time>
      </trkpt>
      <trkpt lat="43.7251" lon="1.29748">
        <ele>157</ele>
        <time>2017-08-06T13:43:59.210Z</time>
      </trkpt>
      <trkpt lat="43.72487" lon="1.29752">
        <ele>158</ele>
        <time>2017-08-06T13:43:59.675Z</time>
      </trkpt>
      <trkpt lat="43.72458" lon="1.29766">
        <ele>158</ele>
        <time>2017-08-06T13:44:00.290Z</time>
      </trkpt>
      <trkpt lat="43.7237" lon="1.29826">
        <ele>160</ele>
        <time>2017-08-06T13:44:02.256Z</time>
      </trkpt>
      <trkpt lat="43.72352" lon="1.29834">
        <ele>160</ele>
        <time>2017-08-06T13:44:02.635Z</time>
      </trkpt>
      <trkpt lat="43.72339" lon="1.29835">
        <ele>160</ele>
        <time>2017-08-06T13:44:02.896Z</time>
      </trkpt>
      <trkpt lat="43.72333" lon="1.29835">
        <ele>160</ele>
        <time>2017-08-06T13:44:03.016Z</time>
      </trkpt>
      <trkpt lat="43.72329" lon="1.29848">
        <ele>160</ele>
        <time>2017-08-06T13:44:03.221Z</time>
      </trkpt>
      <trkpt lat="43.72323" lon="1.2986">
        <ele>161</ele>
        <time>2017-08-06T13:44:03.432Z</time>
      </trkpt>
      <trkpt lat="43.72317" lon="1.29869">
        <ele>161</ele>
        <time>2017-08-06T13:44:03.609Z</time>
      </trkpt>
      <trkpt lat="43.72309" lon="1.29874">
        <ele>161</ele>
        <time>2017-08-06T13:44:03.785Z</time>
      </trkpt>
      <trkpt lat="43.72283" lon="1.2988">
        <ele>161</ele>
        <time>2017-08-06T13:44:04.308Z</time>
      </trkpt>
      <trkpt lat="43.72283" lon="1.2988">
        <ele>161</ele>
        <time>2017-08-06T13:44:04.319Z</time>
      </trkpt>
      <trkpt lat="43.72282" lon="1.2988">
        <ele>161</ele>
        <time>2017-08-06T13:44:04.330Z</time>
      </trkpt>
      <trkpt lat="43.72238" lon="1.2989">
        <ele>161</ele>
        <time>2017-08-06T13:44:05.227Z</time>
      </trkpt>
      <trkpt lat="43.72234" lon="1.2989">
        <ele>161</ele>
        <time>2017-08-06T13:44:05.307Z</time>
      </trkpt>
      <trkpt lat="43.72225" lon="1.29887">
        <ele>161</ele>
        <time>2017-08-06T13:44:05.493Z</time>
      </trkpt>
      <trkpt lat="43.72216" lon="1.29878">
        <ele>161</ele>
        <time>2017-08-06T13:44:05.716Z</time>
      </trkpt>
      <trkpt lat="43.72211" lon="1.29866">
        <ele>161</ele>
        <time>2017-08-06T13:44:05.917Z</time>
      </trkpt>
      <trkpt lat="43.72206" lon="1.2985">
        <ele>161</ele>
        <time>2017-08-06T13:44:06.169Z</time>
      </trkpt>
      <trkpt lat="43.72203" lon="1.29842">
        <ele>161</ele>
        <time>2017-08-06T13:44:06.300Z</time>
      </trkpt>
      <trkpt lat="43.72174" lon="1.298">
        <ele>161</ele>
        <time>2017-08-06T13:44:07.141Z</time>
      </trkpt>
      <trkpt lat="43.72166" lon="1.29785">
        <ele>161</ele>
        <time>2017-08-06T13:44:07.411Z</time>
      </trkpt>
      <trkpt lat="43.72163" lon="1.2978">
        <ele>161</ele>
        <time>2017-08-06T13:44:07.513Z</time>
      </trkpt>
      <trkpt lat="43.72162" lon="1.29779">
        <ele>161</ele>
        <time>2017-08-06T13:44:07.525Z</time>
      </trkpt>
      <trkpt lat="43.72162" lon="1.29779">
        <ele>161</ele>
        <time>2017-08-06T13:44:07.537Z</time>
      </trkpt>
      <trkpt lat="43.72139" lon="1.29745">
        <ele>160</ele>
        <time>2017-08-06T13:44:08.203Z</time>
      </trkpt>
      <trkpt lat="43.72127" lon="1.29759">
        <ele>160</ele>
        <time>2017-08-06T13:44:08.518Z</time>
      </trkpt>
      <trkpt lat="43.72112" lon="1.29775">
        <ele>160</ele>
        <time>2017-08-06T13:44:08.898Z</time>
      </trkpt>
      <trkpt lat="43.72099" lon="1.29701">
        <ele>159</ele>
        <time>2017-08-06T13:44:10.003Z</time>
      </trkpt>
      <trkpt lat="43.72099" lon="1.29701">
        <ele>159</ele>
        <time>2017-08-06T13:44:10.012Z</time>
      </trkpt>
      <trkpt lat="43.72091" lon="1.29651">
        <ele>158</ele>
        <time>2017-08-06T13:44:10.754Z</time>
      </trkpt>
      <trkpt lat="43.72089" lon="1.29627">
        <ele>158</ele>
        <time>2017-08-06T13:44:11.104Z</time>
      </trkpt>
      <trkpt lat="43.72087" lon="1.29597">
        <ele>158</ele>
        <time>2017-08-06T13:44:11.540Z</time>
      </trkpt>
      <trkpt lat="43.72087" lon="1.29586">
        <ele>158</ele>
        <time>2017-08-06T13:44:11.699Z</time>
      </trkpt>
      <trkpt lat="43.72074" lon="1.29506">
        <ele>158</ele>
        <time>2017-08-06T13:44:12.887Z</time>
      </trkpt>
      <trkpt lat="43.72067" lon="1.29472">
        <ele>158</ele>
        <time>2017-08-06T13:44:13.399Z</time>
      </trkpt>
      <trkpt lat="43.72055" lon="1.2943">
        <ele>158</ele>
        <time>2017-08-06T13:44:14.053Z</time>
      </trkpt>
      <trkpt lat="43.72031" lon="1.29352">
        <ele>158</ele>
        <time>2017-08-06T13:44:15.281Z</time>
      </trkpt>
      <trkpt lat="43.72009" lon="1.2928">
        <ele>159</ele>
        <time>2017-08-06T13:44:16.413Z</time>
      </trkpt>
      <trkpt lat="43.71998" lon="1.29233">
        <ele>159</ele>
        <time>2017-08-06T13:44:17.128Z</time>
      </trkpt>
      <trkpt lat="43.71992" lon="1.292">
        <ele>159</ele>
        <time>2017-08-06T13:44:17.621Z</time>
      </trkpt>
      <trkpt lat="43.7198" lon="1.2912">
        <ele>160</ele>
        <time>2017-08-06T13:44:18.804Z</time>
      </trkpt>
      <trkpt lat="43.7198" lon="1.29113">
        <ele>160</ele>
        <time>2017-08-06T13:44:18.905Z</time>
      </trkpt>
      <trkpt lat="43.71984" lon="1.29102">
        <ele>161</ele>
        <time>2017-08-06T13:44:19.083Z</time>
      </trkpt>
      <trkpt lat="43.71985" lon="1.29097">
        <ele>161</ele>
        <time>2017-08-06T13:44:19.158Z</time>
      </trkpt>
      <trkpt lat="43.71984" lon="1.29087">
        <ele>161</ele>
        <time>2017-08-06T13:44:19.304Z</time>
      </trkpt>
      <trkpt lat="43.71978" lon="1.29081">
        <ele>161</ele>
        <time>2017-08-06T13:44:19.452Z</time>
      </trkpt>
      <trkpt lat="43.71974" lon="1.2908">
        <ele>161</ele>
        <time>2017-08-06T13:44:19.533Z</time>
      </trkpt>
      <trkpt lat="43.71968" lon="1.29086">
        <ele>161</ele>
        <time>2017-08-06T13:44:19.681Z</time>
      </trkpt>
      <trkpt lat="43.71963" lon="1.29098">
        <ele>160</ele>
        <time>2017-08-06T13:44:19.882Z</time>
      </trkpt>
      <trkpt lat="43.71959" lon="1.29111">
        <ele>160</ele>
        <time>2017-08-06T13:44:20.087Z</time>
      </trkpt>
      <trkpt lat="43.71937" lon="1.29129">
        <ele>160</ele>
        <time>2017-08-06T13:44:20.599Z</time>
      </trkpt>
      <trkpt lat="43.71804" lon="1.2917">
        <ele>161</ele>
        <time>2017-08-06T13:44:23.330Z</time>
      </trkpt>
      <trkpt lat="43.71779" lon="1.29176">
        <ele>161</ele>
        <time>2017-08-06T13:44:23.838Z</time>
      </trkpt>
      <trkpt lat="43.71754" lon="1.29157">
        <ele>161</ele>
        <time>2017-08-06T13:44:24.410Z</time>
      </trkpt>
      <trkpt lat="43.71751" lon="1.29157">
        <ele>161</ele>
        <time>2017-08-06T13:44:24.470Z</time>
      </trkpt>
      <trkpt lat="43.71741" lon="1.29157">
        <ele>161</ele>
        <time>2017-08-06T13:44:24.670Z</time>
      </trkpt>
      <trkpt lat="43.71731" lon="1.29155">
        <ele>161</ele>
        <time>2017-08-06T13:44:24.872Z</time>
      </trkpt>
      <trkpt lat="43.7172" lon="1.29151">
        <ele>161</ele>
        <time>2017-08-06T13:44:25.100Z</time>
      </trkpt>
      <trkpt lat="43.7172" lon="1.2915">
        <ele>161</ele>
        <time>2017-08-06T13:44:25.115Z</time>
      </trkpt>
      <trkpt lat="43.71719" lon="1.29147">
        <ele>161</ele>
        <time>2017-08-06T13:44:25.163Z</time>
      </trkpt>
      <trkpt lat="43.71716" lon="1.29144">
        <ele>161</ele>
        <time>2017-08-06T13:44:25.237Z</time>
      </trkpt>
      <trkpt lat="43.71712" lon="1.29141">
        <ele>161</ele>
        <time>2017-08-06T13:44:25.328Z</time>
      </trkpt>
      <trkpt lat="43.71715" lon="1.29123">
        <ele>162</ele>
        <time>2017-08-06T13:44:25.596Z</time>
      </trkpt>
      <trkpt lat="43.71711" lon="1.29104">
        <ele>162</ele>
        <time>2017-08-06T13:44:25.883Z</time>
      </trkpt>
      <trkpt lat="43.71703" lon="1.29084">
        <ele>162</ele>
        <time>2017-08-06T13:44:26.214Z</time>
      </trkpt>
      <trkpt lat="43.71601" lon="1.2897">
        <ele>165</ele>
        <time>2017-08-06T13:44:28.842Z</time>
      </trkpt>
      <trkpt lat="43.71557" lon="1.28913">
        <ele>167</ele>
        <time>2017-08-06T13:44:30.050Z</time>
      </trkpt>
      <trkpt lat="43.71512" lon="1.2885">
        <ele>169</ele>
        <time>2017-08-06T13:44:31.333Z</time>
      </trkpt>
      <trkpt lat="43.71454" lon="1.28765">
        <ele>171</ele>
        <time>2017-08-06T13:44:33.026Z</time>
      </trkpt>
      <trkpt lat="43.71418" lon="1.28702">
        <ele>173</ele>
        <time>2017-08-06T13:44:34.189Z</time>
      </trkpt>
      <trkpt lat="43.71385" lon="1.2863">
        <ele>174</ele>
        <time>2017-08-06T13:44:35.424Z</time>
      </trkpt>
      <trkpt lat="43.71365" lon="1.28586">
        <ele>174</ele>
        <time>2017-08-06T13:44:36.177Z</time>
      </trkpt>
      <trkpt lat="43.71347" lon="1.28553">
        <ele>174</ele>
        <time>2017-08-06T13:44:36.776Z</time>
      </trkpt>
      <trkpt lat="43.71302" lon="1.28502">
        <ele>173</ele>
        <time>2017-08-06T13:44:37.942Z</time>
      </trkpt>
      <trkpt lat="43.71251" lon="1.28434">
        <ele>171</ele>
        <time>2017-08-06T13:44:39.361Z</time>
      </trkpt>
      <trkpt lat="43.71238" lon="1.28416">
        <ele>171</ele>
        <time>2017-08-06T13:44:39.730Z</time>
      </trkpt>
      <trkpt lat="43.71182" lon="1.28346">
        <ele>173</ele>
        <time>2017-08-06T13:44:41.242Z</time>
      </trkpt>
      <trkpt lat="43.71045" lon="1.2819">
        <ele>174</ele>
        <time>2017-08-06T13:44:44.798Z</time>
      </trkpt>
      <trkpt lat="43.71014" lon="1.28158">
        <ele>175</ele>
        <time>2017-08-06T13:44:45.573Z</time>
      </trkpt>
      <trkpt lat="43.70975" lon="1.28123">
        <ele>175</ele>
        <time>2017-08-06T13:44:46.505Z</time>
      </trkpt>
      <trkpt lat="43.70941" lon="1.28099">
        <ele>175</ele>
        <time>2017-08-06T13:44:47.270Z</time>
      </trkpt>
      <trkpt lat="43.70905" lon="1.28075">
        <ele>174</ele>
        <time>2017-08-06T13:44:48.071Z</time>
      </trkpt>
      <trkpt lat="43.70885" lon="1.28065">
        <ele>174</ele>
        <time>2017-08-06T13:44:48.497Z</time>
      </trkpt>
      <trkpt lat="43.70858" lon="1.2806">
        <ele>174</ele>
        <time>2017-08-06T13:44:49.043Z</time>
      </trkpt>
      <trkpt lat="43.70725" lon="1.2805">
        <ele>174</ele>
        <time>2017-08-06T13:44:51.712Z</time>
      </trkpt>
      <trkpt lat="43.70702" lon="1.28045">
        <ele>175</ele>
        <time>2017-08-06T13:44:52.179Z</time>
      </trkpt>
      <trkpt lat="43.70671" lon="1.28036">
        <ele>175</ele>
        <time>2017-08-06T13:44:52.814Z</time>
      </trkpt>
      <trkpt lat="43.70646" lon="1.28028">
        <ele>175</ele>
        <time>2017-08-06T13:44:53.328Z</time>
      </trkpt>
      <trkpt lat="43.70646" lon="1.28027">
        <ele>175</ele>
        <time>2017-08-06T13:44:53.345Z</time>
      </trkpt>
      <trkpt lat="43.70644" lon="1.28026">
        <ele>175</ele>
        <time>2017-08-06T13:44:53.392Z</time>
      </trkpt>
      <trkpt lat="43.70641" lon="1.28025">
        <ele>175</ele>
        <time>2017-08-06T13:44:53.440Z</time>
      </trkpt>
      <trkpt lat="43.70589" lon="1.28006">
        <ele>175</ele>
        <time>2017-08-06T13:44:54.525Z</time>
      </trkpt>
      <trkpt lat="43.70539" lon="1.2798">
        <ele>175</ele>
        <time>2017-08-06T13:44:55.595Z</time>
      </trkpt>
      <trkpt lat="43.70487" lon="1.27945">
        <ele>175</ele>
        <time>2017-08-06T13:44:56.754Z</time>
      </trkpt>
      <trkpt lat="43.70444" lon="1.27911">
        <ele>175</ele>
        <time>2017-08-06T13:44:57.747Z</time>
      </trkpt>
      <trkpt lat="43.703" lon="1.2779">
        <ele>174</ele>
        <time>2017-08-06T13:45:01.123Z</time>
      </trkpt>
      <trkpt lat="43.7026" lon="1.27753">
        <ele>174</ele>
        <time>2017-08-06T13:45:02.087Z</time>
      </trkpt>
      <trkpt lat="43.70194" lon="1.27696">
        <ele>174</ele>
        <time>2017-08-06T13:45:03.646Z</time>
      </trkpt>
      <trkpt lat="43.70089" lon="1.27578">
        <ele>177</ele>
        <time>2017-08-06T13:45:06.357Z</time>
      </trkpt>
      <trkpt lat="43.7006" lon="1.27549">
        <ele>175</ele>
        <time>2017-08-06T13:45:07.074Z</time>
      </trkpt>
      <trkpt lat="43.7" lon="1.27504">
        <ele>174</ele>
        <time>2017-08-06T13:45:08.442Z</time>
      </trkpt>
      <trkpt lat="43.69975" lon="1.27481">
        <ele>175</ele>
        <time>2017-08-06T13:45:09.046Z</time>
      </trkpt>
      <trkpt lat="43.69973" lon="1.27479">
        <ele>175</ele>
        <time>2017-08-06T13:45:09.095Z</time>
      </trkpt>
      <trkpt lat="43.69971" lon="1.27477">
        <ele>175</ele>
        <time>2017-08-06T13:45:09.145Z</time>
      </trkpt>
      <trkpt lat="43.69919" lon="1.27428">
        <ele>176</ele>
        <time>2017-08-06T13:45:10.404Z</time>
      </trkpt>
      <trkpt lat="43.69882" lon="1.27393">
        <ele>175</ele>
        <time>2017-08-06T13:45:11.302Z</time>
      </trkpt>
      <trkpt lat="43.69791" lon="1.27308">
        <ele>175</ele>
        <time>2017-08-06T13:45:13.502Z</time>
      </trkpt>
      <trkpt lat="43.69745" lon="1.27258">
        <ele>175</ele>
        <time>2017-08-06T13:45:14.674Z</time>
      </trkpt>
      <trkpt lat="43.69684" lon="1.27181">
        <ele>176</ele>
        <time>2017-08-06T13:45:16.329Z</time>
      </trkpt>
      <trkpt lat="43.69657" lon="1.27141">
        <ele>177</ele>
        <time>2017-08-06T13:45:17.122Z</time>
      </trkpt>
      <trkpt lat="43.69631" lon="1.27088">
        <ele>177</ele>
        <time>2017-08-06T13:45:18.050Z</time>
      </trkpt>
      <trkpt lat="43.69607" lon="1.27033">
        <ele>178</ele>
        <time>2017-08-06T13:45:18.981Z</time>
      </trkpt>
      <trkpt lat="43.69584" lon="1.26994">
        <ele>180</ele>
        <time>2017-08-06T13:45:19.710Z</time>
      </trkpt>
      <trkpt lat="43.69548" lon="1.26929">
        <ele>180</ele>
        <time>2017-08-06T13:45:20.896Z</time>
      </trkpt>
      <trkpt lat="43.69541" lon="1.26909">
        <ele>180</ele>
        <time>2017-08-06T13:45:21.218Z</time>
      </trkpt>
      <trkpt lat="43.69527" lon="1.26876">
        <ele>180</ele>
        <time>2017-08-06T13:45:21.772Z</time>
      </trkpt>
      <trkpt lat="43.6952" lon="1.26852">
        <ele>180</ele>
        <time>2017-08-06T13:45:22.147Z</time>
      </trkpt>
      <trkpt lat="43.69513" lon="1.26826">
        <ele>178</ele>
        <time>2017-08-06T13:45:22.549Z</time>
      </trkpt>
      <trkpt lat="43.6951" lon="1.26823">
        <ele>178</ele>
        <time>2017-08-06T13:45:22.623Z</time>
      </trkpt>
      <trkpt lat="43.695" lon="1.26821">
        <ele>178</ele>
        <time>2017-08-06T13:45:22.825Z</time>
      </trkpt>
      <trkpt lat="43.69479" lon="1.26807">
        <ele>176</ele>
        <time>2017-08-06T13:45:23.292Z</time>
      </trkpt>
      <trkpt lat="43.6946" lon="1.26801">
        <ele>175</ele>
        <time>2017-08-06T13:45:23.683Z</time>
      </trkpt>
      <trkpt lat="43.69446" lon="1.26803">
        <ele>176</ele>
        <time>2017-08-06T13:45:23.965Z</time>
      </trkpt>
      <trkpt lat="43.69416" lon="1.26812">
        <ele>177</ele>
        <time>2017-08-06T13:45:24.580Z</time>
      </trkpt>
      <trkpt lat="43.69404" lon="1.26816">
        <ele>177</ele>
        <time>2017-08-06T13:45:24.827Z</time>
      </trkpt>
      <trkpt lat="43.69381" lon="1.26823">
        <ele>176</ele>
        <time>2017-08-06T13:45:25.299Z</time>
      </trkpt>
      <trkpt lat="43.69364" lon="1.26835">
        <ele>180</ele>
        <time>2017-08-06T13:45:25.681Z</time>
      </trkpt>
      <trkpt lat="43.69338" lon="1.26847">
        <ele>179</ele>
        <time>2017-08-06T13:45:26.230Z</time>
      </trkpt>
      <trkpt lat="43.69331" lon="1.26848">
        <ele>179</ele>
        <time>2017-08-06T13:45:26.371Z</time>
      </trkpt>
      <trkpt lat="43.69307" lon="1.26845">
        <ele>179</ele>
        <time>2017-08-06T13:45:26.854Z</time>
      </trkpt>
      <trkpt lat="43.69275" lon="1.26845">
        <ele>180</ele>
        <time>2017-08-06T13:45:27.495Z</time>
      </trkpt>
      <trkpt lat="43.69267" lon="1.26847">
        <ele>180</ele>
        <time>2017-08-06T13:45:27.658Z</time>
      </trkpt>
      <trkpt lat="43.6925" lon="1.26855">
        <ele>180</ele>
        <time>2017-08-06T13:45:28.018Z</time>
      </trkpt>
      <trkpt lat="43.69202" lon="1.26882">
        <ele>179</ele>
        <time>2017-08-06T13:45:29.056Z</time>
      </trkpt>
      <trkpt lat="43.69171" lon="1.26905">
        <ele>179</ele>
        <time>2017-08-06T13:45:29.761Z</time>
      </trkpt>
      <trkpt lat="43.69134" lon="1.26941">
        <ele>181</ele>
        <time>2017-08-06T13:45:30.668Z</time>
      </trkpt>
      <trkpt lat="43.69071" lon="1.26995">
        <ele>180</ele>
        <time>2017-08-06T13:45:32.153Z</time>
      </trkpt>
      <trkpt lat="43.69039" lon="1.27023">
        <ele>180</ele>
        <time>2017-08-06T13:45:32.912Z</time>
      </trkpt>
      <trkpt lat="43.6902" lon="1.27045">
        <ele>180</ele>
        <time>2017-08-06T13:45:33.409Z</time>
      </trkpt>
      <trkpt lat="43.69002" lon="1.2707">
        <ele>180</ele>
        <time>2017-08-06T13:45:33.920Z</time>
      </trkpt>
      <trkpt lat="43.68958" lon="1.2714">
        <ele>176</ele>
        <time>2017-08-06T13:45:35.264Z</time>
      </trkpt>
      <trkpt lat="43.68932" lon="1.27176">
        <ele>176</ele>
        <time>2017-08-06T13:45:36.001Z</time>
      </trkpt>
      <trkpt lat="43.68906" lon="1.2721">
        <ele>176</ele>
        <time>2017-08-06T13:45:36.718Z</time>
      </trkpt>
      <trkpt lat="43.68879" lon="1.27242">
        <ele>177</ele>
        <time>2017-08-06T13:45:37.431Z</time>
      </trkpt>
      <trkpt lat="43.6885" lon="1.27268">
        <ele>177</ele>
        <time>2017-08-06T13:45:38.124Z</time>
      </trkpt>
      <trkpt lat="43.68834" lon="1.27276">
        <ele>177</ele>
        <time>2017-08-06T13:45:38.465Z</time>
      </trkpt>
      <trkpt lat="43.68814" lon="1.27281">
        <ele>177</ele>
        <time>2017-08-06T13:45:38.872Z</time>
      </trkpt>
      <trkpt lat="43.68768" lon="1.27279">
        <ele>176</ele>
        <time>2017-08-06T13:45:39.794Z</time>
      </trkpt>
      <trkpt lat="43.68725" lon="1.27273">
        <ele>176</ele>
        <time>2017-08-06T13:45:40.660Z</time>
      </trkpt>
      <trkpt lat="43.68669" lon="1.27266">
        <ele>175</ele>
        <time>2017-08-06T13:45:41.787Z</time>
      </trkpt>
      <trkpt lat="43.68658" lon="1.27268">
        <ele>176</ele>
        <time>2017-08-06T13:45:42.009Z</time>
      </trkpt>
      <trkpt lat="43.68655" lon="1.27269">
        <ele>176</ele>
        <time>2017-08-06T13:45:42.071Z</time>
      </trkpt>
      <trkpt lat="43.68655" lon="1.27269">
        <ele>176</ele>
        <time>2017-08-06T13:45:42.071Z</time>
      </trkpt>
      <trkpt lat="43.68652" lon="1.2727">
        <ele>176</ele>
        <time>2017-08-06T13:45:42.133Z</time>
      </trkpt>
      <trkpt lat="43.6864" lon="1.27275">
        <ele>176</ele>
        <time>2017-08-06T13:45:42.383Z</time>
      </trkpt>
      <trkpt lat="43.68627" lon="1.27283">
        <ele>176</ele>
        <time>2017-08-06T13:45:42.668Z</time>
      </trkpt>
      <trkpt lat="43.6861" lon="1.27303">
        <ele>177</ele>
        <time>2017-08-06T13:45:43.115Z</time>
      </trkpt>
      <trkpt lat="43.68592" lon="1.27326">
        <ele>177</ele>
        <time>2017-08-06T13:45:43.606Z</time>
      </trkpt>
      <trkpt lat="43.68569" lon="1.27362">
        <ele>178</ele>
        <time>2017-08-06T13:45:44.302Z</time>
      </trkpt>
      <trkpt lat="43.68555" lon="1.27381">
        <ele>178</ele>
        <time>2017-08-06T13:45:44.695Z</time>
      </trkpt>
      <trkpt lat="43.68516" lon="1.27426">
        <ele>179</ele>
        <time>2017-08-06T13:45:45.713Z</time>
      </trkpt>
      <trkpt lat="43.68503" lon="1.27434">
        <ele>179</ele>
        <time>2017-08-06T13:45:45.998Z</time>
      </trkpt>
      <trkpt lat="43.6843" lon="1.27473">
        <ele>179</ele>
        <time>2017-08-06T13:45:47.566Z</time>
      </trkpt>
      <trkpt lat="43.68338" lon="1.27515">
        <ele>178</ele>
        <time>2017-08-06T13:45:49.507Z</time>
      </trkpt>
      <trkpt lat="43.68312" lon="1.27526">
        <ele>179</ele>
        <time>2017-08-06T13:45:50.052Z</time>
      </trkpt>
      <trkpt lat="43.68272" lon="1.27539">
        <ele>179</ele>
        <time>2017-08-06T13:45:50.875Z</time>
      </trkpt>
      <trkpt lat="43.68233" lon="1.27549">
        <ele>179</ele>
        <time>2017-08-06T13:45:51.670Z</time>
      </trkpt>
      <trkpt lat="43.68205" lon="1.27559">
        <ele>179</ele>
        <time>2017-08-06T13:45:52.250Z</time>
      </trkpt>
      <trkpt lat="43.68159" lon="1.27576">
        <ele>178</ele>
        <time>2017-08-06T13:45:53.204Z</time>
      </trkpt>
      <trkpt lat="43.68043" lon="1.27641">
        <ele>180</ele>
        <time>2017-08-06T13:45:55.712Z</time>
      </trkpt>
      <trkpt lat="43.68001" lon="1.27667">
        <ele>180</ele>
        <time>2017-08-06T13:45:56.634Z</time>
      </trkpt>
      <trkpt lat="43.67971" lon="1.27692">
        <ele>180</ele>
        <time>2017-08-06T13:45:57.336Z</time>
      </trkpt>
      <trkpt lat="43.67922" lon="1.27739">
        <ele>180</ele>
        <time>2017-08-06T13:45:58.531Z</time>
      </trkpt>
      <trkpt lat="43.6786" lon="1.27801">
        <ele>181</ele>
        <time>2017-08-06T13:46:00.064Z</time>
      </trkpt>
      <trkpt lat="43.67788" lon="1.27882">
        <ele>181</ele>
        <time>2017-08-06T13:46:01.924Z</time>
      </trkpt>
      <trkpt lat="43.67701" lon="1.27984">
        <ele>180</ele>
        <time>2017-08-06T13:46:04.210Z</time>
      </trkpt>
      <trkpt lat="43.67619" lon="1.28053">
        <ele>182</ele>
        <time>2017-08-06T13:46:06.134Z</time>
      </trkpt>
      <trkpt lat="43.67555" lon="1.28107">
        <ele>183</ele>
        <time>2017-08-06T13:46:07.636Z</time>
      </trkpt>
      <trkpt lat="43.67466" lon="1.28187">
        <ele>183</ele>
        <time>2017-08-06T13:46:09.763Z</time>
      </trkpt>
      <trkpt lat="43.67347" lon="1.28289">
        <ele>182</ele>
        <time>2017-08-06T13:46:12.577Z</time>
      </trkpt>
      <trkpt lat="43.67344" lon="1.28292">
        <ele>181</ele>
        <time>2017-08-06T13:46:12.643Z</time>
      </trkpt>
      <trkpt lat="43.67341" lon="1.28294">
        <ele>181</ele>
        <time>2017-08-06T13:46:12.709Z</time>
      </trkpt>
      <trkpt lat="43.67339" lon="1.28296">
        <ele>181</ele>
        <time>2017-08-06T13:46:12.759Z</time>
      </trkpt>
      <trkpt lat="43.67318" lon="1.28315">
        <ele>182</ele>
        <time>2017-08-06T13:46:13.262Z</time>
      </trkpt>
      <trkpt lat="43.67299" lon="1.28329">
        <ele>182</ele>
        <time>2017-08-06T13:46:13.694Z</time>
      </trkpt>
      <trkpt lat="43.67296" lon="1.28331">
        <ele>182</ele>
        <time>2017-08-06T13:46:13.760Z</time>
      </trkpt>
      <trkpt lat="43.67293" lon="1.28333">
        <ele>182</ele>
        <time>2017-08-06T13:46:13.826Z</time>
      </trkpt>
      <trkpt lat="43.67292" lon="1.28334">
        <ele>181</ele>
        <time>2017-08-06T13:46:13.851Z</time>
      </trkpt>
      <trkpt lat="43.67273" lon="1.28345">
        <ele>181</ele>
        <time>2017-08-06T13:46:14.264Z</time>
      </trkpt>
      <trkpt lat="43.67243" lon="1.28355">
        <ele>180</ele>
        <time>2017-08-06T13:46:14.882Z</time>
      </trkpt>
      <trkpt lat="43.67225" lon="1.28353">
        <ele>180</ele>
        <time>2017-08-06T13:46:15.244Z</time>
      </trkpt>
      <trkpt lat="43.67224" lon="1.2835">
        <ele>180</ele>
        <time>2017-08-06T13:46:15.292Z</time>
      </trkpt>
      <trkpt lat="43.67222" lon="1.28344">
        <ele>180</ele>
        <time>2017-08-06T13:46:15.388Z</time>
      </trkpt>
      <trkpt lat="43.67218" lon="1.28338">
        <ele>180</ele>
        <time>2017-08-06T13:46:15.506Z</time>
      </trkpt>
      <trkpt lat="43.67211" lon="1.28333">
        <ele>181</ele>
        <time>2017-08-06T13:46:15.664Z</time>
      </trkpt>
      <trkpt lat="43.67201" lon="1.28333">
        <ele>181</ele>
        <time>2017-08-06T13:46:15.864Z</time>
      </trkpt>
      <trkpt lat="43.67195" lon="1.28336">
        <ele>180</ele>
        <time>2017-08-06T13:46:15.992Z</time>
      </trkpt>
      <trkpt lat="43.67191" lon="1.28341">
        <ele>180</ele>
        <time>2017-08-06T13:46:16.100Z</time>
      </trkpt>
      <trkpt lat="43.67188" lon="1.28348">
        <ele>180</ele>
        <time>2017-08-06T13:46:16.218Z</time>
      </trkpt>
      <trkpt lat="43.67185" lon="1.28361">
        <ele>180</ele>
        <time>2017-08-06T13:46:16.416Z</time>
      </trkpt>
      <trkpt lat="43.67172" lon="1.28368">
        <ele>180</ele>
        <time>2017-08-06T13:46:16.696Z</time>
      </trkpt>
      <trkpt lat="43.67155" lon="1.28362">
        <ele>181</ele>
        <time>2017-08-06T13:46:17.048Z</time>
      </trkpt>
      <trkpt lat="43.67119" lon="1.28352">
        <ele>181</ele>
        <time>2017-08-06T13:46:17.786Z</time>
      </trkpt>
      <trkpt lat="43.67116" lon="1.28351">
        <ele>181</ele>
        <time>2017-08-06T13:46:17.852Z</time>
      </trkpt>
      <trkpt lat="43.67112" lon="1.2835">
        <ele>181</ele>
        <time>2017-08-06T13:46:17.918Z</time>
      </trkpt>
      <trkpt lat="43.67046" lon="1.28332">
        <ele>183</ele>
        <time>2017-08-06T13:46:19.275Z</time>
      </trkpt>
      <trkpt lat="43.67033" lon="1.28329">
        <ele>183</ele>
        <time>2017-08-06T13:46:19.539Z</time>
      </trkpt>
      <trkpt lat="43.67007" lon="1.28329">
        <ele>183</ele>
        <time>2017-08-06T13:46:20.060Z</time>
      </trkpt>
      <trkpt lat="43.66906" lon="1.28325">
        <ele>181</ele>
        <time>2017-08-06T13:46:22.085Z</time>
      </trkpt>
      <trkpt lat="43.66864" lon="1.28328">
        <ele>182</ele>
        <time>2017-08-06T13:46:22.928Z</time>
      </trkpt>
      <trkpt lat="43.66853" lon="1.2833">
        <ele>182</ele>
        <time>2017-08-06T13:46:23.150Z</time>
      </trkpt>
      <trkpt lat="43.66812" lon="1.28335">
        <ele>182</ele>
        <time>2017-08-06T13:46:23.975Z</time>
      </trkpt>
      <trkpt lat="43.6678" lon="1.28332">
        <ele>182</ele>
        <time>2017-08-06T13:46:24.618Z</time>
      </trkpt>
      <trkpt lat="43.66738" lon="1.28327">
        <ele>183</ele>
        <time>2017-08-06T13:46:25.463Z</time>
      </trkpt>
      <trkpt lat="43.66717" lon="1.28327">
        <ele>182</ele>
        <time>2017-08-06T13:46:25.884Z</time>
      </trkpt>
      <trkpt lat="43.66675" lon="1.28328">
        <ele>182</ele>
        <time>2017-08-06T13:46:26.726Z</time>
      </trkpt>
      <trkpt lat="43.6665" lon="1.28333">
        <ele>182</ele>
        <time>2017-08-06T13:46:27.232Z</time>
      </trkpt>
      <trkpt lat="43.66613" lon="1.28341">
        <ele>181</ele>
        <time>2017-08-06T13:46:27.982Z</time>
      </trkpt>
      <trkpt lat="43.66591" lon="1.28345">
        <ele>180</ele>
        <time>2017-08-06T13:46:28.427Z</time>
      </trkpt>
      <trkpt lat="43.6653" lon="1.28356">
        <ele>181</ele>
        <time>2017-08-06T13:46:29.660Z</time>
      </trkpt>
      <trkpt lat="43.66484" lon="1.28362">
        <ele>181</ele>
        <time>2017-08-06T13:46:30.586Z</time>
      </trkpt>
      <trkpt lat="43.66442" lon="1.28363">
        <ele>181</ele>
        <time>2017-08-06T13:46:31.428Z</time>
      </trkpt>
      <trkpt lat="43.6641" lon="1.28359">
        <ele>181</ele>
        <time>2017-08-06T13:46:32.072Z</time>
      </trkpt>
      <trkpt lat="43.66344" lon="1.28343">
        <ele>181</ele>
        <time>2017-08-06T13:46:33.415Z</time>
      </trkpt>
      <trkpt lat="43.66312" lon="1.28332">
        <ele>181</ele>
        <time>2017-08-06T13:46:34.076Z</time>
      </trkpt>
      <trkpt lat="43.66296" lon="1.28323">
        <ele>180</ele>
        <time>2017-08-06T13:46:34.422Z</time>
      </trkpt>
      <trkpt lat="43.66274" lon="1.28306">
        <ele>180</ele>
        <time>2017-08-06T13:46:34.927Z</time>
      </trkpt>
      <trkpt lat="43.6617" lon="1.28221">
        <ele>181</ele>
        <time>2017-08-06T13:46:37.348Z</time>
      </trkpt>
      <trkpt lat="43.6615" lon="1.28189">
        <ele>181</ele>
        <time>2017-08-06T13:46:37.961Z</time>
      </trkpt>
      <trkpt lat="43.66147" lon="1.28179">
        <ele>181</ele>
        <time>2017-08-06T13:46:38.118Z</time>
      </trkpt>
      <trkpt lat="43.6614" lon="1.28172">
        <ele>181</ele>
        <time>2017-08-06T13:46:38.291Z</time>
      </trkpt>
      <trkpt lat="43.66133" lon="1.2817">
        <ele>181</ele>
        <time>2017-08-06T13:46:38.434Z</time>
      </trkpt>
      <trkpt lat="43.66126" lon="1.28173">
        <ele>181</ele>
        <time>2017-08-06T13:46:38.581Z</time>
      </trkpt>
      <trkpt lat="43.66125" lon="1.28174">
        <ele>181</ele>
        <time>2017-08-06T13:46:38.606Z</time>
      </trkpt>
      <trkpt lat="43.66118" lon="1.28171">
        <ele>180</ele>
        <time>2017-08-06T13:46:38.753Z</time>
      </trkpt>
      <trkpt lat="43.66102" lon="1.28166">
        <ele>180</ele>
        <time>2017-08-06T13:46:39.082Z</time>
      </trkpt>
      <trkpt lat="43.6606" lon="1.28138">
        <ele>181</ele>
        <time>2017-08-06T13:46:40.016Z</time>
      </trkpt>
      <trkpt lat="43.65979" lon="1.28086">
        <ele>183</ele>
        <time>2017-08-06T13:46:41.806Z</time>
      </trkpt>
      <trkpt lat="43.65951" lon="1.28069">
        <ele>183</ele>
        <time>2017-08-06T13:46:42.419Z</time>
      </trkpt>
      <trkpt lat="43.65923" lon="1.28057">
        <ele>182</ele>
        <time>2017-08-06T13:46:43.006Z</time>
      </trkpt>
      <trkpt lat="43.65906" lon="1.28055">
        <ele>181</ele>
        <time>2017-08-06T13:46:43.348Z</time>
      </trkpt>
      <trkpt lat="43.65896" lon="1.28056">
        <ele>180</ele>
        <time>2017-08-06T13:46:43.547Z</time>
      </trkpt>
      <trkpt lat="43.65893" lon="1.28056">
        <ele>180</ele>
        <time>2017-08-06T13:46:43.600Z</time>
      </trkpt>
      <trkpt lat="43.65893" lon="1.28056">
        <ele>180</ele>
        <time>2017-08-06T13:46:43.609Z</time>
      </trkpt>
      <trkpt lat="43.65891" lon="1.28057">
        <ele>180</ele>
        <time>2017-08-06T13:46:43.653Z</time>
      </trkpt>
      <trkpt lat="43.65877" lon="1.28061">
        <ele>180</ele>
        <time>2017-08-06T13:46:43.937Z</time>
      </trkpt>
      <trkpt lat="43.65848" lon="1.28081">
        <ele>178</ele>
        <time>2017-08-06T13:46:44.586Z</time>
      </trkpt>
      <trkpt lat="43.65832" lon="1.28087">
        <ele>177</ele>
        <time>2017-08-06T13:46:44.918Z</time>
      </trkpt>
      <trkpt lat="43.65816" lon="1.28086">
        <ele>178</ele>
        <time>2017-08-06T13:46:45.239Z</time>
      </trkpt>
      <trkpt lat="43.65801" lon="1.28077">
        <ele>178</ele>
        <time>2017-08-06T13:46:45.567Z</time>
      </trkpt>
      <trkpt lat="43.65792" lon="1.28069">
        <ele>178</ele>
        <time>2017-08-06T13:46:45.781Z</time>
      </trkpt>
      <trkpt lat="43.65775" lon="1.28041">
        <ele>178</ele>
        <time>2017-08-06T13:46:46.311Z</time>
      </trkpt>
      <trkpt lat="43.65761" lon="1.28014">
        <ele>178</ele>
        <time>2017-08-06T13:46:46.793Z</time>
      </trkpt>
      <trkpt lat="43.65751" lon="1.28001">
        <ele>178</ele>
        <time>2017-08-06T13:46:47.068Z</time>
      </trkpt>
      <trkpt lat="43.65746" lon="1.27942">
        <ele>181</ele>
        <time>2017-08-06T13:46:47.929Z</time>
      </trkpt>
      <trkpt lat="43.65749" lon="1.27894">
        <ele>183</ele>
        <time>2017-08-06T13:46:48.628Z</time>
      </trkpt>
      <trkpt lat="43.65758" lon="1.2782">
        <ele>184</ele>
        <time>2017-08-06T13:46:49.716Z</time>
      </trkpt>
      <trkpt lat="43.65761" lon="1.27739">
        <ele>183</ele>
        <time>2017-08-06T13:46:50.892Z</time>
      </trkpt>
      <trkpt lat="43.6576" lon="1.27719">
        <ele>183</ele>
        <time>2017-08-06T13:46:51.181Z</time>
      </trkpt>
      <trkpt lat="43.6576" lon="1.27715">
        <ele>183</ele>
        <time>2017-08-06T13:46:51.245Z</time>
      </trkpt>
      <trkpt lat="43.6576" lon="1.27714">
        <ele>183</ele>
        <time>2017-08-06T13:46:51.255Z</time>
      </trkpt>
      <trkpt lat="43.65759" lon="1.2771">
        <ele>183</ele>
        <time>2017-08-06T13:46:51.309Z</time>
      </trkpt>
      <trkpt lat="43.65758" lon="1.27704">
        <ele>183</ele>
        <time>2017-08-06T13:46:51.405Z</time>
      </trkpt>
      <trkpt lat="43.65754" lon="1.27694">
        <ele>183</ele>
        <time>2017-08-06T13:46:51.571Z</time>
      </trkpt>
      <trkpt lat="43.65748" lon="1.27686">
        <ele>184</ele>
        <time>2017-08-06T13:46:51.738Z</time>
      </trkpt>
      <trkpt lat="43.6572" lon="1.27663">
        <ele>183</ele>
        <time>2017-08-06T13:46:52.391Z</time>
      </trkpt>
      <trkpt lat="43.65702" lon="1.27642">
        <ele>183</ele>
        <time>2017-08-06T13:46:52.863Z</time>
      </trkpt>
      <trkpt lat="43.65684" lon="1.2761">
        <ele>182</ele>
        <time>2017-08-06T13:46:53.451Z</time>
      </trkpt>
      <trkpt lat="43.65664" lon="1.27574">
        <ele>181</ele>
        <time>2017-08-06T13:46:54.109Z</time>
      </trkpt>
      <trkpt lat="43.65653" lon="1.27545">
        <ele>180</ele>
        <time>2017-08-06T13:46:54.584Z</time>
      </trkpt>
      <trkpt lat="43.65646" lon="1.27485">
        <ele>179</ele>
        <time>2017-08-06T13:46:55.465Z</time>
      </trkpt>
      <trkpt lat="43.65643" lon="1.27472">
        <ele>179</ele>
        <time>2017-08-06T13:46:55.663Z</time>
      </trkpt>
      <trkpt lat="43.65638" lon="1.2746">
        <ele>179</ele>
        <time>2017-08-06T13:46:55.864Z</time>
      </trkpt>
      <trkpt lat="43.65611" lon="1.27421">
        <ele>179</ele>
        <time>2017-08-06T13:46:56.647Z</time>
      </trkpt>
      <trkpt lat="43.65588" lon="1.27391">
        <ele>179</ele>
        <time>2017-08-06T13:46:57.281Z</time>
      </trkpt>
      <trkpt lat="43.65574" lon="1.27377">
        <ele>180</ele>
        <time>2017-08-06T13:46:57.627Z</time>
      </trkpt>
      <trkpt lat="43.65565" lon="1.27358">
        <ele>180</ele>
        <time>2017-08-06T13:46:57.956Z</time>
      </trkpt>
      <trkpt lat="43.65558" lon="1.27334">
        <ele>180</ele>
        <time>2017-08-06T13:46:58.331Z</time>
      </trkpt>
      <trkpt lat="43.65551" lon="1.27304">
        <ele>181</ele>
        <time>2017-08-06T13:46:58.788Z</time>
      </trkpt>
      <trkpt lat="43.65538" lon="1.27286">
        <ele>181</ele>
        <time>2017-08-06T13:46:59.157Z</time>
      </trkpt>
      <trkpt lat="43.65485" lon="1.27245">
        <ele>183</ele>
        <time>2017-08-06T13:47:00.374Z</time>
      </trkpt>
      <trkpt lat="43.65449" lon="1.27221">
        <ele>183</ele>
        <time>2017-08-06T13:47:01.175Z</time>
      </trkpt>
      <trkpt lat="43.65447" lon="1.27228">
        <ele>183</ele>
        <time>2017-08-06T13:47:01.284Z</time>
      </trkpt>
      <trkpt lat="43.65445" lon="1.27241">
        <ele>183</ele>
        <time>2017-08-06T13:47:01.477Z</time>
      </trkpt>
      <trkpt lat="43.65441" lon="1.27264">
        <ele>184</ele>
        <time>2017-08-06T13:47:01.820Z</time>
      </trkpt>
      <trkpt lat="43.65434" lon="1.27277">
        <ele>184</ele>
        <time>2017-08-06T13:47:02.055Z</time>
      </trkpt>
      <trkpt lat="43.65422" lon="1.27292">
        <ele>184</ele>
        <time>2017-08-06T13:47:02.379Z</time>
      </trkpt>
      <trkpt lat="43.65407" lon="1.27303">
        <ele>184</ele>
        <time>2017-08-06T13:47:02.721Z</time>
      </trkpt>
      <trkpt lat="43.65403" lon="1.27305">
        <ele>184</ele>
        <time>2017-08-06T13:47:02.800Z</time>
      </trkpt>
      <trkpt lat="43.654" lon="1.27307">
        <ele>184</ele>
        <time>2017-08-06T13:47:02.879Z</time>
      </trkpt>
      <trkpt lat="43.6539" lon="1.27314">
        <ele>184</ele>
        <time>2017-08-06T13:47:03.096Z</time>
      </trkpt>
      <trkpt lat="43.65341" lon="1.27343">
        <ele>185</ele>
        <time>2017-08-06T13:47:04.164Z</time>
      </trkpt>
      <trkpt lat="43.65303" lon="1.27372">
        <ele>186</ele>
        <time>2017-08-06T13:47:05.034Z</time>
      </trkpt>
      <trkpt lat="43.65015" lon="1.27603">
        <ele>186</ele>
        <time>2017-08-06T13:47:11.707Z</time>
      </trkpt>
      <trkpt lat="43.65006" lon="1.27613">
        <ele>186</ele>
        <time>2017-08-06T13:47:11.938Z</time>
      </trkpt>
      <trkpt lat="43.64931" lon="1.27556">
        <ele>184</ele>
        <time>2017-08-06T13:47:13.653Z</time>
      </trkpt>
      <trkpt lat="43.64924" lon="1.27553">
        <ele>184</ele>
        <time>2017-08-06T13:47:13.800Z</time>
      </trkpt>
      <trkpt lat="43.64917" lon="1.27555">
        <ele>184</ele>
        <time>2017-08-06T13:47:13.943Z</time>
      </trkpt>
      <trkpt lat="43.64912" lon="1.27563">
        <ele>184</ele>
        <time>2017-08-06T13:47:14.096Z</time>
      </trkpt>
      <trkpt lat="43.64867" lon="1.27722">
        <ele>184</ele>
        <time>2017-08-06T13:47:16.572Z</time>
      </trkpt>
      <trkpt lat="43.64859" lon="1.27734">
        <ele>184</ele>
        <time>2017-08-06T13:47:16.809Z</time>
      </trkpt>
      <trkpt lat="43.64847" lon="1.27739">
        <ele>184</ele>
        <time>2017-08-06T13:47:17.051Z</time>
      </trkpt>
      <trkpt lat="43.64847" lon="1.27739">
        <ele>184</ele>
        <time>2017-08-06T13:47:17.060Z</time>
      </trkpt>
      <trkpt lat="43.64843" lon="1.27739">
        <ele>183</ele>
        <time>2017-08-06T13:47:17.136Z</time>
      </trkpt>
      <trkpt lat="43.64839" lon="1.27739">
        <ele>183</ele>
        <time>2017-08-06T13:47:17.221Z</time>
      </trkpt>
      <trkpt lat="43.64838" lon="1.27739">
        <ele>183</ele>
        <time>2017-08-06T13:47:17.240Z</time>
      </trkpt>
      <trkpt lat="43.64821" lon="1.27733">
        <ele>184</ele>
        <time>2017-08-06T13:47:17.592Z</time>
      </trkpt>
      <trkpt lat="43.64737" lon="1.27691">
        <ele>186</ele>
        <time>2017-08-06T13:47:19.382Z</time>
      </trkpt>
      <trkpt lat="43.64716" lon="1.27681">
        <ele>186</ele>
        <time>2017-08-06T13:47:19.827Z</time>
      </trkpt>
      <trkpt lat="43.647" lon="1.27678">
        <ele>186</ele>
        <time>2017-08-06T13:47:20.151Z</time>
      </trkpt>
      <trkpt lat="43.64683" lon="1.27681">
        <ele>186</ele>
        <time>2017-08-06T13:47:20.494Z</time>
      </trkpt>
      <trkpt lat="43.6466" lon="1.27695">
        <ele>186</ele>
        <time>2017-08-06T13:47:20.998Z</time>
      </trkpt>
      <trkpt lat="43.64624" lon="1.27724">
        <ele>186</ele>
        <time>2017-08-06T13:47:21.833Z</time>
      </trkpt>
      <trkpt lat="43.64596" lon="1.27751">
        <ele>187</ele>
        <time>2017-08-06T13:47:22.517Z</time>
      </trkpt>
      <trkpt lat="43.64579" lon="1.27764">
        <ele>187</ele>
        <time>2017-08-06T13:47:22.906Z</time>
      </trkpt>
      <trkpt lat="43.64567" lon="1.2777">
        <ele>187</ele>
        <time>2017-08-06T13:47:23.162Z</time>
      </trkpt>
      <trkpt lat="43.64531" lon="1.27782">
        <ele>186</ele>
        <time>2017-08-06T13:47:23.904Z</time>
      </trkpt>
      <trkpt lat="43.64485" lon="1.27798">
        <ele>187</ele>
        <time>2017-08-06T13:47:24.855Z</time>
      </trkpt>
      <trkpt lat="43.64458" lon="1.27813">
        <ele>187</ele>
        <time>2017-08-06T13:47:25.438Z</time>
      </trkpt>
      <trkpt lat="43.64315" lon="1.27918">
        <ele>184</ele>
        <time>2017-08-06T13:47:28.683Z</time>
      </trkpt>
      <trkpt lat="43.64279" lon="1.27942">
        <ele>184</ele>
        <time>2017-08-06T13:47:29.484Z</time>
      </trkpt>
      <trkpt lat="43.64245" lon="1.27957">
        <ele>184</ele>
        <time>2017-08-06T13:47:30.199Z</time>
      </trkpt>
      <trkpt lat="43.64192" lon="1.27975">
        <ele>184</ele>
        <time>2017-08-06T13:47:31.293Z</time>
      </trkpt>
      <trkpt lat="43.64143" lon="1.27987">
        <ele>184</ele>
        <time>2017-08-06T13:47:32.290Z</time>
      </trkpt>
      <trkpt lat="43.64075" lon="1.27993">
        <ele>185</ele>
        <time>2017-08-06T13:47:33.655Z</time>
      </trkpt>
      <trkpt lat="43.64026" lon="1.27993">
        <ele>185</ele>
        <time>2017-08-06T13:47:34.642Z</time>
      </trkpt>
      <trkpt lat="43.64022" lon="1.27993">
        <ele>185</ele>
        <time>2017-08-06T13:47:34.721Z</time>
      </trkpt>
      <trkpt lat="43.64018" lon="1.27993">
        <ele>185</ele>
        <time>2017-08-06T13:47:34.801Z</time>
      </trkpt>
      <trkpt lat="43.64011" lon="1.27993">
        <ele>185</ele>
        <time>2017-08-06T13:47:34.938Z</time>
      </trkpt>
      <trkpt lat="43.6399" lon="1.27995">
        <ele>185</ele>
        <time>2017-08-06T13:47:35.360Z</time>
      </trkpt>
      <trkpt lat="43.63968" lon="1.28003">
        <ele>185</ele>
        <time>2017-08-06T13:47:35.816Z</time>
      </trkpt>
      <trkpt lat="43.63917" lon="1.28038">
        <ele>185</ele>
        <time>2017-08-06T13:47:36.957Z</time>
      </trkpt>
      <trkpt lat="43.63878" lon="1.28065">
        <ele>185</ele>
        <time>2017-08-06T13:47:37.831Z</time>
      </trkpt>
      <trkpt lat="43.63841" lon="1.28098">
        <ele>184</ele>
        <time>2017-08-06T13:47:38.713Z</time>
      </trkpt>
      <trkpt lat="43.63794" lon="1.28142">
        <ele>185</ele>
        <time>2017-08-06T13:47:39.851Z</time>
      </trkpt>
      <trkpt lat="43.63771" lon="1.28156">
        <ele>185</ele>
        <time>2017-08-06T13:47:40.355Z</time>
      </trkpt>
      <trkpt lat="43.63655" lon="1.28206">
        <ele>186</ele>
        <time>2017-08-06T13:47:42.790Z</time>
      </trkpt>
      <trkpt lat="43.63601" lon="1.28233">
        <ele>185</ele>
        <time>2017-08-06T13:47:43.941Z</time>
      </trkpt>
      <trkpt lat="43.63561" lon="1.28258">
        <ele>185</ele>
        <time>2017-08-06T13:47:44.821Z</time>
      </trkpt>
      <trkpt lat="43.63475" lon="1.28317">
        <ele>187</ele>
        <time>2017-08-06T13:47:46.745Z</time>
      </trkpt>
      <trkpt lat="43.63466" lon="1.28321">
        <ele>187</ele>
        <time>2017-08-06T13:47:46.934Z</time>
      </trkpt>
      <trkpt lat="43.63445" lon="1.28327">
        <ele>187</ele>
        <time>2017-08-06T13:47:47.364Z</time>
      </trkpt>
      <trkpt lat="43.63318" lon="1.28342">
        <ele>188</ele>
        <time>2017-08-06T13:47:49.918Z</time>
      </trkpt>
      <trkpt lat="43.63297" lon="1.28339">
        <ele>188</ele>
        <time>2017-08-06T13:47:50.341Z</time>
      </trkpt>
      <trkpt lat="43.63275" lon="1.28334">
        <ele>188</ele>
        <time>2017-08-06T13:47:50.788Z</time>
      </trkpt>
      <trkpt lat="43.63264" lon="1.28329">
        <ele>188</ele>
        <time>2017-08-06T13:47:51.020Z</time>
      </trkpt>
      <trkpt lat="43.63243" lon="1.28318">
        <ele>187</ele>
        <time>2017-08-06T13:47:51.470Z</time>
      </trkpt>
      <trkpt lat="43.631" lon="1.28242">
        <ele>189</ele>
        <time>2017-08-06T13:47:54.540Z</time>
      </trkpt>
      <trkpt lat="43.63084" lon="1.28235">
        <ele>189</ele>
        <time>2017-08-06T13:47:54.876Z</time>
      </trkpt>
      <trkpt lat="43.63074" lon="1.28233">
        <ele>189</ele>
        <time>2017-08-06T13:47:55.078Z</time>
      </trkpt>
      <trkpt lat="43.63036" lon="1.28231">
        <ele>190</ele>
        <time>2017-08-06T13:47:55.840Z</time>
      </trkpt>
      <trkpt lat="43.63011" lon="1.28225">
        <ele>190</ele>
        <time>2017-08-06T13:47:56.348Z</time>
      </trkpt>
      <trkpt lat="43.6293" lon="1.28178">
        <ele>188</ele>
        <time>2017-08-06T13:47:58.107Z</time>
      </trkpt>
      <trkpt lat="43.62927" lon="1.28176">
        <ele>188</ele>
        <time>2017-08-06T13:47:58.178Z</time>
      </trkpt>
      <trkpt lat="43.62924" lon="1.28174">
        <ele>188</ele>
        <time>2017-08-06T13:47:58.249Z</time>
      </trkpt>
      <trkpt lat="43.62923" lon="1.28174">
        <ele>188</ele>
        <time>2017-08-06T13:47:58.261Z</time>
      </trkpt>
      <trkpt lat="43.62899" lon="1.28165">
        <ele>187</ele>
        <time>2017-08-06T13:47:58.759Z</time>
      </trkpt>
      <trkpt lat="43.62884" lon="1.28163">
        <ele>188</ele>
        <time>2017-08-06T13:47:59.061Z</time>
      </trkpt>
      <trkpt lat="43.62871" lon="1.28163">
        <ele>187</ele>
        <time>2017-08-06T13:47:59.322Z</time>
      </trkpt>
      <trkpt lat="43.6285" lon="1.28163">
        <ele>187</ele>
        <time>2017-08-06T13:47:59.743Z</time>
      </trkpt>
      <trkpt lat="43.62835" lon="1.28161">
        <ele>186</ele>
        <time>2017-08-06T13:48:00.045Z</time>
      </trkpt>
      <trkpt lat="43.62818" lon="1.28155">
        <ele>187</ele>
        <time>2017-08-06T13:48:00.397Z</time>
      </trkpt>
      <trkpt lat="43.62776" lon="1.28135">
        <ele>188</ele>
        <time>2017-08-06T13:48:01.287Z</time>
      </trkpt>
      <trkpt lat="43.62773" lon="1.28134">
        <ele>188</ele>
        <time>2017-08-06T13:48:01.356Z</time>
      </trkpt>
      <trkpt lat="43.6277" lon="1.28132">
        <ele>188</ele>
        <time>2017-08-06T13:48:01.425Z</time>
      </trkpt>
      <trkpt lat="43.62757" lon="1.28126">
        <ele>188</ele>
        <time>2017-08-06T13:48:01.691Z</time>
      </trkpt>
      <trkpt lat="43.62753" lon="1.28121">
        <ele>188</ele>
        <time>2017-08-06T13:48:01.799Z</time>
      </trkpt>
      <trkpt lat="43.62741" lon="1.28113">
        <ele>188</ele>
        <time>2017-08-06T13:48:02.066Z</time>
      </trkpt>
      <trkpt lat="43.6274" lon="1.28107">
        <ele>188</ele>
        <time>2017-08-06T13:48:02.155Z</time>
      </trkpt>
      <trkpt lat="43.62735" lon="1.28096">
        <ele>188</ele>
        <time>2017-08-06T13:48:02.343Z</time>
      </trkpt>
      <trkpt lat="43.62728" lon="1.28093">
        <ele>188</ele>
        <time>2017-08-06T13:48:02.490Z</time>
      </trkpt>
      <trkpt lat="43.6272" lon="1.28095">
        <ele>188</ele>
        <time>2017-08-06T13:48:02.653Z</time>
      </trkpt>
      <trkpt lat="43.62715" lon="1.28101">
        <ele>188</ele>
        <time>2017-08-06T13:48:02.786Z</time>
      </trkpt>
      <trkpt lat="43.62699" lon="1.28099">
        <ele>188</ele>
        <time>2017-08-06T13:48:03.108Z</time>
      </trkpt>
      <trkpt lat="43.62694" lon="1.281">
        <ele>188</ele>
        <time>2017-08-06T13:48:03.209Z</time>
      </trkpt>
      <trkpt lat="43.62687" lon="1.28097">
        <ele>188</ele>
        <time>2017-08-06T13:48:03.356Z</time>
      </trkpt>
      <trkpt lat="43.62676" lon="1.28095">
        <ele>187</ele>
        <time>2017-08-06T13:48:03.578Z</time>
      </trkpt>
      <trkpt lat="43.6267" lon="1.28094">
        <ele>187</ele>
        <time>2017-08-06T13:48:03.699Z</time>
      </trkpt>
      <trkpt lat="43.6264" lon="1.28093">
        <ele>187</ele>
        <time>2017-08-06T13:48:04.300Z</time>
      </trkpt>
      <trkpt lat="43.62605" lon="1.28101">
        <ele>187</ele>
        <time>2017-08-06T13:48:05.011Z</time>
      </trkpt>
      <trkpt lat="43.62587" lon="1.28107">
        <ele>187</ele>
        <time>2017-08-06T13:48:05.383Z</time>
      </trkpt>
      <trkpt lat="43.62584" lon="1.28108">
        <ele>187</ele>
        <time>2017-08-06T13:48:05.450Z</time>
      </trkpt>
      <trkpt lat="43.62581" lon="1.28109">
        <ele>188</ele>
        <time>2017-08-06T13:48:05.517Z</time>
      </trkpt>
      <trkpt lat="43.6256" lon="1.28116">
        <ele>188</ele>
        <time>2017-08-06T13:48:05.939Z</time>
      </trkpt>
      <trkpt lat="43.62475" lon="1.28134">
        <ele>188</ele>
        <time>2017-08-06T13:48:07.662Z</time>
      </trkpt>
      <trkpt lat="43.62441" lon="1.28139">
        <ele>187</ele>
        <time>2017-08-06T13:48:08.347Z</time>
      </trkpt>
      <trkpt lat="43.62428" lon="1.28139">
        <ele>187</ele>
        <time>2017-08-06T13:48:08.608Z</time>
      </trkpt>
      <trkpt lat="43.62428" lon="1.28138">
        <ele>187</ele>
        <time>2017-08-06T13:48:08.622Z</time>
      </trkpt>
      <trkpt lat="43.62429" lon="1.28135">
        <ele>187</ele>
        <time>2017-08-06T13:48:08.670Z</time>
      </trkpt>
      <trkpt lat="43.62428" lon="1.28131">
        <ele>187</ele>
        <time>2017-08-06T13:48:08.731Z</time>
      </trkpt>
      <trkpt lat="43.62423" lon="1.28125">
        <ele>187</ele>
        <time>2017-08-06T13:48:08.864Z</time>
      </trkpt>
      <trkpt lat="43.62422" lon="1.28125">
        <ele>187</ele>
        <time>2017-08-06T13:48:08.884Z</time>
      </trkpt>
      <trkpt lat="43.62424" lon="1.28117">
        <ele>187</ele>
        <time>2017-08-06T13:48:09.007Z</time>
      </trkpt>
      <trkpt lat="43.62429" lon="1.28083">
        <ele>186</ele>
        <time>2017-08-06T13:48:09.510Z</time>
      </trkpt>
      <trkpt lat="43.6243" lon="1.28051">
        <ele>187</ele>
        <time>2017-08-06T13:48:09.975Z</time>
      </trkpt>
      <trkpt lat="43.62425" lon="1.27981">
        <ele>186</ele>
        <time>2017-08-06T13:48:10.995Z</time>
      </trkpt>
      <trkpt lat="43.62424" lon="1.27953">
        <ele>186</ele>
        <time>2017-08-06T13:48:11.402Z</time>
      </trkpt>
      <trkpt lat="43.62426" lon="1.27892">
        <ele>187</ele>
        <time>2017-08-06T13:48:12.288Z</time>
      </trkpt>
      <trkpt lat="43.62432" lon="1.27851">
        <ele>188</ele>
        <time>2017-08-06T13:48:12.895Z</time>
      </trkpt>
      <trkpt lat="43.62444" lon="1.27813">
        <ele>190</ele>
        <time>2017-08-06T13:48:13.496Z</time>
      </trkpt>
      <trkpt lat="43.62474" lon="1.27744">
        <ele>190</ele>
        <time>2017-08-06T13:48:14.664Z</time>
      </trkpt>
      <trkpt lat="43.62484" lon="1.27707">
        <ele>190</ele>
        <time>2017-08-06T13:48:15.237Z</time>
      </trkpt>
      <trkpt lat="43.62486" lon="1.27687">
        <ele>189</ele>
        <time>2017-08-06T13:48:15.530Z</time>
      </trkpt>
      <trkpt lat="43.62478" lon="1.27614">
        <ele>189</ele>
        <time>2017-08-06T13:48:16.601Z</time>
      </trkpt>
      <trkpt lat="43.62464" lon="1.27532">
        <ele>189</ele>
        <time>2017-08-06T13:48:17.823Z</time>
      </trkpt>
      <trkpt lat="43.62443" lon="1.27432">
        <ele>191</ele>
        <time>2017-08-06T13:48:19.333Z</time>
      </trkpt>
      <trkpt lat="43.62442" lon="1.27427">
        <ele>191</ele>
        <time>2017-08-06T13:48:19.414Z</time>
      </trkpt>
      <trkpt lat="43.62441" lon="1.27421">
        <ele>191</ele>
        <time>2017-08-06T13:48:19.504Z</time>
      </trkpt>
      <trkpt lat="43.62439" lon="1.27415">
        <ele>192</ele>
        <time>2017-08-06T13:48:19.595Z</time>
      </trkpt>
      <trkpt lat="43.62407" lon="1.27272">
        <ele>193</ele>
        <time>2017-08-06T13:48:21.763Z</time>
      </trkpt>
      <trkpt lat="43.62389" lon="1.27186">
        <ele>192</ele>
        <time>2017-08-06T13:48:23.062Z</time>
      </trkpt>
      <trkpt lat="43.62384" lon="1.2717">
        <ele>191</ele>
        <time>2017-08-06T13:48:23.315Z</time>
      </trkpt>
      <trkpt lat="43.62371" lon="1.27111">
        <ele>190</ele>
        <time>2017-08-06T13:48:24.210Z</time>
      </trkpt>
      <trkpt lat="43.62357" lon="1.27031">
        <ele>189</ele>
        <time>2017-08-06T13:48:25.404Z</time>
      </trkpt>
      <trkpt lat="43.62341" lon="1.2693">
        <ele>188</ele>
        <time>2017-08-06T13:48:26.904Z</time>
      </trkpt>
      <trkpt lat="43.62299" lon="1.26598">
        <ele>189</ele>
        <time>2017-08-06T13:48:31.793Z</time>
      </trkpt>
      <trkpt lat="43.62295" lon="1.26533">
        <ele>189</ele>
        <time>2017-08-06T13:48:32.739Z</time>
      </trkpt>
      <trkpt lat="43.62309" lon="1.26385">
        <ele>189</ele>
        <time>2017-08-06T13:48:34.904Z</time>
      </trkpt>
      <trkpt lat="43.62322" lon="1.26256">
        <ele>190</ele>
        <time>2017-08-06T13:48:36.793Z</time>
      </trkpt>
      <trkpt lat="43.62333" lon="1.2619">
        <ele>190</ele>
        <time>2017-08-06T13:48:37.775Z</time>
      </trkpt>
      <trkpt lat="43.62345" lon="1.2614">
        <ele>189</ele>
        <time>2017-08-06T13:48:38.539Z</time>
      </trkpt>
      <trkpt lat="43.62394" lon="1.25974">
        <ele>189</ele>
        <time>2017-08-06T13:48:41.140Z</time>
      </trkpt>
      <trkpt lat="43.62456" lon="1.25831">
        <ele>189</ele>
        <time>2017-08-06T13:48:43.558Z</time>
      </trkpt>
      <trkpt lat="43.62476" lon="1.25784">
        <ele>189</ele>
        <time>2017-08-06T13:48:44.349Z</time>
      </trkpt>
      <trkpt lat="43.62492" lon="1.25731">
        <ele>189</ele>
        <time>2017-08-06T13:48:45.176Z</time>
      </trkpt>
      <trkpt lat="43.62492" lon="1.25731">
        <ele>189</ele>
        <time>2017-08-06T13:48:45.182Z</time>
      </trkpt>
      <trkpt lat="43.62494" lon="1.25721">
        <ele>189</ele>
        <time>2017-08-06T13:48:45.327Z</time>
      </trkpt>
      <trkpt lat="43.62508" lon="1.25646">
        <ele>189</ele>
        <time>2017-08-06T13:48:46.456Z</time>
      </trkpt>
      <trkpt lat="43.62519" lon="1.25605">
        <ele>189</ele>
        <time>2017-08-06T13:48:47.090Z</time>
      </trkpt>
      <trkpt lat="43.62531" lon="1.25579">
        <ele>189</ele>
        <time>2017-08-06T13:48:47.537Z</time>
      </trkpt>
      <trkpt lat="43.62638" lon="1.25377">
        <ele>189</ele>
        <time>2017-08-06T13:48:51.168Z</time>
      </trkpt>
      <trkpt lat="43.62669" lon="1.25301">
        <ele>189</ele>
        <time>2017-08-06T13:48:52.433Z</time>
      </trkpt>
      <trkpt lat="43.62694" lon="1.2522">
        <ele>189</ele>
        <time>2017-08-06T13:48:53.710Z</time>
      </trkpt>
      <trkpt lat="43.62731" lon="1.25086">
        <ele>190</ele>
        <time>2017-08-06T13:48:55.790Z</time>
      </trkpt>
      <trkpt lat="43.62755" lon="1.24996">
        <ele>190</ele>
        <time>2017-08-06T13:48:57.181Z</time>
      </trkpt>
      <trkpt lat="43.62776" lon="1.2492">
        <ele>189</ele>
        <time>2017-08-06T13:48:58.361Z</time>
      </trkpt>
      <trkpt lat="43.62787" lon="1.24875">
        <ele>188</ele>
        <time>2017-08-06T13:48:59.050Z</time>
      </trkpt>
      <trkpt lat="43.62808" lon="1.24752">
        <ele>188</ele>
        <time>2017-08-06T13:49:00.883Z</time>
      </trkpt>
      <trkpt lat="43.62837" lon="1.24591">
        <ele>187</ele>
        <time>2017-08-06T13:49:03.290Z</time>
      </trkpt>
      <trkpt lat="43.62876" lon="1.24406">
        <ele>191</ele>
        <time>2017-08-06T13:49:06.085Z</time>
      </trkpt>
      <trkpt lat="43.62932" lon="1.24162">
        <ele>190</ele>
        <time>2017-08-06T13:49:09.798Z</time>
      </trkpt>
      <trkpt lat="43.62971" lon="1.24005">
        <ele>192</ele>
        <time>2017-08-06T13:49:12.206Z</time>
      </trkpt>
      <trkpt lat="43.62995" lon="1.239">
        <ele>194</ele>
        <time>2017-08-06T13:49:13.803Z</time>
      </trkpt>
      <trkpt lat="43.6301" lon="1.23828">
        <ele>195</ele>
        <time>2017-08-06T13:49:14.890Z</time>
      </trkpt>
      <trkpt lat="43.6301" lon="1.23816">
        <ele>195</ele>
        <time>2017-08-06T13:49:15.064Z</time>
      </trkpt>
      <trkpt lat="43.63009" lon="1.23811">
        <ele>195</ele>
        <time>2017-08-06T13:49:15.139Z</time>
      </trkpt>
      <trkpt lat="43.63024" lon="1.23795">
        <ele>195</ele>
        <time>2017-08-06T13:49:15.519Z</time>
      </trkpt>
      <trkpt lat="43.63065" lon="1.23743">
        <ele>195</ele>
        <time>2017-08-06T13:49:16.634Z</time>
      </trkpt>
      <trkpt lat="43.63088" lon="1.23714">
        <ele>196</ele>
        <time>2017-08-06T13:49:17.257Z</time>
      </trkpt>
      <trkpt lat="43.63096" lon="1.23703">
        <ele>196</ele>
        <time>2017-08-06T13:49:17.484Z</time>
      </trkpt>
      <trkpt lat="43.63334" lon="1.234">
        <ele>210</ele>
        <time>2017-08-06T13:49:23.971Z</time>
      </trkpt>
      <trkpt lat="43.6334" lon="1.23393">
        <ele>210</ele>
        <time>2017-08-06T13:49:24.126Z</time>
      </trkpt>
      <trkpt lat="43.63337" lon="1.2339">
        <ele>210</ele>
        <time>2017-08-06T13:49:24.200Z</time>
      </trkpt>
      <trkpt lat="43.63305" lon="1.23361">
        <ele>210</ele>
        <time>2017-08-06T13:49:24.967Z</time>
      </trkpt>
      <trkpt lat="43.63262" lon="1.23404">
        <ele>210</ele>
        <time>2017-08-06T13:49:26.031Z</time>
      </trkpt>
      <trkpt lat="43.63233" lon="1.2343">
        <ele>208</ele>
        <time>2017-08-06T13:49:26.724Z</time>
      </trkpt>
      <trkpt lat="43.63201" lon="1.23451">
        <ele>208</ele>
        <time>2017-08-06T13:49:27.434Z</time>
      </trkpt>
      <trkpt lat="43.63167" lon="1.23469">
        <ele>208</ele>
        <time>2017-08-06T13:49:28.164Z</time>
      </trkpt>
      <trkpt lat="43.63095" lon="1.23505">
        <ele>206</ele>
        <time>2017-08-06T13:49:29.698Z</time>
      </trkpt>
      <trkpt lat="43.63025" lon="1.23534">
        <ele>202</ele>
        <time>2017-08-06T13:49:31.162Z</time>
      </trkpt>
      <trkpt lat="43.63004" lon="1.23542">
        <ele>202</ele>
        <time>2017-08-06T13:49:31.599Z</time>
      </trkpt>
      <trkpt lat="43.62984" lon="1.23547">
        <ele>199</ele>
        <time>2017-08-06T13:49:32.006Z</time>
      </trkpt>
      <trkpt lat="43.62936" lon="1.23547">
        <ele>198</ele>
        <time>2017-08-06T13:49:32.968Z</time>
      </trkpt>
      <trkpt lat="43.62885" lon="1.2355">
        <ele>197</ele>
        <time>2017-08-06T13:49:33.991Z</time>
      </trkpt>
      <trkpt lat="43.62874" lon="1.2355">
        <ele>197</ele>
        <time>2017-08-06T13:49:34.211Z</time>
      </trkpt>
      <trkpt lat="43.62844" lon="1.2354">
        <ele>198</ele>
        <time>2017-08-06T13:49:34.829Z</time>
      </trkpt>
      <trkpt lat="43.62791" lon="1.23521">
        <ele>196</ele>
        <time>2017-08-06T13:49:35.926Z</time>
      </trkpt>
      <trkpt lat="43.62766" lon="1.23516">
        <ele>195</ele>
        <time>2017-08-06T13:49:36.432Z</time>
      </trkpt>
      <trkpt lat="43.62669" lon="1.23524">
        <ele>193</ele>
        <time>2017-08-06T13:49:38.379Z</time>
      </trkpt>
      <trkpt lat="43.62633" lon="1.2353">
        <ele>193</ele>
        <time>2017-08-06T13:49:39.106Z</time>
      </trkpt>
      <trkpt lat="43.62589" lon="1.23547">
        <ele>193</ele>
        <time>2017-08-06T13:49:40.022Z</time>
      </trkpt>
      <trkpt lat="43.62585" lon="1.23549">
        <ele>193</ele>
        <time>2017-08-06T13:49:40.106Z</time>
      </trkpt>
      <trkpt lat="43.62575" lon="1.23556">
        <ele>193</ele>
        <time>2017-08-06T13:49:40.332Z</time>
      </trkpt>
      <trkpt lat="43.62564" lon="1.23561">
        <ele>192</ele>
        <time>2017-08-06T13:49:40.564Z</time>
      </trkpt>
      <trkpt lat="43.62524" lon="1.2358">
        <ele>191</ele>
        <time>2017-08-06T13:49:41.412Z</time>
      </trkpt>
      <trkpt lat="43.62486" lon="1.23609">
        <ele>191</ele>
        <time>2017-08-06T13:49:42.282Z</time>
      </trkpt>
      <trkpt lat="43.62462" lon="1.23631">
        <ele>192</ele>
        <time>2017-08-06T13:49:42.859Z</time>
      </trkpt>
      <trkpt lat="43.62307" lon="1.2378">
        <ele>191</ele>
        <time>2017-08-06T13:49:46.643Z</time>
      </trkpt>
      <trkpt lat="43.62234" lon="1.23848">
        <ele>190</ele>
        <time>2017-08-06T13:49:48.407Z</time>
      </trkpt>
      <trkpt lat="43.62121" lon="1.23944">
        <ele>190</ele>
        <time>2017-08-06T13:49:51.065Z</time>
      </trkpt>
      <trkpt lat="43.62044" lon="1.24006">
        <ele>191</ele>
        <time>2017-08-06T13:49:52.851Z</time>
      </trkpt>
      <trkpt lat="43.62023" lon="1.24018">
        <ele>192</ele>
        <time>2017-08-06T13:49:53.298Z</time>
      </trkpt>
      <trkpt lat="43.62013" lon="1.24024">
        <ele>192</ele>
        <time>2017-08-06T13:49:53.531Z</time>
      </trkpt>
      <trkpt lat="43.62002" lon="1.2403">
        <ele>192</ele>
        <time>2017-08-06T13:49:53.765Z</time>
      </trkpt>
      <trkpt lat="43.61991" lon="1.24036">
        <ele>192</ele>
        <time>2017-08-06T13:49:53.999Z</time>
      </trkpt>
      <trkpt lat="43.61962" lon="1.2405">
        <ele>192</ele>
        <time>2017-08-06T13:49:54.615Z</time>
      </trkpt>
      <trkpt lat="43.61949" lon="1.24059">
        <ele>192</ele>
        <time>2017-08-06T13:49:54.906Z</time>
      </trkpt>
      <trkpt lat="43.6194" lon="1.24103">
        <ele>193</ele>
        <time>2017-08-06T13:49:55.569Z</time>
      </trkpt>
      <trkpt lat="43.61933" lon="1.24097">
        <ele>193</ele>
        <time>2017-08-06T13:49:55.734Z</time>
      </trkpt>
      <trkpt lat="43.61917" lon="1.24094">
        <ele>193</ele>
        <time>2017-08-06T13:49:56.058Z</time>
      </trkpt>
      <trkpt lat="43.61855" lon="1.24088">
        <ele>191</ele>
        <time>2017-08-06T13:49:57.303Z</time>
      </trkpt>
      <trkpt lat="43.61827" lon="1.24084">
        <ele>189</ele>
        <time>2017-08-06T13:49:57.867Z</time>
      </trkpt>
      <trkpt lat="43.61712" lon="1.24073">
        <ele>192</ele>
        <time>2017-08-06T13:50:00.177Z</time>
      </trkpt>
      <trkpt lat="43.61692" lon="1.24082">
        <ele>192</ele>
        <time>2017-08-06T13:50:00.599Z</time>
      </trkpt>
      <trkpt lat="43.61683" lon="1.24085">
        <ele>192</ele>
        <time>2017-08-06T13:50:00.785Z</time>
      </trkpt>
      <trkpt lat="43.61659" lon="1.24085">
        <ele>192</ele>
        <time>2017-08-06T13:50:01.266Z</time>
      </trkpt>
      <trkpt lat="43.61636" lon="1.24082">
        <ele>193</ele>
        <time>2017-08-06T13:50:01.729Z</time>
      </trkpt>
      <trkpt lat="43.61628" lon="1.24073">
        <ele>193</ele>
        <time>2017-08-06T13:50:01.936Z</time>
      </trkpt>
      <trkpt lat="43.61625" lon="1.24053">
        <ele>193</ele>
        <time>2017-08-06T13:50:02.232Z</time>
      </trkpt>
      <trkpt lat="43.61627" lon="1.24025">
        <ele>193</ele>
        <time>2017-08-06T13:50:02.640Z</time>
      </trkpt>
      <trkpt lat="43.61636" lon="1.23977">
        <ele>193</ele>
        <time>2017-08-06T13:50:03.359Z</time>
      </trkpt>
      <trkpt lat="43.6165" lon="1.23904">
        <ele>194</ele>
        <time>2017-08-06T13:50:04.455Z</time>
      </trkpt>
      <trkpt lat="43.61652" lon="1.23869">
        <ele>194</ele>
        <time>2017-08-06T13:50:04.964Z</time>
      </trkpt>
      <trkpt lat="43.61646" lon="1.23854">
        <ele>194</ele>
        <time>2017-08-06T13:50:05.213Z</time>
      </trkpt>
      <trkpt lat="43.61639" lon="1.23848">
        <ele>194</ele>
        <time>2017-08-06T13:50:05.378Z</time>
      </trkpt>
      <trkpt lat="43.6155" lon="1.23812">
        <ele>194</ele>
        <time>2017-08-06T13:50:07.236Z</time>
      </trkpt>
      <trkpt lat="43.61511" lon="1.23796">
        <ele>194</ele>
        <time>2017-08-06T13:50:08.051Z</time>
      </trkpt>
      <trkpt lat="43.61493" lon="1.23786">
        <ele>194</ele>
        <time>2017-08-06T13:50:08.450Z</time>
      </trkpt>
      <trkpt lat="43.61484" lon="1.23781">
        <ele>194</ele>
        <time>2017-08-06T13:50:08.634Z</time>
      </trkpt>
      <trkpt lat="43.61482" lon="1.2378">
        <ele>194</ele>
        <time>2017-08-06T13:50:08.686Z</time>
      </trkpt>
      <trkpt lat="43.61471" lon="1.23773">
        <ele>194</ele>
        <time>2017-08-06T13:50:08.923Z</time>
      </trkpt>
      <trkpt lat="43.61461" lon="1.23766">
        <ele>194</ele>
        <time>2017-08-06T13:50:09.143Z</time>
      </trkpt>
      <trkpt lat="43.61433" lon="1.23745">
        <ele>193</ele>
        <time>2017-08-06T13:50:09.781Z</time>
      </trkpt>
      <trkpt lat="43.61416" lon="1.2373">
        <ele>193</ele>
        <time>2017-08-06T13:50:10.185Z</time>
      </trkpt>
      <trkpt lat="43.61401" lon="1.23719">
        <ele>193</ele>
        <time>2017-08-06T13:50:10.525Z</time>
      </trkpt>
      <trkpt lat="43.6139" lon="1.23715">
        <ele>193</ele>
        <time>2017-08-06T13:50:10.753Z</time>
      </trkpt>
      <trkpt lat="43.61367" lon="1.23711">
        <ele>193</ele>
        <time>2017-08-06T13:50:11.218Z</time>
      </trkpt>
      <trkpt lat="43.6125" lon="1.2371">
        <ele>195</ele>
        <time>2017-08-06T13:50:13.563Z</time>
      </trkpt>
      <trkpt lat="43.61216" lon="1.23711">
        <ele>195</ele>
        <time>2017-08-06T13:50:14.244Z</time>
      </trkpt>
      <trkpt lat="43.61175" lon="1.23711">
        <ele>194</ele>
        <time>2017-08-06T13:50:15.066Z</time>
      </trkpt>
      <trkpt lat="43.61149" lon="1.23708">
        <ele>194</ele>
        <time>2017-08-06T13:50:15.589Z</time>
      </trkpt>
      <trkpt lat="43.61115" lon="1.23703">
        <ele>194</ele>
        <time>2017-08-06T13:50:16.274Z</time>
      </trkpt>
      <trkpt lat="43.61107" lon="1.23702">
        <ele>194</ele>
        <time>2017-08-06T13:50:16.435Z</time>
      </trkpt>
      <trkpt lat="43.61107" lon="1.23698">
        <ele>194</ele>
        <time>2017-08-06T13:50:16.493Z</time>
      </trkpt>
      <trkpt lat="43.61107" lon="1.23691">
        <ele>194</ele>
        <time>2017-08-06T13:50:16.595Z</time>
      </trkpt>
      <trkpt lat="43.61104" lon="1.23685">
        <ele>194</ele>
        <time>2017-08-06T13:50:16.701Z</time>
      </trkpt>
      <trkpt lat="43.61098" lon="1.23682">
        <ele>194</ele>
        <time>2017-08-06T13:50:16.829Z</time>
      </trkpt>
      <trkpt lat="43.61093" lon="1.23683">
        <ele>194</ele>
        <time>2017-08-06T13:50:16.930Z</time>
      </trkpt>
      <trkpt lat="43.61089" lon="1.23688">
        <ele>194</ele>
        <time>2017-08-06T13:50:17.038Z</time>
      </trkpt>
      <trkpt lat="43.61039" lon="1.23627">
        <ele>194</ele>
        <time>2017-08-06T13:50:18.375Z</time>
      </trkpt>
      <trkpt lat="43.60963" lon="1.23537">
        <ele>195</ele>
        <time>2017-08-06T13:50:20.381Z</time>
      </trkpt>
      <trkpt lat="43.60935" lon="1.23508">
        <ele>194</ele>
        <time>2017-08-06T13:50:21.082Z</time>
      </trkpt>
      <trkpt lat="43.60873" lon="1.23466">
        <ele>193</ele>
        <time>2017-08-06T13:50:22.466Z</time>
      </trkpt>
      <trkpt lat="43.60857" lon="1.2346">
        <ele>193</ele>
        <time>2017-08-06T13:50:22.794Z</time>
      </trkpt>
      <trkpt lat="43.60846" lon="1.23455">
        <ele>193</ele>
        <time>2017-08-06T13:50:23.029Z</time>
      </trkpt>
      <trkpt lat="43.60835" lon="1.23451">
        <ele>192</ele>
        <time>2017-08-06T13:50:23.265Z</time>
      </trkpt>
      <trkpt lat="43.60807" lon="1.2344">
        <ele>193</ele>
        <time>2017-08-06T13:50:23.841Z</time>
      </trkpt>
      <trkpt lat="43.60761" lon="1.2343">
        <ele>194</ele>
        <time>2017-08-06T13:50:24.774Z</time>
      </trkpt>
      <trkpt lat="43.60755" lon="1.23427">
        <ele>194</ele>
        <time>2017-08-06T13:50:24.910Z</time>
      </trkpt>
      <trkpt lat="43.60743" lon="1.23423">
        <ele>194</ele>
        <time>2017-08-06T13:50:25.144Z</time>
      </trkpt>
      <trkpt lat="43.60733" lon="1.23419">
        <ele>195</ele>
        <time>2017-08-06T13:50:25.358Z</time>
      </trkpt>
      <trkpt lat="43.6073" lon="1.23413">
        <ele>194</ele>
        <time>2017-08-06T13:50:25.464Z</time>
      </trkpt>
      <trkpt lat="43.60723" lon="1.23409">
        <ele>194</ele>
        <time>2017-08-06T13:50:25.616Z</time>
      </trkpt>
      <trkpt lat="43.60719" lon="1.23409">
        <ele>194</ele>
        <time>2017-08-06T13:50:25.696Z</time>
      </trkpt>
      <trkpt lat="43.60714" lon="1.23413">
        <ele>194</ele>
        <time>2017-08-06T13:50:25.812Z</time>
      </trkpt>
      <trkpt lat="43.6071" lon="1.2342">
        <ele>195</ele>
        <time>2017-08-06T13:50:25.941Z</time>
      </trkpt>
      <trkpt lat="43.60704" lon="1.23422">
        <ele>195</ele>
        <time>2017-08-06T13:50:26.072Z</time>
      </trkpt>
      <trkpt lat="43.60693" lon="1.23425">
        <ele>195</ele>
        <time>2017-08-06T13:50:26.289Z</time>
      </trkpt>
      <trkpt lat="43.60687" lon="1.23428">
        <ele>195</ele>
        <time>2017-08-06T13:50:26.417Z</time>
      </trkpt>
      <trkpt lat="43.60659" lon="1.23429">
        <ele>196</ele>
        <time>2017-08-06T13:50:26.978Z</time>
      </trkpt>
      <trkpt lat="43.60624" lon="1.23426">
        <ele>197</ele>
        <time>2017-08-06T13:50:27.681Z</time>
      </trkpt>
      <trkpt lat="43.60585" lon="1.23416">
        <ele>199</ele>
        <time>2017-08-06T13:50:28.476Z</time>
      </trkpt>
      <trkpt lat="43.60519" lon="1.2339">
        <ele>197</ele>
        <time>2017-08-06T13:50:29.851Z</time>
      </trkpt>
      <trkpt lat="43.60437" lon="1.23359">
        <ele>197</ele>
        <time>2017-08-06T13:50:31.555Z</time>
      </trkpt>
      <trkpt lat="43.60412" lon="1.23347">
        <ele>197</ele>
        <time>2017-08-06T13:50:32.085Z</time>
      </trkpt>
      <trkpt lat="43.60396" lon="1.23339">
        <ele>197</ele>
        <time>2017-08-06T13:50:32.426Z</time>
      </trkpt>
      <trkpt lat="43.60359" lon="1.23327">
        <ele>197</ele>
        <time>2017-08-06T13:50:33.188Z</time>
      </trkpt>
      <trkpt lat="43.60309" lon="1.23318">
        <ele>196</ele>
        <time>2017-08-06T13:50:34.198Z</time>
      </trkpt>
      <trkpt lat="43.60296" lon="1.23317">
        <ele>195</ele>
        <time>2017-08-06T13:50:34.459Z</time>
      </trkpt>
      <trkpt lat="43.60271" lon="1.23321">
        <ele>194</ele>
        <time>2017-08-06T13:50:34.963Z</time>
      </trkpt>
      <trkpt lat="43.60197" lon="1.23327">
        <ele>188</ele>
        <time>2017-08-06T13:50:36.448Z</time>
      </trkpt>
      <trkpt lat="43.60146" lon="1.23329">
        <ele>185</ele>
        <time>2017-08-06T13:50:37.470Z</time>
      </trkpt>
      <trkpt lat="43.60114" lon="1.23334">
        <ele>186</ele>
        <time>2017-08-06T13:50:38.115Z</time>
      </trkpt>
      <trkpt lat="43.60079" lon="1.23342">
        <ele>188</ele>
        <time>2017-08-06T13:50:38.836Z</time>
      </trkpt>
      <trkpt lat="43.60072" lon="1.23344">
        <ele>189</ele>
        <time>2017-08-06T13:50:38.969Z</time>
      </trkpt>
      <trkpt lat="43.60066" lon="1.23345">
        <ele>190</ele>
        <time>2017-08-06T13:50:39.090Z</time>
      </trkpt>
      <trkpt lat="43.60064" lon="1.2334">
        <ele>190</ele>
        <time>2017-08-06T13:50:39.173Z</time>
      </trkpt>
      <trkpt lat="43.60061" lon="1.23316">
        <ele>189</ele>
        <time>2017-08-06T13:50:39.526Z</time>
      </trkpt>
      <trkpt lat="43.60055" lon="1.23273">
        <ele>190</ele>
        <time>2017-08-06T13:50:40.161Z</time>
      </trkpt>
      <trkpt lat="43.60045" lon="1.23239">
        <ele>190</ele>
        <time>2017-08-06T13:50:40.694Z</time>
      </trkpt>
      <trkpt lat="43.60044" lon="1.23216">
        <ele>190</ele>
        <time>2017-08-06T13:50:41.028Z</time>
      </trkpt>
      <trkpt lat="43.60045" lon="1.23212">
        <ele>190</ele>
        <time>2017-08-06T13:50:41.089Z</time>
      </trkpt>
      <trkpt lat="43.60045" lon="1.23206">
        <ele>190</ele>
        <time>2017-08-06T13:50:41.176Z</time>
      </trkpt>
      <trkpt lat="43.60054" lon="1.23182">
        <ele>190</ele>
        <time>2017-08-06T13:50:41.568Z</time>
      </trkpt>
      <trkpt lat="43.60092" lon="1.23123">
        <ele>188</ele>
        <time>2017-08-06T13:50:42.714Z</time>
      </trkpt>
      <trkpt lat="43.60101" lon="1.23105">
        <ele>188</ele>
        <time>2017-08-06T13:50:43.031Z</time>
      </trkpt>
      <trkpt lat="43.60118" lon="1.23063">
        <ele>190</ele>
        <time>2017-08-06T13:50:43.729Z</time>
      </trkpt>
      <trkpt lat="43.60161" lon="1.2295">
        <ele>193</ele>
        <time>2017-08-06T13:50:45.581Z</time>
      </trkpt>
      <trkpt lat="43.60228" lon="1.22779">
        <ele>196</ele>
        <time>2017-08-06T13:50:48.402Z</time>
      </trkpt>
      <trkpt lat="43.60253" lon="1.22711">
        <ele>196</ele>
        <time>2017-08-06T13:50:49.509Z</time>
      </trkpt>
      <trkpt lat="43.60277" lon="1.22656">
        <ele>196</ele>
        <time>2017-08-06T13:50:50.441Z</time>
      </trkpt>
      <trkpt lat="43.60278" lon="1.22654">
        <ele>196</ele>
        <time>2017-08-06T13:50:50.478Z</time>
      </trkpt>
      <trkpt lat="43.60289" lon="1.22638">
        <ele>196</ele>
        <time>2017-08-06T13:50:50.796Z</time>
      </trkpt>
      <trkpt lat="43.60291" lon="1.22638">
        <ele>196</ele>
        <time>2017-08-06T13:50:50.836Z</time>
      </trkpt>
      <trkpt lat="43.60297" lon="1.22633">
        <ele>195</ele>
        <time>2017-08-06T13:50:50.976Z</time>
      </trkpt>
      <trkpt lat="43.603" lon="1.22622">
        <ele>195</ele>
        <time>2017-08-06T13:50:51.147Z</time>
      </trkpt>
      <trkpt lat="43.60299" lon="1.22617">
        <ele>195</ele>
        <time>2017-08-06T13:50:51.222Z</time>
      </trkpt>
      <trkpt lat="43.603" lon="1.22601">
        <ele>195</ele>
        <time>2017-08-06T13:50:51.455Z</time>
      </trkpt>
      <trkpt lat="43.60317" lon="1.22548">
        <ele>195</ele>
        <time>2017-08-06T13:50:52.296Z</time>
      </trkpt>
      <trkpt lat="43.60347" lon="1.22471">
        <ele>195</ele>
        <time>2017-08-06T13:50:53.565Z</time>
      </trkpt>
      <trkpt lat="43.60363" lon="1.22441">
        <ele>195</ele>
        <time>2017-08-06T13:50:54.106Z</time>
      </trkpt>
      <trkpt lat="43.6039" lon="1.22403">
        <ele>195</ele>
        <time>2017-08-06T13:50:54.879Z</time>
      </trkpt>
      <trkpt lat="43.60419" lon="1.22365">
        <ele>195</ele>
        <time>2017-08-06T13:50:55.680Z</time>
      </trkpt>
      <trkpt lat="43.60433" lon="1.22344">
        <ele>196</ele>
        <time>2017-08-06T13:50:56.094Z</time>
      </trkpt>
      <trkpt lat="43.60441" lon="1.22335">
        <ele>196</ele>
        <time>2017-08-06T13:50:56.301Z</time>
      </trkpt>
      <trkpt lat="43.6046" lon="1.22296">
        <ele>197</ele>
        <time>2017-08-06T13:50:56.983Z</time>
      </trkpt>
      <trkpt lat="43.60519" lon="1.22182">
        <ele>196</ele>
        <time>2017-08-06T13:50:59.016Z</time>
      </trkpt>
      <trkpt lat="43.60525" lon="1.22167">
        <ele>196</ele>
        <time>2017-08-06T13:50:59.260Z</time>
      </trkpt>
      <trkpt lat="43.60534" lon="1.22145">
        <ele>197</ele>
        <time>2017-08-06T13:50:59.631Z</time>
      </trkpt>
      <trkpt lat="43.60544" lon="1.22121">
        <ele>197</ele>
        <time>2017-08-06T13:51:00.033Z</time>
      </trkpt>
      <trkpt lat="43.6056" lon="1.22072">
        <ele>197</ele>
        <time>2017-08-06T13:51:00.813Z</time>
      </trkpt>
      <trkpt lat="43.60571" lon="1.22039">
        <ele>197</ele>
        <time>2017-08-06T13:51:01.340Z</time>
      </trkpt>
      <trkpt lat="43.60609" lon="1.2194">
        <ele>197</ele>
        <time>2017-08-06T13:51:02.966Z</time>
      </trkpt>
      <trkpt lat="43.60615" lon="1.21926">
        <ele>197</ele>
        <time>2017-08-06T13:51:03.202Z</time>
      </trkpt>
      <trkpt lat="43.60717" lon="1.21674">
        <ele>197</ele>
        <time>2017-08-06T13:51:07.391Z</time>
      </trkpt>
      <trkpt lat="43.60885" lon="1.21227">
        <ele>199</ele>
        <time>2017-08-06T13:51:14.699Z</time>
      </trkpt>
      <trkpt lat="43.60946" lon="1.21063">
        <ele>201</ele>
        <time>2017-08-06T13:51:17.374Z</time>
      </trkpt>
      <trkpt lat="43.60963" lon="1.21024">
        <ele>202</ele>
        <time>2017-08-06T13:51:18.035Z</time>
      </trkpt>
      <trkpt lat="43.60981" lon="1.20992">
        <ele>203</ele>
        <time>2017-08-06T13:51:18.623Z</time>
      </trkpt>
      <trkpt lat="43.61027" lon="1.20931">
        <ele>203</ele>
        <time>2017-08-06T13:51:19.901Z</time>
      </trkpt>
      <trkpt lat="43.61174" lon="1.20761">
        <ele>205</ele>
        <time>2017-08-06T13:51:23.743Z</time>
      </trkpt>
      <trkpt lat="43.61298" lon="1.20616">
        <ele>212</ele>
        <time>2017-08-06T13:51:26.999Z</time>
      </trkpt>
      <trkpt lat="43.61304" lon="1.20609">
        <ele>212</ele>
        <time>2017-08-06T13:51:27.156Z</time>
      </trkpt>
      <trkpt lat="43.61312" lon="1.20599">
        <ele>213</ele>
        <time>2017-08-06T13:51:27.372Z</time>
      </trkpt>
      <trkpt lat="43.61347" lon="1.20545">
        <ele>220</ele>
        <time>2017-08-06T13:51:28.424Z</time>
      </trkpt>
      <trkpt lat="43.61371" lon="1.20494">
        <ele>222</ele>
        <time>2017-08-06T13:51:29.307Z</time>
      </trkpt>
      <trkpt lat="43.61399" lon="1.20407">
        <ele>223</ele>
        <time>2017-08-06T13:51:30.688Z</time>
      </trkpt>
      <trkpt lat="43.61436" lon="1.2026">
        <ele>223</ele>
        <time>2017-08-06T13:51:32.946Z</time>
      </trkpt>
      <trkpt lat="43.61463" lon="1.20169">
        <ele>224</ele>
        <time>2017-08-06T13:51:34.373Z</time>
      </trkpt>
      <trkpt lat="43.6153" lon="1.19984">
        <ele>229</ele>
        <time>2017-08-06T13:51:37.374Z</time>
      </trkpt>
      <trkpt lat="43.61599" lon="1.19785">
        <ele>233</ele>
        <time>2017-08-06T13:51:40.575Z</time>
      </trkpt>
      <trkpt lat="43.61658" lon="1.19562">
        <ele>233</ele>
        <time>2017-08-06T13:51:44.020Z</time>
      </trkpt>
      <trkpt lat="43.61684" lon="1.19498">
        <ele>234</ele>
        <time>2017-08-06T13:51:45.085Z</time>
      </trkpt>
      <trkpt lat="43.61709" lon="1.1945">
        <ele>234</ele>
        <time>2017-08-06T13:51:45.937Z</time>
      </trkpt>
      <trkpt lat="43.61722" lon="1.19425">
        <ele>235</ele>
        <time>2017-08-06T13:51:46.393Z</time>
      </trkpt>
      <trkpt lat="43.61739" lon="1.19393">
        <ele>235</ele>
        <time>2017-08-06T13:51:46.965Z</time>
      </trkpt>
      <trkpt lat="43.61762" lon="1.19358">
        <ele>236</ele>
        <time>2017-08-06T13:51:47.648Z</time>
      </trkpt>
      <trkpt lat="43.61814" lon="1.19279">
        <ele>236</ele>
        <time>2017-08-06T13:51:49.200Z</time>
      </trkpt>
      <trkpt lat="43.61841" lon="1.19238">
        <ele>239</ele>
        <time>2017-08-06T13:51:49.999Z</time>
      </trkpt>
      <trkpt lat="43.61845" lon="1.19232">
        <ele>239</ele>
        <time>2017-08-06T13:51:50.122Z</time>
      </trkpt>
      <trkpt lat="43.61857" lon="1.19215">
        <ele>240</ele>
        <time>2017-08-06T13:51:50.460Z</time>
      </trkpt>
      <trkpt lat="43.61862" lon="1.19207">
        <ele>241</ele>
        <time>2017-08-06T13:51:50.622Z</time>
      </trkpt>
      <trkpt lat="43.61877" lon="1.19185">
        <ele>241</ele>
        <time>2017-08-06T13:51:51.057Z</time>
      </trkpt>
      <trkpt lat="43.61878" lon="1.19184">
        <ele>241</ele>
        <time>2017-08-06T13:51:51.084Z</time>
      </trkpt>
      <trkpt lat="43.61896" lon="1.19151">
        <ele>241</ele>
        <time>2017-08-06T13:51:51.680Z</time>
      </trkpt>
      <trkpt lat="43.61897" lon="1.19149">
        <ele>241</ele>
        <time>2017-08-06T13:51:51.720Z</time>
      </trkpt>
      <trkpt lat="43.61911" lon="1.1911">
        <ele>241</ele>
        <time>2017-08-06T13:51:52.346Z</time>
      </trkpt>
      <trkpt lat="43.61936" lon="1.19045">
        <ele>242</ele>
        <time>2017-08-06T13:51:53.414Z</time>
      </trkpt>
      <trkpt lat="43.61958" lon="1.19014">
        <ele>242</ele>
        <time>2017-08-06T13:51:54.044Z</time>
      </trkpt>
      <trkpt lat="43.61966" lon="1.19006">
        <ele>243</ele>
        <time>2017-08-06T13:51:54.242Z</time>
      </trkpt>
      <trkpt lat="43.61986" lon="1.18991">
        <ele>243</ele>
        <time>2017-08-06T13:51:54.698Z</time>
      </trkpt>
      <trkpt lat="43.61983" lon="1.1898">
        <ele>243</ele>
        <time>2017-08-06T13:51:54.869Z</time>
      </trkpt>
      <trkpt lat="43.6198" lon="1.18971">
        <ele>242</ele>
        <time>2017-08-06T13:51:55.013Z</time>
      </trkpt>
      <trkpt lat="43.61979" lon="1.18955">
        <ele>242</ele>
        <time>2017-08-06T13:51:55.246Z</time>
      </trkpt>
      <trkpt lat="43.6198" lon="1.18928">
        <ele>242</ele>
        <time>2017-08-06T13:51:55.638Z</time>
      </trkpt>
      <trkpt lat="43.61987" lon="1.18906">
        <ele>243</ele>
        <time>2017-08-06T13:51:55.987Z</time>
      </trkpt>
      <trkpt lat="43.62019" lon="1.18795">
        <ele>246</ele>
        <time>2017-08-06T13:51:57.720Z</time>
      </trkpt>
      <trkpt lat="43.62026" lon="1.18774">
        <ele>246</ele>
        <time>2017-08-06T13:51:58.055Z</time>
      </trkpt>
      <trkpt lat="43.6203" lon="1.18743">
        <ele>246</ele>
        <time>2017-08-06T13:51:58.512Z</time>
      </trkpt>
      <trkpt lat="43.62046" lon="1.18536">
        <ele>251</ele>
        <time>2017-08-06T13:52:01.532Z</time>
      </trkpt>
      <trkpt lat="43.62044" lon="1.18302">
        <ele>257</ele>
        <time>2017-08-06T13:52:04.927Z</time>
      </trkpt>
      <trkpt lat="43.62034" lon="1.18209">
        <ele>261</ele>
        <time>2017-08-06T13:52:06.291Z</time>
      </trkpt>
      <trkpt lat="43.62031" lon="1.1816">
        <ele>264</ele>
        <time>2017-08-06T13:52:07.004Z</time>
      </trkpt>
      <trkpt lat="43.62032" lon="1.17888">
        <ele>266</ele>
        <time>2017-08-06T13:52:10.950Z</time>
      </trkpt>
      <trkpt lat="43.62034" lon="1.17838">
        <ele>265</ele>
        <time>2017-08-06T13:52:11.676Z</time>
      </trkpt>
      <trkpt lat="43.62069" lon="1.17581">
        <ele>263</ele>
        <time>2017-08-06T13:52:15.470Z</time>
      </trkpt>
      <trkpt lat="43.62073" lon="1.17553">
        <ele>262</ele>
        <time>2017-08-06T13:52:15.884Z</time>
      </trkpt>
      <trkpt lat="43.62088" lon="1.1748">
        <ele>260</ele>
        <time>2017-08-06T13:52:16.985Z</time>
      </trkpt>
      <trkpt lat="43.62117" lon="1.17357">
        <ele>255</ele>
        <time>2017-08-06T13:52:18.862Z</time>
      </trkpt>
      <trkpt lat="43.62127" lon="1.17327">
        <ele>249</ele>
        <time>2017-08-06T13:52:19.341Z</time>
      </trkpt>
      <trkpt lat="43.62225" lon="1.17101">
        <ele>236</ele>
        <time>2017-08-06T13:52:23.163Z</time>
      </trkpt>
      <trkpt lat="43.62245" lon="1.17052">
        <ele>234</ele>
        <time>2017-08-06T13:52:23.979Z</time>
      </trkpt>
      <trkpt lat="43.62256" lon="1.1702">
        <ele>227</ele>
        <time>2017-08-06T13:52:24.493Z</time>
      </trkpt>
      <trkpt lat="43.62266" lon="1.16967">
        <ele>223</ele>
        <time>2017-08-06T13:52:25.288Z</time>
      </trkpt>
      <trkpt lat="43.62278" lon="1.16869">
        <ele>218</ele>
        <time>2017-08-06T13:52:26.730Z</time>
      </trkpt>
      <trkpt lat="43.62283" lon="1.1684">
        <ele>218</ele>
        <time>2017-08-06T13:52:27.162Z</time>
      </trkpt>
      <trkpt lat="43.623" lon="1.16788">
        <ele>214</ele>
        <time>2017-08-06T13:52:27.990Z</time>
      </trkpt>
      <trkpt lat="43.62354" lon="1.16664">
        <ele>205</ele>
        <time>2017-08-06T13:52:30.089Z</time>
      </trkpt>
      <trkpt lat="43.62388" lon="1.16589">
        <ele>203</ele>
        <time>2017-08-06T13:52:31.373Z</time>
      </trkpt>
      <trkpt lat="43.62405" lon="1.16552">
        <ele>204</ele>
        <time>2017-08-06T13:52:32.009Z</time>
      </trkpt>
      <trkpt lat="43.62436" lon="1.165">
        <ele>200</ele>
        <time>2017-08-06T13:52:32.986Z</time>
      </trkpt>
      <trkpt lat="43.62594" lon="1.16227">
        <ele>194</ele>
        <time>2017-08-06T13:52:38.056Z</time>
      </trkpt>
      <trkpt lat="43.62657" lon="1.16118">
        <ele>194</ele>
        <time>2017-08-06T13:52:40.079Z</time>
      </trkpt>
      <trkpt lat="43.6271" lon="1.15999">
        <ele>193</ele>
        <time>2017-08-06T13:52:42.099Z</time>
      </trkpt>
      <trkpt lat="43.62714" lon="1.1599">
        <ele>193</ele>
        <time>2017-08-06T13:52:42.259Z</time>
      </trkpt>
      <trkpt lat="43.62724" lon="1.15966">
        <ele>193</ele>
        <time>2017-08-06T13:52:42.668Z</time>
      </trkpt>
      <trkpt lat="43.62757" lon="1.15887">
        <ele>190</ele>
        <time>2017-08-06T13:52:43.984Z</time>
      </trkpt>
      <trkpt lat="43.62758" lon="1.15884">
        <ele>190</ele>
        <time>2017-08-06T13:52:44.038Z</time>
      </trkpt>
      <trkpt lat="43.6279" lon="1.15793">
        <ele>187</ele>
        <time>2017-08-06T13:52:45.501Z</time>
      </trkpt>
      <trkpt lat="43.62802" lon="1.15757">
        <ele>187</ele>
        <time>2017-08-06T13:52:46.076Z</time>
      </trkpt>
      <trkpt lat="43.62815" lon="1.1572">
        <ele>185</ele>
        <time>2017-08-06T13:52:46.670Z</time>
      </trkpt>
      <trkpt lat="43.62829" lon="1.1568">
        <ele>184</ele>
        <time>2017-08-06T13:52:47.314Z</time>
      </trkpt>
      <trkpt lat="43.6283" lon="1.15671">
        <ele>184</ele>
        <time>2017-08-06T13:52:47.450Z</time>
      </trkpt>
      <trkpt lat="43.6283" lon="1.15669">
        <ele>184</ele>
        <time>2017-08-06T13:52:47.475Z</time>
      </trkpt>
      <trkpt lat="43.62824" lon="1.15653">
        <ele>180</ele>
        <time>2017-08-06T13:52:47.736Z</time>
      </trkpt>
      <trkpt lat="43.62804" lon="1.15625">
        <ele>177</ele>
        <time>2017-08-06T13:52:48.307Z</time>
      </trkpt>
      <trkpt lat="43.62806" lon="1.15612">
        <ele>176</ele>
        <time>2017-08-06T13:52:48.500Z</time>
      </trkpt>
      <trkpt lat="43.62811" lon="1.15598">
        <ele>175</ele>
        <time>2017-08-06T13:52:48.726Z</time>
      </trkpt>
      <trkpt lat="43.62821" lon="1.15588">
        <ele>175</ele>
        <time>2017-08-06T13:52:48.973Z</time>
      </trkpt>
      <trkpt lat="43.62831" lon="1.15581">
        <ele>173</ele>
        <time>2017-08-06T13:52:49.198Z</time>
      </trkpt>
      <trkpt lat="43.6284" lon="1.15577">
        <ele>172</ele>
        <time>2017-08-06T13:52:49.387Z</time>
      </trkpt>
      <trkpt lat="43.62866" lon="1.15567">
        <ele>169</ele>
        <time>2017-08-06T13:52:49.928Z</time>
      </trkpt>
      <trkpt lat="43.62874" lon="1.15566">
        <ele>168</ele>
        <time>2017-08-06T13:52:50.089Z</time>
      </trkpt>
      <trkpt lat="43.62893" lon="1.15567">
        <ele>168</ele>
        <time>2017-08-06T13:52:50.470Z</time>
      </trkpt>
      <trkpt lat="43.62905" lon="1.15575">
        <ele>168</ele>
        <time>2017-08-06T13:52:50.737Z</time>
      </trkpt>
      <trkpt lat="43.62943" lon="1.15607">
        <ele>168</ele>
        <time>2017-08-06T13:52:51.629Z</time>
      </trkpt>
      <trkpt lat="43.6297" lon="1.15619">
        <ele>168</ele>
        <time>2017-08-06T13:52:52.197Z</time>
      </trkpt>
      <trkpt lat="43.62999" lon="1.15626">
        <ele>167</ele>
        <time>2017-08-06T13:52:52.782Z</time>
      </trkpt>
      <trkpt lat="43.63027" lon="1.15633">
        <ele>161</ele>
        <time>2017-08-06T13:52:53.366Z</time>
      </trkpt>
      <trkpt lat="43.63108" lon="1.1565">
        <ele>155</ele>
        <time>2017-08-06T13:52:54.999Z</time>
      </trkpt>
      <trkpt lat="43.63121" lon="1.1565">
        <ele>155</ele>
        <time>2017-08-06T13:52:55.260Z</time>
      </trkpt>
      <trkpt lat="43.63141" lon="1.15646">
        <ele>154</ele>
        <time>2017-08-06T13:52:55.665Z</time>
      </trkpt>
      <trkpt lat="43.63211" lon="1.15618">
        <ele>154</ele>
        <time>2017-08-06T13:52:57.125Z</time>
      </trkpt>
      <trkpt lat="43.63286" lon="1.15589">
        <ele>155</ele>
        <time>2017-08-06T13:52:58.686Z</time>
      </trkpt>
      <trkpt lat="43.63341" lon="1.15567">
        <ele>156</ele>
        <time>2017-08-06T13:52:59.833Z</time>
      </trkpt>
      <trkpt lat="43.6344" lon="1.1552">
        <ele>156</ele>
        <time>2017-08-06T13:53:01.931Z</time>
      </trkpt>
      <trkpt lat="43.63613" lon="1.15453">
        <ele>154</ele>
        <time>2017-08-06T13:53:05.531Z</time>
      </trkpt>
      <trkpt lat="43.63765" lon="1.15401">
        <ele>152</ele>
        <time>2017-08-06T13:53:08.669Z</time>
      </trkpt>
      <trkpt lat="43.63791" lon="1.15385">
        <ele>151</ele>
        <time>2017-08-06T13:53:09.239Z</time>
      </trkpt>
      <trkpt lat="43.63805" lon="1.1538">
        <ele>152</ele>
        <time>2017-08-06T13:53:09.529Z</time>
      </trkpt>
      <trkpt lat="43.63819" lon="1.15377">
        <ele>152</ele>
        <time>2017-08-06T13:53:09.813Z</time>
      </trkpt>
      <trkpt lat="43.63827" lon="1.15374">
        <ele>152</ele>
        <time>2017-08-06T13:53:09.979Z</time>
      </trkpt>
      <trkpt lat="43.63834" lon="1.15367">
        <ele>151</ele>
        <time>2017-08-06T13:53:10.152Z</time>
      </trkpt>
      <trkpt lat="43.63841" lon="1.15357">
        <ele>151</ele>
        <time>2017-08-06T13:53:10.354Z</time>
      </trkpt>
      <trkpt lat="43.63846" lon="1.15351">
        <ele>152</ele>
        <time>2017-08-06T13:53:10.487Z</time>
      </trkpt>
      <trkpt lat="43.63874" lon="1.15308">
        <ele>152</ele>
        <time>2017-08-06T13:53:11.326Z</time>
      </trkpt>
      <trkpt lat="43.63893" lon="1.15273">
        <ele>152</ele>
        <time>2017-08-06T13:53:11.961Z</time>
      </trkpt>
      <trkpt lat="43.63908" lon="1.1524">
        <ele>151</ele>
        <time>2017-08-06T13:53:12.526Z</time>
      </trkpt>
      <trkpt lat="43.6392" lon="1.15192">
        <ele>150</ele>
        <time>2017-08-06T13:53:13.262Z</time>
      </trkpt>
      <trkpt lat="43.63925" lon="1.15134">
        <ele>150</ele>
        <time>2017-08-06T13:53:14.109Z</time>
      </trkpt>
      <trkpt lat="43.63925" lon="1.15126">
        <ele>150</ele>
        <time>2017-08-06T13:53:14.232Z</time>
      </trkpt>
      <trkpt lat="43.63927" lon="1.15086">
        <ele>150</ele>
        <time>2017-08-06T13:53:14.806Z</time>
      </trkpt>
      <trkpt lat="43.63925" lon="1.15027">
        <ele>149</ele>
        <time>2017-08-06T13:53:15.663Z</time>
      </trkpt>
      <trkpt lat="43.63917" lon="1.14947">
        <ele>148</ele>
        <time>2017-08-06T13:53:16.834Z</time>
      </trkpt>
      <trkpt lat="43.63909" lon="1.1493">
        <ele>148</ele>
        <time>2017-08-06T13:53:17.128Z</time>
      </trkpt>
      <trkpt lat="43.63863" lon="1.14857">
        <ele>146</ele>
        <time>2017-08-06T13:53:18.532Z</time>
      </trkpt>
      <trkpt lat="43.63855" lon="1.14836">
        <ele>146</ele>
        <time>2017-08-06T13:53:18.876Z</time>
      </trkpt>
      <trkpt lat="43.63857" lon="1.14823">
        <ele>145</ele>
        <time>2017-08-06T13:53:19.069Z</time>
      </trkpt>
      <trkpt lat="43.63868" lon="1.14805">
        <ele>145</ele>
        <time>2017-08-06T13:53:19.411Z</time>
      </trkpt>
      <trkpt lat="43.63916" lon="1.14749">
        <ele>147</ele>
        <time>2017-08-06T13:53:20.670Z</time>
      </trkpt>
      <trkpt lat="43.63954" lon="1.14706">
        <ele>147</ele>
        <time>2017-08-06T13:53:21.654Z</time>
      </trkpt>
      <trkpt lat="43.63949" lon="1.14686">
        <ele>147</ele>
        <time>2017-08-06T13:53:21.961Z</time>
      </trkpt>
      <trkpt lat="43.63924" lon="1.14645">
        <ele>146</ele>
        <time>2017-08-06T13:53:22.739Z</time>
      </trkpt>
      <trkpt lat="43.63919" lon="1.14635">
        <ele>146</ele>
        <time>2017-08-06T13:53:22.918Z</time>
      </trkpt>
      <trkpt lat="43.63887" lon="1.14576">
        <ele>145</ele>
        <time>2017-08-06T13:53:23.985Z</time>
      </trkpt>
      <trkpt lat="43.63859" lon="1.14529">
        <ele>144</ele>
        <time>2017-08-06T13:53:24.868Z</time>
      </trkpt>
      <trkpt lat="43.63849" lon="1.14507">
        <ele>144</ele>
        <time>2017-08-06T13:53:25.245Z</time>
      </trkpt>
      <trkpt lat="43.6385" lon="1.14504">
        <ele>144</ele>
        <time>2017-08-06T13:53:25.293Z</time>
      </trkpt>
      <trkpt lat="43.63867" lon="1.14478">
        <ele>142</ele>
        <time>2017-08-06T13:53:25.801Z</time>
      </trkpt>
      <trkpt lat="43.63877" lon="1.14465">
        <ele>141</ele>
        <time>2017-08-06T13:53:26.076Z</time>
      </trkpt>
      <trkpt lat="43.63909" lon="1.14433">
        <ele>140</ele>
        <time>2017-08-06T13:53:26.868Z</time>
      </trkpt>
      <trkpt lat="43.64172" lon="1.1418">
        <ele>135</ele>
        <time>2017-08-06T13:53:33.291Z</time>
      </trkpt>
      <trkpt lat="43.64216" lon="1.14137">
        <ele>135</ele>
        <time>2017-08-06T13:53:34.370Z</time>
      </trkpt>
      <trkpt lat="43.6427" lon="1.14087">
        <ele>134</ele>
        <time>2017-08-06T13:53:35.673Z</time>
      </trkpt>
      <trkpt lat="43.64288" lon="1.1407">
        <ele>134</ele>
        <time>2017-08-06T13:53:36.110Z</time>
      </trkpt>
      <trkpt lat="43.64321" lon="1.14045">
        <ele>134</ele>
        <time>2017-08-06T13:53:36.864Z</time>
      </trkpt>
      <trkpt lat="43.6433" lon="1.14039">
        <ele>134</ele>
        <time>2017-08-06T13:53:37.064Z</time>
      </trkpt>
      <trkpt lat="43.64364" lon="1.14015">
        <ele>135</ele>
        <time>2017-08-06T13:53:37.829Z</time>
      </trkpt>
      <trkpt lat="43.64449" lon="1.13956">
        <ele>137</ele>
        <time>2017-08-06T13:53:39.735Z</time>
      </trkpt>
      <trkpt lat="43.64618" lon="1.13845">
        <ele>135</ele>
        <time>2017-08-06T13:53:43.485Z</time>
      </trkpt>
      <trkpt lat="43.64799" lon="1.13722">
        <ele>135</ele>
        <time>2017-08-06T13:53:47.527Z</time>
      </trkpt>
      <trkpt lat="43.64913" lon="1.13642">
        <ele>137</ele>
        <time>2017-08-06T13:53:50.089Z</time>
      </trkpt>
      <trkpt lat="43.6512" lon="1.13501">
        <ele>138</ele>
        <time>2017-08-06T13:53:54.711Z</time>
      </trkpt>
      <trkpt lat="43.6517" lon="1.13467">
        <ele>138</ele>
        <time>2017-08-06T13:53:55.830Z</time>
      </trkpt>
      <trkpt lat="43.65206" lon="1.13443">
        <ele>138</ele>
        <time>2017-08-06T13:53:56.631Z</time>
      </trkpt>
      <trkpt lat="43.65226" lon="1.13427">
        <ele>138</ele>
        <time>2017-08-06T13:53:57.091Z</time>
      </trkpt>
      <trkpt lat="43.65234" lon="1.13421">
        <ele>138</ele>
        <time>2017-08-06T13:53:57.277Z</time>
      </trkpt>
      <trkpt lat="43.65257" lon="1.13399">
        <ele>139</ele>
        <time>2017-08-06T13:53:57.838Z</time>
      </trkpt>
      <trkpt lat="43.65281" lon="1.13369">
        <ele>139</ele>
        <time>2017-08-06T13:53:58.486Z</time>
      </trkpt>
      <trkpt lat="43.65282" lon="1.13367">
        <ele>139</ele>
        <time>2017-08-06T13:53:58.520Z</time>
      </trkpt>
      <trkpt lat="43.65356" lon="1.13217">
        <ele>139</ele>
        <time>2017-08-06T13:54:01.152Z</time>
      </trkpt>
      <trkpt lat="43.65451" lon="1.13016">
        <ele>140</ele>
        <time>2017-08-06T13:54:04.633Z</time>
      </trkpt>
      <trkpt lat="43.65502" lon="1.12894">
        <ele>139</ele>
        <time>2017-08-06T13:54:06.676Z</time>
      </trkpt>
      <trkpt lat="43.65549" lon="1.12774">
        <ele>140</ele>
        <time>2017-08-06T13:54:08.654Z</time>
      </trkpt>
      <trkpt lat="43.65563" lon="1.12736">
        <ele>139</ele>
        <time>2017-08-06T13:54:09.272Z</time>
      </trkpt>
      <trkpt lat="43.65572" lon="1.12701">
        <ele>138</ele>
        <time>2017-08-06T13:54:09.812Z</time>
      </trkpt>
      <trkpt lat="43.6559" lon="1.1263">
        <ele>139</ele>
        <time>2017-08-06T13:54:10.901Z</time>
      </trkpt>
      <trkpt lat="43.65605" lon="1.12558">
        <ele>138</ele>
        <time>2017-08-06T13:54:11.987Z</time>
      </trkpt>
      <trkpt lat="43.65607" lon="1.12543">
        <ele>139</ele>
        <time>2017-08-06T13:54:12.209Z</time>
      </trkpt>
      <trkpt lat="43.65611" lon="1.12513">
        <ele>139</ele>
        <time>2017-08-06T13:54:12.651Z</time>
      </trkpt>
      <trkpt lat="43.65619" lon="1.12446">
        <ele>139</ele>
        <time>2017-08-06T13:54:13.630Z</time>
      </trkpt>
      <trkpt lat="43.65625" lon="1.12394">
        <ele>139</ele>
        <time>2017-08-06T13:54:14.399Z</time>
      </trkpt>
      <trkpt lat="43.65634" lon="1.12302">
        <ele>140</ele>
        <time>2017-08-06T13:54:15.745Z</time>
      </trkpt>
      <trkpt lat="43.65634" lon="1.12262">
        <ele>140</ele>
        <time>2017-08-06T13:54:16.325Z</time>
      </trkpt>
      <trkpt lat="43.65632" lon="1.12163">
        <ele>141</ele>
        <time>2017-08-06T13:54:17.761Z</time>
      </trkpt>
      <trkpt lat="43.65635" lon="1.12145">
        <ele>141</ele>
        <time>2017-08-06T13:54:18.029Z</time>
      </trkpt>
      <trkpt lat="43.65659" lon="1.12066">
        <ele>141</ele>
        <time>2017-08-06T13:54:19.271Z</time>
      </trkpt>
      <trkpt lat="43.65675" lon="1.12001">
        <ele>141</ele>
        <time>2017-08-06T13:54:20.266Z</time>
      </trkpt>
      <trkpt lat="43.65708" lon="1.11825">
        <ele>141</ele>
        <time>2017-08-06T13:54:22.902Z</time>
      </trkpt>
      <trkpt lat="43.65728" lon="1.11701">
        <ele>142</ele>
        <time>2017-08-06T13:54:24.744Z</time>
      </trkpt>
      <trkpt lat="43.65751" lon="1.11593">
        <ele>142</ele>
        <time>2017-08-06T13:54:26.376Z</time>
      </trkpt>
      <trkpt lat="43.65784" lon="1.1146">
        <ele>142</ele>
        <time>2017-08-06T13:54:28.414Z</time>
      </trkpt>
      <trkpt lat="43.65793" lon="1.11416">
        <ele>143</ele>
        <time>2017-08-06T13:54:29.074Z</time>
      </trkpt>
      <trkpt lat="43.6582" lon="1.11278">
        <ele>143</ele>
        <time>2017-08-06T13:54:31.150Z</time>
      </trkpt>
      <trkpt lat="43.65825" lon="1.11253">
        <ele>143</ele>
        <time>2017-08-06T13:54:31.519Z</time>
      </trkpt>
      <trkpt lat="43.65838" lon="1.11184">
        <ele>144</ele>
        <time>2017-08-06T13:54:32.559Z</time>
      </trkpt>
      <trkpt lat="43.65844" lon="1.11156">
        <ele>144</ele>
        <time>2017-08-06T13:54:32.988Z</time>
      </trkpt>
      <trkpt lat="43.65877" lon="1.11008">
        <ele>146</ele>
        <time>2017-08-06T13:54:35.228Z</time>
      </trkpt>
      <trkpt lat="43.65885" lon="1.10975">
        <ele>145</ele>
        <time>2017-08-06T13:54:35.733Z</time>
      </trkpt>
      <trkpt lat="43.65945" lon="1.10704">
        <ele>152</ele>
        <time>2017-08-06T13:54:39.842Z</time>
      </trkpt>
      <trkpt lat="43.65993" lon="1.10541">
        <ele>150</ele>
        <time>2017-08-06T13:54:42.393Z</time>
      </trkpt>
      <trkpt lat="43.66018" lon="1.10482">
        <ele>149</ele>
        <time>2017-08-06T13:54:43.384Z</time>
      </trkpt>
      <trkpt lat="43.6605" lon="1.10416">
        <ele>147</ele>
        <time>2017-08-06T13:54:44.536Z</time>
      </trkpt>
      <trkpt lat="43.66066" lon="1.10366">
        <ele>148</ele>
        <time>2017-08-06T13:54:45.329Z</time>
      </trkpt>
      <trkpt lat="43.66082" lon="1.10311">
        <ele>147</ele>
        <time>2017-08-06T13:54:46.188Z</time>
      </trkpt>
      <trkpt lat="43.66096" lon="1.10282">
        <ele>150</ele>
        <time>2017-08-06T13:54:46.693Z</time>
      </trkpt>
      <trkpt lat="43.66149" lon="1.10224">
        <ele>148</ele>
        <time>2017-08-06T13:54:48.048Z</time>
      </trkpt>
      <trkpt lat="43.66164" lon="1.10201">
        <ele>147</ele>
        <time>2017-08-06T13:54:48.497Z</time>
      </trkpt>
      <trkpt lat="43.66185" lon="1.10158">
        <ele>148</ele>
        <time>2017-08-06T13:54:49.249Z</time>
      </trkpt>
      <trkpt lat="43.66212" lon="1.10083">
        <ele>149</ele>
        <time>2017-08-06T13:54:50.463Z</time>
      </trkpt>
      <trkpt lat="43.66229" lon="1.10038">
        <ele>148</ele>
        <time>2017-08-06T13:54:51.199Z</time>
      </trkpt>
      <trkpt lat="43.66268" lon="1.09941">
        <ele>151</ele>
        <time>2017-08-06T13:54:52.808Z</time>
      </trkpt>
      <trkpt lat="43.66282" lon="1.0991">
        <ele>150</ele>
        <time>2017-08-06T13:54:53.338Z</time>
      </trkpt>
      <trkpt lat="43.66298" lon="1.0988">
        <ele>151</ele>
        <time>2017-08-06T13:54:53.878Z</time>
      </trkpt>
      <trkpt lat="43.66332" lon="1.09826">
        <ele>152</ele>
        <time>2017-08-06T13:54:54.916Z</time>
      </trkpt>
      <trkpt lat="43.66338" lon="1.09818">
        <ele>153</ele>
        <time>2017-08-06T13:54:55.071Z</time>
      </trkpt>
      <trkpt lat="43.66366" lon="1.09779">
        <ele>153</ele>
        <time>2017-08-06T13:54:55.880Z</time>
      </trkpt>
      <trkpt lat="43.66428" lon="1.09699">
        <ele>153</ele>
        <time>2017-08-06T13:54:57.571Z</time>
      </trkpt>
      <trkpt lat="43.66448" lon="1.09673">
        <ele>152</ele>
        <time>2017-08-06T13:54:58.130Z</time>
      </trkpt>
      <trkpt lat="43.66479" lon="1.0964">
        <ele>150</ele>
        <time>2017-08-06T13:54:58.914Z</time>
      </trkpt>
      <trkpt lat="43.66486" lon="1.09633">
        <ele>150</ele>
        <time>2017-08-06T13:54:59.089Z</time>
      </trkpt>
      <trkpt lat="43.665" lon="1.09619">
        <ele>150</ele>
        <time>2017-08-06T13:54:59.433Z</time>
      </trkpt>
      <trkpt lat="43.66532" lon="1.09595">
        <ele>151</ele>
        <time>2017-08-06T13:55:00.163Z</time>
      </trkpt>
      <trkpt lat="43.66609" lon="1.09543">
        <ele>151</ele>
        <time>2017-08-06T13:55:01.880Z</time>
      </trkpt>
      <trkpt lat="43.66677" lon="1.09497">
        <ele>150</ele>
        <time>2017-08-06T13:55:03.397Z</time>
      </trkpt>
      <trkpt lat="43.66698" lon="1.09479">
        <ele>151</ele>
        <time>2017-08-06T13:55:03.892Z</time>
      </trkpt>
      <trkpt lat="43.66708" lon="1.09465">
        <ele>151</ele>
        <time>2017-08-06T13:55:04.177Z</time>
      </trkpt>
      <trkpt lat="43.66714" lon="1.09449">
        <ele>151</ele>
        <time>2017-08-06T13:55:04.438Z</time>
      </trkpt>
      <trkpt lat="43.66733" lon="1.09318">
        <ele>151</ele>
        <time>2017-08-06T13:55:06.375Z</time>
      </trkpt>
      <trkpt lat="43.66831" lon="1.09037">
        <ele>152</ele>
        <time>2017-08-06T13:55:10.897Z</time>
      </trkpt>
      <trkpt lat="43.66835" lon="1.09024">
        <ele>152</ele>
        <time>2017-08-06T13:55:11.102Z</time>
      </trkpt>
      <trkpt lat="43.66852" lon="1.08995">
        <ele>153</ele>
        <time>2017-08-06T13:55:11.643Z</time>
      </trkpt>
      <trkpt lat="43.66878" lon="1.08973">
        <ele>153</ele>
        <time>2017-08-06T13:55:12.254Z</time>
      </trkpt>
      <trkpt lat="43.66948" lon="1.08922">
        <ele>154</ele>
        <time>2017-08-06T13:55:13.840Z</time>
      </trkpt>
      <trkpt lat="43.6697" lon="1.08908">
        <ele>156</ele>
        <time>2017-08-06T13:55:14.325Z</time>
      </trkpt>
      <trkpt lat="43.66993" lon="1.08887">
        <ele>156</ele>
        <time>2017-08-06T13:55:14.877Z</time>
      </trkpt>
      <trkpt lat="43.67029" lon="1.08856">
        <ele>155</ele>
        <time>2017-08-06T13:55:15.727Z</time>
      </trkpt>
      <trkpt lat="43.67081" lon="1.08794">
        <ele>156</ele>
        <time>2017-08-06T13:55:17.103Z</time>
      </trkpt>
      <trkpt lat="43.67103" lon="1.08765">
        <ele>155</ele>
        <time>2017-08-06T13:55:17.710Z</time>
      </trkpt>
      <trkpt lat="43.67136" lon="1.08723">
        <ele>155</ele>
        <time>2017-08-06T13:55:18.611Z</time>
      </trkpt>
      <trkpt lat="43.67168" lon="1.08678">
        <ele>153</ele>
        <time>2017-08-06T13:55:19.526Z</time>
      </trkpt>
      <trkpt lat="43.6719" lon="1.0864">
        <ele>154</ele>
        <time>2017-08-06T13:55:20.231Z</time>
      </trkpt>
      <trkpt lat="43.67202" lon="1.0862">
        <ele>154</ele>
        <time>2017-08-06T13:55:20.609Z</time>
      </trkpt>
      <trkpt lat="43.6723" lon="1.0855">
        <ele>155</ele>
        <time>2017-08-06T13:55:21.771Z</time>
      </trkpt>
      <trkpt lat="43.67246" lon="1.08509">
        <ele>156</ele>
        <time>2017-08-06T13:55:22.444Z</time>
      </trkpt>
      <trkpt lat="43.67269" lon="1.08457">
        <ele>154</ele>
        <time>2017-08-06T13:55:23.327Z</time>
      </trkpt>
      <trkpt lat="43.67306" lon="1.08387">
        <ele>153</ele>
        <time>2017-08-06T13:55:24.584Z</time>
      </trkpt>
      <trkpt lat="43.67372" lon="1.08268">
        <ele>156</ele>
        <time>2017-08-06T13:55:26.758Z</time>
      </trkpt>
      <trkpt lat="43.67409" lon="1.08181">
        <ele>157</ele>
        <time>2017-08-06T13:55:28.221Z</time>
      </trkpt>
      <trkpt lat="43.67441" lon="1.08089">
        <ele>157</ele>
        <time>2017-08-06T13:55:29.701Z</time>
      </trkpt>
      <trkpt lat="43.67452" lon="1.08048">
        <ele>158</ele>
        <time>2017-08-06T13:55:30.335Z</time>
      </trkpt>
      <trkpt lat="43.67465" lon="1.07979">
        <ele>157</ele>
        <time>2017-08-06T13:55:31.363Z</time>
      </trkpt>
      <trkpt lat="43.67472" lon="1.07938">
        <ele>157</ele>
        <time>2017-08-06T13:55:31.979Z</time>
      </trkpt>
      <trkpt lat="43.675" lon="1.07811">
        <ele>159</ele>
        <time>2017-08-06T13:55:33.904Z</time>
      </trkpt>
      <trkpt lat="43.67501" lon="1.07807">
        <ele>156</ele>
        <time>2017-08-06T13:55:33.964Z</time>
      </trkpt>
      <trkpt lat="43.67521" lon="1.07748">
        <ele>158</ele>
        <time>2017-08-06T13:55:34.908Z</time>
      </trkpt>
      <trkpt lat="43.67538" lon="1.07721">
        <ele>159</ele>
        <time>2017-08-06T13:55:35.427Z</time>
      </trkpt>
      <trkpt lat="43.6754" lon="1.07719">
        <ele>159</ele>
        <time>2017-08-06T13:55:35.467Z</time>
      </trkpt>
      <trkpt lat="43.67544" lon="1.07714">
        <ele>159</ele>
        <time>2017-08-06T13:55:35.585Z</time>
      </trkpt>
      <trkpt lat="43.67559" lon="1.07707">
        <ele>159</ele>
        <time>2017-08-06T13:55:35.902Z</time>
      </trkpt>
      <trkpt lat="43.67579" lon="1.07708">
        <ele>158</ele>
        <time>2017-08-06T13:55:36.303Z</time>
      </trkpt>
      <trkpt lat="43.67608" lon="1.0772">
        <ele>157</ele>
        <time>2017-08-06T13:55:36.910Z</time>
      </trkpt>
      <trkpt lat="43.67675" lon="1.07747">
        <ele>157</ele>
        <time>2017-08-06T13:55:38.308Z</time>
      </trkpt>
      <trkpt lat="43.67728" lon="1.07769">
        <ele>159</ele>
        <time>2017-08-06T13:55:39.417Z</time>
      </trkpt>
      <trkpt lat="43.6774" lon="1.07771">
        <ele>159</ele>
        <time>2017-08-06T13:55:39.659Z</time>
      </trkpt>
      <trkpt lat="43.67749" lon="1.0777">
        <ele>159</ele>
        <time>2017-08-06T13:55:39.840Z</time>
      </trkpt>
      <trkpt lat="43.67762" lon="1.07764">
        <ele>160</ele>
        <time>2017-08-06T13:55:40.115Z</time>
      </trkpt>
      <trkpt lat="43.67776" lon="1.0775">
        <ele>160</ele>
        <time>2017-08-06T13:55:40.461Z</time>
      </trkpt>
      <trkpt lat="43.67797" lon="1.07711">
        <ele>160</ele>
        <time>2017-08-06T13:55:41.166Z</time>
      </trkpt>
      <trkpt lat="43.67838" lon="1.07648">
        <ele>162</ele>
        <time>2017-08-06T13:55:42.394Z</time>
      </trkpt>
      <trkpt lat="43.67933" lon="1.07513">
        <ele>167</ele>
        <time>2017-08-06T13:55:45.124Z</time>
      </trkpt>
      <trkpt lat="43.6797" lon="1.07473">
        <ele>169</ele>
        <time>2017-08-06T13:55:46.065Z</time>
      </trkpt>
      <trkpt lat="43.67985" lon="1.0746">
        <ele>169</ele>
        <time>2017-08-06T13:55:46.420Z</time>
      </trkpt>
      <trkpt lat="43.68025" lon="1.07435">
        <ele>169</ele>
        <time>2017-08-06T13:55:47.300Z</time>
      </trkpt>
      <trkpt lat="43.68192" lon="1.07331">
        <ele>186</ele>
        <time>2017-08-06T13:55:50.970Z</time>
      </trkpt>
      <trkpt lat="43.68225" lon="1.07304">
        <ele>187</ele>
        <time>2017-08-06T13:55:51.738Z</time>
      </trkpt>
      <trkpt lat="43.68252" lon="1.07264">
        <ele>191</ele>
        <time>2017-08-06T13:55:52.531Z</time>
      </trkpt>
      <trkpt lat="43.68287" lon="1.0719">
        <ele>195</ele>
        <time>2017-08-06T13:55:53.812Z</time>
      </trkpt>
      <trkpt lat="43.68307" lon="1.07154">
        <ele>197</ele>
        <time>2017-08-06T13:55:54.477Z</time>
      </trkpt>
      <trkpt lat="43.6832" lon="1.0713">
        <ele>198</ele>
        <time>2017-08-06T13:55:54.904Z</time>
      </trkpt>
      <trkpt lat="43.68389" lon="1.07018">
        <ele>200</ele>
        <time>2017-08-06T13:55:57.036Z</time>
      </trkpt>
      <trkpt lat="43.68432" lon="1.06947">
        <ele>197</ele>
        <time>2017-08-06T13:55:58.379Z</time>
      </trkpt>
      <trkpt lat="43.68441" lon="1.06937">
        <ele>196</ele>
        <time>2017-08-06T13:55:58.614Z</time>
      </trkpt>
      <trkpt lat="43.68443" lon="1.06934">
        <ele>196</ele>
        <time>2017-08-06T13:55:58.669Z</time>
      </trkpt>
      <trkpt lat="43.68457" lon="1.06936">
        <ele>196</ele>
        <time>2017-08-06T13:55:58.951Z</time>
      </trkpt>
      <trkpt lat="43.68505" lon="1.06962">
        <ele>192</ele>
        <time>2017-08-06T13:55:59.984Z</time>
      </trkpt>
      <trkpt lat="43.68574" lon="1.06999">
        <ele>191</ele>
        <time>2017-08-06T13:56:01.467Z</time>
      </trkpt>
      <trkpt lat="43.68694" lon="1.07062">
        <ele>200</ele>
        <time>2017-08-06T13:56:04.039Z</time>
      </trkpt>
      <trkpt lat="43.68727" lon="1.07075">
        <ele>201</ele>
        <time>2017-08-06T13:56:04.727Z</time>
      </trkpt>
      <trkpt lat="43.6881" lon="1.07083">
        <ele>202</ele>
        <time>2017-08-06T13:56:06.394Z</time>
      </trkpt>
      <trkpt lat="43.68908" lon="1.0709">
        <ele>204</ele>
        <time>2017-08-06T13:56:08.360Z</time>
      </trkpt>
      <trkpt lat="43.68924" lon="1.0709">
        <ele>203</ele>
        <time>2017-08-06T13:56:08.681Z</time>
      </trkpt>
      <trkpt lat="43.68937" lon="1.07088">
        <ele>203</ele>
        <time>2017-08-06T13:56:08.943Z</time>
      </trkpt>
      <trkpt lat="43.68947" lon="1.07084">
        <ele>202</ele>
        <time>2017-08-06T13:56:09.152Z</time>
      </trkpt>
      <trkpt lat="43.68968" lon="1.0707">
        <ele>205</ele>
        <time>2017-08-06T13:56:09.619Z</time>
      </trkpt>
      <trkpt lat="43.69075" lon="1.06982">
        <ele>210</ele>
        <time>2017-08-06T13:56:12.112Z</time>
      </trkpt>
      <trkpt lat="43.6914" lon="1.06929">
        <ele>210</ele>
        <time>2017-08-06T13:56:13.625Z</time>
      </trkpt>
      <trkpt lat="43.69152" lon="1.06921">
        <ele>210</ele>
        <time>2017-08-06T13:56:13.892Z</time>
      </trkpt>
      <trkpt lat="43.69162" lon="1.06918">
        <ele>210</ele>
        <time>2017-08-06T13:56:14.097Z</time>
      </trkpt>
      <trkpt lat="43.69176" lon="1.06919">
        <ele>211</ele>
        <time>2017-08-06T13:56:14.378Z</time>
      </trkpt>
      <trkpt lat="43.6919" lon="1.06926">
        <ele>212</ele>
        <time>2017-08-06T13:56:14.671Z</time>
      </trkpt>
      <trkpt lat="43.6919" lon="1.06926">
        <ele>212</ele>
        <time>2017-08-06T13:56:14.676Z</time>
      </trkpt>
      <trkpt lat="43.6923" lon="1.06957">
        <ele>214</ele>
        <time>2017-08-06T13:56:15.595Z</time>
      </trkpt>
      <trkpt lat="43.69258" lon="1.06979">
        <ele>216</ele>
        <time>2017-08-06T13:56:16.247Z</time>
      </trkpt>
      <trkpt lat="43.69382" lon="1.07076">
        <ele>223</ele>
        <time>2017-08-06T13:56:19.095Z</time>
      </trkpt>
      <trkpt lat="43.69425" lon="1.07111">
        <ele>232</ele>
        <time>2017-08-06T13:56:20.095Z</time>
      </trkpt>
      <trkpt lat="43.69442" lon="1.07119">
        <ele>233</ele>
        <time>2017-08-06T13:56:20.455Z</time>
      </trkpt>
      <trkpt lat="43.69457" lon="1.07117">
        <ele>233</ele>
        <time>2017-08-06T13:56:20.757Z</time>
      </trkpt>
      <trkpt lat="43.69469" lon="1.0711">
        <ele>233</ele>
        <time>2017-08-06T13:56:21.018Z</time>
      </trkpt>
      <trkpt lat="43.69486" lon="1.07089">
        <ele>234</ele>
        <time>2017-08-06T13:56:21.475Z</time>
      </trkpt>
      <trkpt lat="43.6952" lon="1.07042">
        <ele>231</ele>
        <time>2017-08-06T13:56:22.443Z</time>
      </trkpt>
      <trkpt lat="43.69529" lon="1.0703">
        <ele>231</ele>
        <time>2017-08-06T13:56:22.688Z</time>
      </trkpt>
      <trkpt lat="43.69544" lon="1.07014">
        <ele>231</ele>
        <time>2017-08-06T13:56:23.068Z</time>
      </trkpt>
      <trkpt lat="43.69553" lon="1.07008">
        <ele>232</ele>
        <time>2017-08-06T13:56:23.268Z</time>
      </trkpt>
      <trkpt lat="43.69568" lon="1.06999">
        <ele>231</ele>
        <time>2017-08-06T13:56:23.596Z</time>
      </trkpt>
      <trkpt lat="43.69583" lon="1.06994">
        <ele>232</ele>
        <time>2017-08-06T13:56:23.905Z</time>
      </trkpt>
      <trkpt lat="43.6959" lon="1.06996">
        <ele>233</ele>
        <time>2017-08-06T13:56:24.048Z</time>
      </trkpt>
      <trkpt lat="43.69594" lon="1.07">
        <ele>232</ele>
        <time>2017-08-06T13:56:24.147Z</time>
      </trkpt>
      <trkpt lat="43.69622" lon="1.06955">
        <ele>232</ele>
        <time>2017-08-06T13:56:25.003Z</time>
      </trkpt>
      <trkpt lat="43.69645" lon="1.06916">
        <ele>233</ele>
        <time>2017-08-06T13:56:25.737Z</time>
      </trkpt>
      <trkpt lat="43.69673" lon="1.06873">
        <ele>233</ele>
        <time>2017-08-06T13:56:26.581Z</time>
      </trkpt>
      <trkpt lat="43.69683" lon="1.06858">
        <ele>233</ele>
        <time>2017-08-06T13:56:26.871Z</time>
      </trkpt>
      <trkpt lat="43.69702" lon="1.06819">
        <ele>231</ele>
        <time>2017-08-06T13:56:27.552Z</time>
      </trkpt>
      <trkpt lat="43.69744" lon="1.06703">
        <ele>229</ele>
        <time>2017-08-06T13:56:29.432Z</time>
      </trkpt>
      <trkpt lat="43.69761" lon="1.06654">
        <ele>229</ele>
        <time>2017-08-06T13:56:30.219Z</time>
      </trkpt>
      <trkpt lat="43.69786" lon="1.066">
        <ele>228</ele>
        <time>2017-08-06T13:56:31.148Z</time>
      </trkpt>
      <trkpt lat="43.69807" lon="1.06555">
        <ele>226</ele>
        <time>2017-08-06T13:56:31.924Z</time>
      </trkpt>
      <trkpt lat="43.69823" lon="1.06524">
        <ele>227</ele>
        <time>2017-08-06T13:56:32.476Z</time>
      </trkpt>
      <trkpt lat="43.69832" lon="1.06496">
        <ele>228</ele>
        <time>2017-08-06T13:56:32.920Z</time>
      </trkpt>
      <trkpt lat="43.69847" lon="1.06434">
        <ele>228</ele>
        <time>2017-08-06T13:56:33.867Z</time>
      </trkpt>
      <trkpt lat="43.69855" lon="1.06362">
        <ele>228</ele>
        <time>2017-08-06T13:56:34.922Z</time>
      </trkpt>
      <trkpt lat="43.69863" lon="1.0626">
        <ele>229</ele>
        <time>2017-08-06T13:56:36.408Z</time>
      </trkpt>
      <trkpt lat="43.6987" lon="1.06222">
        <ele>229</ele>
        <time>2017-08-06T13:56:36.976Z</time>
      </trkpt>
      <trkpt lat="43.69914" lon="1.06116">
        <ele>229</ele>
        <time>2017-08-06T13:56:38.747Z</time>
      </trkpt>
      <trkpt lat="43.69938" lon="1.06045">
        <ele>230</ele>
        <time>2017-08-06T13:56:39.883Z</time>
      </trkpt>
      <trkpt lat="43.69966" lon="1.05943">
        <ele>229</ele>
        <time>2017-08-06T13:56:41.464Z</time>
      </trkpt>
      <trkpt lat="43.6999" lon="1.05824">
        <ele>231</ele>
        <time>2017-08-06T13:56:43.254Z</time>
      </trkpt>
      <trkpt lat="43.70001" lon="1.05761">
        <ele>232</ele>
        <time>2017-08-06T13:56:44.192Z</time>
      </trkpt>
      <trkpt lat="43.70012" lon="1.05692">
        <ele>230</ele>
        <time>2017-08-06T13:56:45.217Z</time>
      </trkpt>
      <trkpt lat="43.70045" lon="1.05703">
        <ele>231</ele>
        <time>2017-08-06T13:56:45.897Z</time>
      </trkpt>
      <trkpt lat="43.7007" lon="1.05701">
        <ele>231</ele>
        <time>2017-08-06T13:56:46.399Z</time>
      </trkpt>
      <trkpt lat="43.70089" lon="1.05695">
        <ele>233</ele>
        <time>2017-08-06T13:56:46.792Z</time>
      </trkpt>
      <trkpt lat="43.70102" lon="1.0569">
        <ele>233</ele>
        <time>2017-08-06T13:56:47.060Z</time>
      </trkpt>
      <trkpt lat="43.70166" lon="1.05659">
        <ele>235</ele>
        <time>2017-08-06T13:56:48.413Z</time>
      </trkpt>
      <trkpt lat="43.70204" lon="1.05641">
        <ele>235</ele>
        <time>2017-08-06T13:56:49.224Z</time>
      </trkpt>
      <trkpt lat="43.7029" lon="1.05602">
        <ele>236</ele>
        <time>2017-08-06T13:56:51.038Z</time>
      </trkpt>
      <trkpt lat="43.70303" lon="1.05598">
        <ele>236</ele>
        <time>2017-08-06T13:56:51.305Z</time>
      </trkpt>
      <trkpt lat="43.70328" lon="1.05593">
        <ele>236</ele>
        <time>2017-08-06T13:56:51.811Z</time>
      </trkpt>
      <trkpt lat="43.70357" lon="1.05593">
        <ele>236</ele>
        <time>2017-08-06T13:56:52.392Z</time>
      </trkpt>
      <trkpt lat="43.70406" lon="1.05612">
        <ele>236</ele>
        <time>2017-08-06T13:56:53.412Z</time>
      </trkpt>
      <trkpt lat="43.70431" lon="1.0562">
        <ele>237</ele>
        <time>2017-08-06T13:56:53.926Z</time>
      </trkpt>
      <trkpt lat="43.7046" lon="1.05624">
        <ele>237</ele>
        <time>2017-08-06T13:56:54.510Z</time>
      </trkpt>
      <trkpt lat="43.70474" lon="1.05623">
        <ele>237</ele>
        <time>2017-08-06T13:56:54.791Z</time>
      </trkpt>
      <trkpt lat="43.70498" lon="1.05611">
        <ele>236</ele>
        <time>2017-08-06T13:56:55.302Z</time>
      </trkpt>
      <trkpt lat="43.70558" lon="1.05566">
        <ele>234</ele>
        <time>2017-08-06T13:56:56.661Z</time>
      </trkpt>
      <trkpt lat="43.70583" lon="1.05547">
        <ele>233</ele>
        <time>2017-08-06T13:56:57.241Z</time>
      </trkpt>
      <trkpt lat="43.70671" lon="1.05479">
        <ele>231</ele>
        <time>2017-08-06T13:56:59.260Z</time>
      </trkpt>
      <trkpt lat="43.70741" lon="1.05424">
        <ele>230</ele>
        <time>2017-08-06T13:57:00.876Z</time>
      </trkpt>
      <trkpt lat="43.70754" lon="1.05414">
        <ele>230</ele>
        <time>2017-08-06T13:57:01.173Z</time>
      </trkpt>
      <trkpt lat="43.70867" lon="1.05327">
        <ele>223</ele>
        <time>2017-08-06T13:57:03.765Z</time>
      </trkpt>
      <trkpt lat="43.71004" lon="1.05222">
        <ele>219</ele>
        <time>2017-08-06T13:57:06.904Z</time>
      </trkpt>
      <trkpt lat="43.71033" lon="1.05208">
        <ele>219</ele>
        <time>2017-08-06T13:57:07.520Z</time>
      </trkpt>
      <trkpt lat="43.71049" lon="1.05205">
        <ele>219</ele>
        <time>2017-08-06T13:57:07.844Z</time>
      </trkpt>
      <trkpt lat="43.71136" lon="1.05197">
        <ele>217</ele>
        <time>2017-08-06T13:57:09.591Z</time>
      </trkpt>
      <trkpt lat="43.71294" lon="1.05186">
        <ele>213</ele>
        <time>2017-08-06T13:57:12.761Z</time>
      </trkpt>
      <trkpt lat="43.71397" lon="1.05176">
        <ele>211</ele>
        <time>2017-08-06T13:57:14.830Z</time>
      </trkpt>
      <trkpt lat="43.71429" lon="1.0517">
        <ele>210</ele>
        <time>2017-08-06T13:57:15.477Z</time>
      </trkpt>
      <trkpt lat="43.71482" lon="1.0515">
        <ele>210</ele>
        <time>2017-08-06T13:57:16.578Z</time>
      </trkpt>
      <trkpt lat="43.71515" lon="1.05142">
        <ele>209</ele>
        <time>2017-08-06T13:57:17.249Z</time>
      </trkpt>
      <trkpt lat="43.71547" lon="1.05139">
        <ele>209</ele>
        <time>2017-08-06T13:57:17.892Z</time>
      </trkpt>
      <trkpt lat="43.71622" lon="1.05137">
        <ele>211</ele>
        <time>2017-08-06T13:57:19.395Z</time>
      </trkpt>
      <trkpt lat="43.71642" lon="1.0513">
        <ele>211</ele>
        <time>2017-08-06T13:57:19.808Z</time>
      </trkpt>
      <trkpt lat="43.71664" lon="1.05114">
        <ele>211</ele>
        <time>2017-08-06T13:57:20.306Z</time>
      </trkpt>
      <trkpt lat="43.71905" lon="1.04845">
        <ele>218</ele>
        <time>2017-08-06T13:57:26.511Z</time>
      </trkpt>
      <trkpt lat="43.72086" lon="1.04642">
        <ele>212</ele>
        <time>2017-08-06T13:57:31.185Z</time>
      </trkpt>
      <trkpt lat="43.72134" lon="1.04588">
        <ele>212</ele>
        <time>2017-08-06T13:57:32.419Z</time>
      </trkpt>
      <trkpt lat="43.72164" lon="1.04562">
        <ele>212</ele>
        <time>2017-08-06T13:57:33.128Z</time>
      </trkpt>
      <trkpt lat="43.72177" lon="1.04555">
        <ele>213</ele>
        <time>2017-08-06T13:57:33.408Z</time>
      </trkpt>
      <trkpt lat="43.72188" lon="1.04554">
        <ele>213</ele>
        <time>2017-08-06T13:57:33.629Z</time>
      </trkpt>
      <trkpt lat="43.72196" lon="1.04555">
        <ele>213</ele>
        <time>2017-08-06T13:57:33.779Z</time>
      </trkpt>
      <trkpt lat="43.72199" lon="1.04556">
        <ele>213</ele>
        <time>2017-08-06T13:57:33.859Z</time>
      </trkpt>
      <trkpt lat="43.72202" lon="1.04556">
        <ele>213</ele>
        <time>2017-08-06T13:57:33.911Z</time>
      </trkpt>
      <trkpt lat="43.72214" lon="1.04562">
        <ele>213</ele>
        <time>2017-08-06T13:57:34.167Z</time>
      </trkpt>
      <trkpt lat="43.72268" lon="1.04601">
        <ele>212</ele>
        <time>2017-08-06T13:57:35.394Z</time>
      </trkpt>
      <trkpt lat="43.72315" lon="1.04635">
        <ele>211</ele>
        <time>2017-08-06T13:57:36.457Z</time>
      </trkpt>
      <trkpt lat="43.72381" lon="1.04682">
        <ele>212</ele>
        <time>2017-08-06T13:57:37.938Z</time>
      </trkpt>
      <trkpt lat="43.7238" lon="1.04686">
        <ele>212</ele>
        <time>2017-08-06T13:57:37.999Z</time>
      </trkpt>
      <trkpt lat="43.7238" lon="1.0469">
        <ele>212</ele>
        <time>2017-08-06T13:57:38.057Z</time>
      </trkpt>
      <trkpt lat="43.7238" lon="1.04691">
        <ele>212</ele>
        <time>2017-08-06T13:57:38.070Z</time>
      </trkpt>
      <trkpt lat="43.72383" lon="1.04698">
        <ele>212</ele>
        <time>2017-08-06T13:57:38.187Z</time>
      </trkpt>
      <trkpt lat="43.72387" lon="1.04701">
        <ele>212</ele>
        <time>2017-08-06T13:57:38.278Z</time>
      </trkpt>
      <trkpt lat="43.72393" lon="1.04701">
        <ele>212</ele>
        <time>2017-08-06T13:57:38.398Z</time>
      </trkpt>
      <trkpt lat="43.72398" lon="1.04695">
        <ele>213</ele>
        <time>2017-08-06T13:57:38.531Z</time>
      </trkpt>
      <trkpt lat="43.72398" lon="1.04694">
        <ele>213</ele>
        <time>2017-08-06T13:57:38.545Z</time>
      </trkpt>
      <trkpt lat="43.72418" lon="1.04706">
        <ele>215</ele>
        <time>2017-08-06T13:57:38.982Z</time>
      </trkpt>
      <trkpt lat="43.72506" lon="1.04767">
        <ele>218</ele>
        <time>2017-08-06T13:57:40.954Z</time>
      </trkpt>
      <trkpt lat="43.72516" lon="1.04773">
        <ele>218</ele>
        <time>2017-08-06T13:57:41.172Z</time>
      </trkpt>
      <trkpt lat="43.72515" lon="1.04775">
        <ele>218</ele>
        <time>2017-08-06T13:57:41.207Z</time>
      </trkpt>
      <trkpt lat="43.72516" lon="1.0478">
        <ele>218</ele>
        <time>2017-08-06T13:57:41.282Z</time>
      </trkpt>
      <trkpt lat="43.7252" lon="1.04788">
        <ele>219</ele>
        <time>2017-08-06T13:57:41.423Z</time>
      </trkpt>
      <trkpt lat="43.72524" lon="1.04789">
        <ele>219</ele>
        <time>2017-08-06T13:57:41.504Z</time>
      </trkpt>
      <trkpt lat="43.72526" lon="1.04789">
        <ele>219</ele>
        <time>2017-08-06T13:57:41.544Z</time>
      </trkpt>
      <trkpt lat="43.72531" lon="1.04801">
        <ele>219</ele>
        <time>2017-08-06T13:57:41.745Z</time>
      </trkpt>
      <trkpt lat="43.72534" lon="1.0481">
        <ele>219</ele>
        <time>2017-08-06T13:57:41.889Z</time>
      </trkpt>
      <trkpt lat="43.72564" lon="1.04927">
        <ele>224</ele>
        <time>2017-08-06T13:57:43.691Z</time>
      </trkpt>
      <trkpt lat="43.72577" lon="1.04977">
        <ele>225</ele>
        <time>2017-08-06T13:57:44.456Z</time>
      </trkpt>
      <trkpt lat="43.7259" lon="1.05033">
        <ele>229</ele>
        <time>2017-08-06T13:57:45.308Z</time>
      </trkpt>
      <trkpt lat="43.72604" lon="1.05062">
        <ele>229</ele>
        <time>2017-08-06T13:57:45.813Z</time>
      </trkpt>
      <trkpt lat="43.72613" lon="1.05075">
        <ele>229</ele>
        <time>2017-08-06T13:57:46.074Z</time>
      </trkpt>
      <trkpt lat="43.72622" lon="1.05083">
        <ele>230</ele>
        <time>2017-08-06T13:57:46.289Z</time>
      </trkpt>
      <trkpt lat="43.72623" lon="1.05084">
        <ele>227</ele>
        <time>2017-08-06T13:57:46.313Z</time>
      </trkpt>
      <trkpt lat="43.7267" lon="1.05105">
        <ele>231</ele>
        <time>2017-08-06T13:57:47.303Z</time>
      </trkpt>
      <trkpt lat="43.72689" lon="1.05109">
        <ele>231</ele>
        <time>2017-08-06T13:57:47.688Z</time>
      </trkpt>
      <trkpt lat="43.72698" lon="1.05109">
        <ele>231</ele>
        <time>2017-08-06T13:57:47.868Z</time>
      </trkpt>
      <trkpt lat="43.72699" lon="1.05112">
        <ele>231</ele>
        <time>2017-08-06T13:57:47.913Z</time>
      </trkpt>
      <trkpt lat="43.72699" lon="1.05114">
        <ele>231</ele>
        <time>2017-08-06T13:57:47.943Z</time>
      </trkpt>
      <trkpt lat="43.72701" lon="1.05116">
        <ele>231</ele>
        <time>2017-08-06T13:57:47.992Z</time>
      </trkpt>
      <trkpt lat="43.72834" lon="1.05167">
        <ele>235</ele>
        <time>2017-08-06T13:57:50.758Z</time>
      </trkpt>
      <trkpt lat="43.72836" lon="1.05169">
        <ele>235</ele>
        <time>2017-08-06T13:57:50.807Z</time>
      </trkpt>
      <trkpt lat="43.7284" lon="1.05173">
        <ele>234</ele>
        <time>2017-08-06T13:57:50.906Z</time>
      </trkpt>
      <trkpt lat="43.72855" lon="1.05073">
        <ele>236</ele>
        <time>2017-08-06T13:57:52.385Z</time>
      </trkpt>
      <trkpt lat="43.72868" lon="1.04992">
        <ele>238</ele>
        <time>2017-08-06T13:57:53.587Z</time>
      </trkpt>
      <trkpt lat="43.72907" lon="1.0487">
        <ele>238</ele>
        <time>2017-08-06T13:57:55.524Z</time>
      </trkpt>
      <trkpt lat="43.72911" lon="1.04858">
        <ele>238</ele>
        <time>2017-08-06T13:57:55.711Z</time>
      </trkpt>
      <trkpt lat="43.72938" lon="1.04777">
        <ele>233</ele>
        <time>2017-08-06T13:57:57.003Z</time>
      </trkpt>
      <trkpt lat="43.72942" lon="1.04769">
        <ele>233</ele>
        <time>2017-08-06T13:57:57.144Z</time>
      </trkpt>
      <trkpt lat="43.72962" lon="1.04716">
        <ele>230</ele>
        <time>2017-08-06T13:57:58.010Z</time>
      </trkpt>
      <trkpt lat="43.72965" lon="1.04708">
        <ele>230</ele>
        <time>2017-08-06T13:57:58.137Z</time>
      </trkpt>
      <trkpt lat="43.73" lon="1.04606">
        <ele>226</ele>
        <time>2017-08-06T13:57:59.775Z</time>
      </trkpt>
      <trkpt lat="43.73048" lon="1.04464">
        <ele>220</ele>
        <time>2017-08-06T13:58:02.045Z</time>
      </trkpt>
      <trkpt lat="43.73069" lon="1.0443">
        <ele>221</ele>
        <time>2017-08-06T13:58:02.693Z</time>
      </trkpt>
      <trkpt lat="43.73108" lon="1.04376">
        <ele>222</ele>
        <time>2017-08-06T13:58:03.799Z</time>
      </trkpt>
      <trkpt lat="43.73134" lon="1.04335">
        <ele>222</ele>
        <time>2017-08-06T13:58:04.589Z</time>
      </trkpt>
      <trkpt lat="43.73189" lon="1.04216">
        <ele>219</ele>
        <time>2017-08-06T13:58:06.634Z</time>
      </trkpt>
      <trkpt lat="43.73215" lon="1.04172">
        <ele>220</ele>
        <time>2017-08-06T13:58:07.457Z</time>
      </trkpt>
      <trkpt lat="43.73248" lon="1.04127">
        <ele>216</ele>
        <time>2017-08-06T13:58:08.385Z</time>
      </trkpt>
      <trkpt lat="43.73285" lon="1.04082">
        <ele>213</ele>
        <time>2017-08-06T13:58:09.372Z</time>
      </trkpt>
      <trkpt lat="43.73321" lon="1.0405">
        <ele>213</ele>
        <time>2017-08-06T13:58:10.229Z</time>
      </trkpt>
      <trkpt lat="43.73366" lon="1.04017">
        <ele>214</ele>
        <time>2017-08-06T13:58:11.250Z</time>
      </trkpt>
      <trkpt lat="43.73397" lon="1.03997">
        <ele>214</ele>
        <time>2017-08-06T13:58:11.935Z</time>
      </trkpt>
      <trkpt lat="43.73407" lon="1.03989">
        <ele>214</ele>
        <time>2017-08-06T13:58:12.166Z</time>
      </trkpt>
      <trkpt lat="43.73435" lon="1.04018">
        <ele>217</ele>
        <time>2017-08-06T13:58:12.867Z</time>
      </trkpt>
      <trkpt lat="43.73453" lon="1.04038">
        <ele>218</ele>
        <time>2017-08-06T13:58:13.330Z</time>
      </trkpt>
      <trkpt lat="43.73463" lon="1.04046">
        <ele>217</ele>
        <time>2017-08-06T13:58:13.561Z</time>
      </trkpt>
      <trkpt lat="43.73475" lon="1.04049">
        <ele>217</ele>
        <time>2017-08-06T13:58:13.805Z</time>
      </trkpt>
      <trkpt lat="43.73488" lon="1.04049">
        <ele>217</ele>
        <time>2017-08-06T13:58:14.066Z</time>
      </trkpt>
      <trkpt lat="43.73501" lon="1.04045">
        <ele>216</ele>
        <time>2017-08-06T13:58:14.333Z</time>
      </trkpt>
      <trkpt lat="43.73543" lon="1.04021">
        <ele>215</ele>
        <time>2017-08-06T13:58:15.244Z</time>
      </trkpt>
      <trkpt lat="43.73602" lon="1.03987">
        <ele>213</ele>
        <time>2017-08-06T13:58:16.525Z</time>
      </trkpt>
      <trkpt lat="43.73627" lon="1.03972">
        <ele>213</ele>
        <time>2017-08-06T13:58:17.071Z</time>
      </trkpt>
      <trkpt lat="43.7368" lon="1.03945">
        <ele>210</ele>
        <time>2017-08-06T13:58:18.203Z</time>
      </trkpt>
      <trkpt lat="43.73726" lon="1.03925">
        <ele>210</ele>
        <time>2017-08-06T13:58:19.164Z</time>
      </trkpt>
      <trkpt lat="43.73804" lon="1.0389">
        <ele>213</ele>
        <time>2017-08-06T13:58:20.819Z</time>
      </trkpt>
      <trkpt lat="43.73944" lon="1.03829">
        <ele>220</ele>
        <time>2017-08-06T13:58:23.754Z</time>
      </trkpt>
      <trkpt lat="43.74087" lon="1.03766">
        <ele>226</ele>
        <time>2017-08-06T13:58:26.761Z</time>
      </trkpt>
      <trkpt lat="43.74104" lon="1.03761">
        <ele>226</ele>
        <time>2017-08-06T13:58:27.109Z</time>
      </trkpt>
      <trkpt lat="43.74119" lon="1.0376">
        <ele>227</ele>
        <time>2017-08-06T13:58:27.410Z</time>
      </trkpt>
      <trkpt lat="43.74157" lon="1.0377">
        <ele>228</ele>
        <time>2017-08-06T13:58:28.185Z</time>
      </trkpt>
      <trkpt lat="43.74197" lon="1.03773">
        <ele>231</ele>
        <time>2017-08-06T13:58:28.988Z</time>
      </trkpt>
      <trkpt lat="43.74285" lon="1.03768">
        <ele>231</ele>
        <time>2017-08-06T13:58:30.753Z</time>
      </trkpt>
      <trkpt lat="43.74306" lon="1.03762">
        <ele>231</ele>
        <time>2017-08-06T13:58:31.183Z</time>
      </trkpt>
      <trkpt lat="43.74328" lon="1.03748">
        <ele>230</ele>
        <time>2017-08-06T13:58:31.668Z</time>
      </trkpt>
      <trkpt lat="43.74345" lon="1.03736">
        <ele>232</ele>
        <time>2017-08-06T13:58:32.050Z</time>
      </trkpt>
      <trkpt lat="43.74363" lon="1.03718">
        <ele>232</ele>
        <time>2017-08-06T13:58:32.495Z</time>
      </trkpt>
      <trkpt lat="43.744" lon="1.03671">
        <ele>233</ele>
        <time>2017-08-06T13:58:33.501Z</time>
      </trkpt>
      <trkpt lat="43.7442" lon="1.03648">
        <ele>233</ele>
        <time>2017-08-06T13:58:34.015Z</time>
      </trkpt>
      <trkpt lat="43.74433" lon="1.03633">
        <ele>232</ele>
        <time>2017-08-06T13:58:34.362Z</time>
      </trkpt>
      <trkpt lat="43.74471" lon="1.03594">
        <ele>231</ele>
        <time>2017-08-06T13:58:35.310Z</time>
      </trkpt>
      <trkpt lat="43.74482" lon="1.03577">
        <ele>229</ele>
        <time>2017-08-06T13:58:35.640Z</time>
      </trkpt>
      <trkpt lat="43.74512" lon="1.03521">
        <ele>226</ele>
        <time>2017-08-06T13:58:36.647Z</time>
      </trkpt>
      <trkpt lat="43.74512" lon="1.03521">
        <ele>226</ele>
        <time>2017-08-06T13:58:36.649Z</time>
      </trkpt>
      <trkpt lat="43.74529" lon="1.03495">
        <ele>224</ele>
        <time>2017-08-06T13:58:37.157Z</time>
      </trkpt>
      <trkpt lat="43.74565" lon="1.03449">
        <ele>223</ele>
        <time>2017-08-06T13:58:38.139Z</time>
      </trkpt>
      <trkpt lat="43.74571" lon="1.03442">
        <ele>223</ele>
        <time>2017-08-06T13:58:38.297Z</time>
      </trkpt>
      <trkpt lat="43.74599" lon="1.0341">
        <ele>222</ele>
        <time>2017-08-06T13:58:39.024Z</time>
      </trkpt>
      <trkpt lat="43.74675" lon="1.03395">
        <ele>225</ele>
        <time>2017-08-06T13:58:40.562Z</time>
      </trkpt>
      <trkpt lat="43.74708" lon="1.03389">
        <ele>226</ele>
        <time>2017-08-06T13:58:41.229Z</time>
      </trkpt>
      <trkpt lat="43.74896" lon="1.03357">
        <ele>233</ele>
        <time>2017-08-06T13:58:45.025Z</time>
      </trkpt>
      <trkpt lat="43.75034" lon="1.03334">
        <ele>230</ele>
        <time>2017-08-06T13:58:47.810Z</time>
      </trkpt>
      <trkpt lat="43.75066" lon="1.03332">
        <ele>231</ele>
        <time>2017-08-06T13:58:48.452Z</time>
      </trkpt>
      <trkpt lat="43.7511" lon="1.03336">
        <ele>231</ele>
        <time>2017-08-06T13:58:49.336Z</time>
      </trkpt>
      <trkpt lat="43.7514" lon="1.03343">
        <ele>231</ele>
        <time>2017-08-06T13:58:49.946Z</time>
      </trkpt>
      <trkpt lat="43.75166" lon="1.03352">
        <ele>231</ele>
        <time>2017-08-06T13:58:50.483Z</time>
      </trkpt>
      <trkpt lat="43.75249" lon="1.0339">
        <ele>233</ele>
        <time>2017-08-06T13:58:52.235Z</time>
      </trkpt>
      <trkpt lat="43.75325" lon="1.03433">
        <ele>242</ele>
        <time>2017-08-06T13:58:53.880Z</time>
      </trkpt>
      <trkpt lat="43.75385" lon="1.03475">
        <ele>244</ele>
        <time>2017-08-06T13:58:55.227Z</time>
      </trkpt>
      <trkpt lat="43.75394" lon="1.03484">
        <ele>243</ele>
        <time>2017-08-06T13:58:55.449Z</time>
      </trkpt>
      <trkpt lat="43.75403" lon="1.03497">
        <ele>243</ele>
        <time>2017-08-06T13:58:55.710Z</time>
      </trkpt>
      <trkpt lat="43.75456" lon="1.03619">
        <ele>239</ele>
        <time>2017-08-06T13:58:57.771Z</time>
      </trkpt>
      <trkpt lat="43.75467" lon="1.03639">
        <ele>239</ele>
        <time>2017-08-06T13:58:58.135Z</time>
      </trkpt>
      <trkpt lat="43.75479" lon="1.03656">
        <ele>238</ele>
        <time>2017-08-06T13:58:58.479Z</time>
      </trkpt>
      <trkpt lat="43.75493" lon="1.03667">
        <ele>237</ele>
        <time>2017-08-06T13:58:58.802Z</time>
      </trkpt>
      <trkpt lat="43.75507" lon="1.03672">
        <ele>236</ele>
        <time>2017-08-06T13:58:59.092Z</time>
      </trkpt>
      <trkpt lat="43.75519" lon="1.03673">
        <ele>236</ele>
        <time>2017-08-06T13:58:59.333Z</time>
      </trkpt>
      <trkpt lat="43.75646" lon="1.0364">
        <ele>239</ele>
        <time>2017-08-06T13:59:01.922Z</time>
      </trkpt>
      <trkpt lat="43.75679" lon="1.03635">
        <ele>242</ele>
        <time>2017-08-06T13:59:02.587Z</time>
      </trkpt>
      <trkpt lat="43.75689" lon="1.03638">
        <ele>243</ele>
        <time>2017-08-06T13:59:02.792Z</time>
      </trkpt>
      <trkpt lat="43.75698" lon="1.03646">
        <ele>243</ele>
        <time>2017-08-06T13:59:03.006Z</time>
      </trkpt>
      <trkpt lat="43.75709" lon="1.03662">
        <ele>243</ele>
        <time>2017-08-06T13:59:03.326Z</time>
      </trkpt>
      <trkpt lat="43.75712" lon="1.0368">
        <ele>244</ele>
        <time>2017-08-06T13:59:03.593Z</time>
      </trkpt>
      <trkpt lat="43.75712" lon="1.03704">
        <ele>244</ele>
        <time>2017-08-06T13:59:03.940Z</time>
      </trkpt>
      <trkpt lat="43.75708" lon="1.03729">
        <ele>244</ele>
        <time>2017-08-06T13:59:04.311Z</time>
      </trkpt>
      <trkpt lat="43.75706" lon="1.03755">
        <ele>246</ele>
        <time>2017-08-06T13:59:04.689Z</time>
      </trkpt>
      <trkpt lat="43.75708" lon="1.0378">
        <ele>246</ele>
        <time>2017-08-06T13:59:05.053Z</time>
      </trkpt>
      <trkpt lat="43.75714" lon="1.03799">
        <ele>247</ele>
        <time>2017-08-06T13:59:05.353Z</time>
      </trkpt>
      <trkpt lat="43.75728" lon="1.03832">
        <ele>249</ele>
        <time>2017-08-06T13:59:05.907Z</time>
      </trkpt>
      <trkpt lat="43.75732" lon="1.03844">
        <ele>252</ele>
        <time>2017-08-06T13:59:06.098Z</time>
      </trkpt>
      <trkpt lat="43.75736" lon="1.03864">
        <ele>253</ele>
        <time>2017-08-06T13:59:06.398Z</time>
      </trkpt>
      <trkpt lat="43.75733" lon="1.03884">
        <ele>253</ele>
        <time>2017-08-06T13:59:06.694Z</time>
      </trkpt>
      <trkpt lat="43.75725" lon="1.03902">
        <ele>254</ele>
        <time>2017-08-06T13:59:07.000Z</time>
      </trkpt>
      <trkpt lat="43.75716" lon="1.03922">
        <ele>256</ele>
        <time>2017-08-06T13:59:07.341Z</time>
      </trkpt>
      <trkpt lat="43.75711" lon="1.03941">
        <ele>256</ele>
        <time>2017-08-06T13:59:07.634Z</time>
      </trkpt>
      <trkpt lat="43.75711" lon="1.03964">
        <ele>256</ele>
        <time>2017-08-06T13:59:07.967Z</time>
      </trkpt>
      <trkpt lat="43.75715" lon="1.03983">
        <ele>257</ele>
        <time>2017-08-06T13:59:08.253Z</time>
      </trkpt>
      <trkpt lat="43.75721" lon="1.04001">
        <ele>256</ele>
        <time>2017-08-06T13:59:08.540Z</time>
      </trkpt>
      <trkpt lat="43.75734" lon="1.04018">
        <ele>256</ele>
        <time>2017-08-06T13:59:08.898Z</time>
      </trkpt>
      <trkpt lat="43.75749" lon="1.04029">
        <ele>256</ele>
        <time>2017-08-06T13:59:09.238Z</time>
      </trkpt>
      <trkpt lat="43.75764" lon="1.04036">
        <ele>261</ele>
        <time>2017-08-06T13:59:09.555Z</time>
      </trkpt>
      <trkpt lat="43.75801" lon="1.04046">
        <ele>263</ele>
        <time>2017-08-06T13:59:10.310Z</time>
      </trkpt>
      <trkpt lat="43.75838" lon="1.04047">
        <ele>269</ele>
        <time>2017-08-06T13:59:11.052Z</time>
      </trkpt>
      <trkpt lat="43.75886" lon="1.0404">
        <ele>271</ele>
        <time>2017-08-06T13:59:12.019Z</time>
      </trkpt>
      <trkpt lat="43.75902" lon="1.04038">
        <ele>271</ele>
        <time>2017-08-06T13:59:12.341Z</time>
      </trkpt>
      <trkpt lat="43.75913" lon="1.04038">
        <ele>272</ele>
        <time>2017-08-06T13:59:12.566Z</time>
      </trkpt>
      <trkpt lat="43.75933" lon="1.04038">
        <ele>278</ele>
        <time>2017-08-06T13:59:12.962Z</time>
      </trkpt>
      <trkpt lat="43.75952" lon="1.04041">
        <ele>279</ele>
        <time>2017-08-06T13:59:13.345Z</time>
      </trkpt>
      <trkpt lat="43.75973" lon="1.04049">
        <ele>280</ele>
        <time>2017-08-06T13:59:13.781Z</time>
      </trkpt>
      <trkpt lat="43.75991" lon="1.04061">
        <ele>281</ele>
        <time>2017-08-06T13:59:14.181Z</time>
      </trkpt>
      <trkpt lat="43.76005" lon="1.04078">
        <ele>284</ele>
        <time>2017-08-06T13:59:14.554Z</time>
      </trkpt>
      <trkpt lat="43.76014" lon="1.04097">
        <ele>286</ele>
        <time>2017-08-06T13:59:14.883Z</time>
      </trkpt>
      <trkpt lat="43.7602" lon="1.04117">
        <ele>288</ele>
        <time>2017-08-06T13:59:15.205Z</time>
      </trkpt>
      <trkpt lat="43.76023" lon="1.04126">
        <ele>288</ele>
        <time>2017-08-06T13:59:15.340Z</time>
      </trkpt>
      <trkpt lat="43.76035" lon="1.04187">
        <ele>291</ele>
        <time>2017-08-06T13:59:16.255Z</time>
      </trkpt>
      <trkpt lat="43.76036" lon="1.04205">
        <ele>292</ele>
        <time>2017-08-06T13:59:16.516Z</time>
      </trkpt>
      <trkpt lat="43.76042" lon="1.04221">
        <ele>292</ele>
        <time>2017-08-06T13:59:16.777Z</time>
      </trkpt>
      <trkpt lat="43.76045" lon="1.04224">
        <ele>293</ele>
        <time>2017-08-06T13:59:16.861Z</time>
      </trkpt>
      <trkpt lat="43.76046" lon="1.04225">
        <ele>293</ele>
        <time>2017-08-06T13:59:16.876Z</time>
      </trkpt>
      <trkpt lat="43.76025" lon="1.04273">
        <ele>294</ele>
        <time>2017-08-06T13:59:17.688Z</time>
      </trkpt>
      <trkpt lat="43.76007" lon="1.04321">
        <ele>295</ele>
        <time>2017-08-06T13:59:18.471Z</time>
      </trkpt>
      <trkpt lat="43.75977" lon="1.04403">
        <ele>291</ele>
        <time>2017-08-06T13:59:19.801Z</time>
      </trkpt>
      <trkpt lat="43.75966" lon="1.04448">
        <ele>292</ele>
        <time>2017-08-06T13:59:20.489Z</time>
      </trkpt>
      <trkpt lat="43.75944" lon="1.0457">
        <ele>294</ele>
        <time>2017-08-06T13:59:22.309Z</time>
      </trkpt>
      <trkpt lat="43.75932" lon="1.04618">
        <ele>292</ele>
        <time>2017-08-06T13:59:23.044Z</time>
      </trkpt>
      <trkpt lat="43.75855" lon="1.04804">
        <ele>289</ele>
        <time>2017-08-06T13:59:26.147Z</time>
      </trkpt>
      <trkpt lat="43.75844" lon="1.04825">
        <ele>289</ele>
        <time>2017-08-06T13:59:26.522Z</time>
      </trkpt>
      <trkpt lat="43.75817" lon="1.04862">
        <ele>288</ele>
        <time>2017-08-06T13:59:27.283Z</time>
      </trkpt>
      <trkpt lat="43.75787" lon="1.049">
        <ele>288</ele>
        <time>2017-08-06T13:59:28.098Z</time>
      </trkpt>
      <trkpt lat="43.75704" lon="1.05031">
        <ele>285</ele>
        <time>2017-08-06T13:59:30.620Z</time>
      </trkpt>
      <trkpt lat="43.75597" lon="1.05205">
        <ele>289</ele>
        <time>2017-08-06T13:59:33.928Z</time>
      </trkpt>
      <trkpt lat="43.75573" lon="1.05259">
        <ele>288</ele>
        <time>2017-08-06T13:59:34.846Z</time>
      </trkpt>
      <trkpt lat="43.75559" lon="1.05303">
        <ele>288</ele>
        <time>2017-08-06T13:59:35.542Z</time>
      </trkpt>
      <trkpt lat="43.7555" lon="1.05321">
        <ele>288</ele>
        <time>2017-08-06T13:59:35.859Z</time>
      </trkpt>
      <trkpt lat="43.75541" lon="1.05331">
        <ele>288</ele>
        <time>2017-08-06T13:59:36.090Z</time>
      </trkpt>
      <trkpt lat="43.75526" lon="1.05341">
        <ele>289</ele>
        <time>2017-08-06T13:59:36.424Z</time>
      </trkpt>
      <trkpt lat="43.75414" lon="1.05377">
        <ele>289</ele>
        <time>2017-08-06T13:59:38.728Z</time>
      </trkpt>
      <trkpt lat="43.75342" lon="1.05399">
        <ele>291</ele>
        <time>2017-08-06T13:59:40.206Z</time>
      </trkpt>
      <trkpt lat="43.75331" lon="1.05404">
        <ele>291</ele>
        <time>2017-08-06T13:59:40.438Z</time>
      </trkpt>
      <trkpt lat="43.75323" lon="1.0541">
        <ele>291</ele>
        <time>2017-08-06T13:59:40.620Z</time>
      </trkpt>
      <trkpt lat="43.75295" lon="1.05443">
        <ele>291</ele>
        <time>2017-08-06T13:59:41.357Z</time>
      </trkpt>
      <trkpt lat="43.75239" lon="1.05519">
        <ele>290</ele>
        <time>2017-08-06T13:59:42.928Z</time>
      </trkpt>
      <trkpt lat="43.75217" lon="1.05545">
        <ele>288</ele>
        <time>2017-08-06T13:59:43.508Z</time>
      </trkpt>
      <trkpt lat="43.75248" lon="1.05599">
        <ele>290</ele>
        <time>2017-08-06T13:59:44.506Z</time>
      </trkpt>
      <trkpt lat="43.75264" lon="1.05616">
        <ele>291</ele>
        <time>2017-08-06T13:59:44.910Z</time>
      </trkpt>
      <trkpt lat="43.75301" lon="1.05649">
        <ele>291</ele>
        <time>2017-08-06T13:59:45.792Z</time>
      </trkpt>
      <trkpt lat="43.75315" lon="1.05665">
        <ele>291</ele>
        <time>2017-08-06T13:59:46.156Z</time>
      </trkpt>
      <trkpt lat="43.75327" lon="1.05684">
        <ele>290</ele>
        <time>2017-08-06T13:59:46.521Z</time>
      </trkpt>
      <trkpt lat="43.75376" lon="1.05769">
        <ele>291</ele>
        <time>2017-08-06T13:59:48.089Z</time>
      </trkpt>
      <trkpt lat="43.75386" lon="1.05786">
        <ele>291</ele>
        <time>2017-08-06T13:59:48.412Z</time>
      </trkpt>
      <trkpt lat="43.75396" lon="1.05797">
        <ele>292</ele>
        <time>2017-08-06T13:59:48.668Z</time>
      </trkpt>
      <trkpt lat="43.75418" lon="1.05815">
        <ele>294</ele>
        <time>2017-08-06T13:59:49.180Z</time>
      </trkpt>
      <trkpt lat="43.75439" lon="1.05832">
        <ele>295</ele>
        <time>2017-08-06T13:59:49.667Z</time>
      </trkpt>
      <trkpt lat="43.75479" lon="1.05874">
        <ele>296</ele>
        <time>2017-08-06T13:59:50.673Z</time>
      </trkpt>
      <trkpt lat="43.75483" lon="1.05878">
        <ele>296</ele>
        <time>2017-08-06T13:59:50.767Z</time>
      </trkpt>
      <trkpt lat="43.75491" lon="1.05885">
        <ele>296</ele>
        <time>2017-08-06T13:59:50.961Z</time>
      </trkpt>
      <trkpt lat="43.75517" lon="1.05901">
        <ele>293</ele>
        <time>2017-08-06T13:59:51.531Z</time>
      </trkpt>
      <trkpt lat="43.75545" lon="1.05913">
        <ele>292</ele>
        <time>2017-08-06T13:59:52.118Z</time>
      </trkpt>
      <trkpt lat="43.75561" lon="1.05921">
        <ele>291</ele>
        <time>2017-08-06T13:59:52.466Z</time>
      </trkpt>
      <trkpt lat="43.75592" lon="1.05937">
        <ele>289</ele>
        <time>2017-08-06T13:59:53.122Z</time>
      </trkpt>
      <trkpt lat="43.75635" lon="1.05966">
        <ele>288</ele>
        <time>2017-08-06T13:59:54.080Z</time>
      </trkpt>
      <trkpt lat="43.75686" lon="1.05997">
        <ele>287</ele>
        <time>2017-08-06T13:59:55.196Z</time>
      </trkpt>
      <trkpt lat="43.75698" lon="1.06001">
        <ele>286</ele>
        <time>2017-08-06T13:59:55.443Z</time>
      </trkpt>
      <trkpt lat="43.75749" lon="1.06017">
        <ele>287</ele>
        <time>2017-08-06T13:59:56.491Z</time>
      </trkpt>
      <trkpt lat="43.758" lon="1.06037">
        <ele>287</ele>
        <time>2017-08-06T13:59:57.553Z</time>
      </trkpt>
      <trkpt lat="43.75855" lon="1.06076">
        <ele>286</ele>
        <time>2017-08-06T13:59:58.791Z</time>
      </trkpt>
      <trkpt lat="43.75908" lon="1.06093">
        <ele>283</ele>
        <time>2017-08-06T13:59:59.881Z</time>
      </trkpt>
      <trkpt lat="43.75947" lon="1.06113">
        <ele>282</ele>
        <time>2017-08-06T14:00:00.714Z</time>
      </trkpt>
      <trkpt lat="43.75969" lon="1.06129">
        <ele>282</ele>
        <time>2017-08-06T14:00:01.212Z</time>
      </trkpt>
      <trkpt lat="43.75978" lon="1.06141">
        <ele>282</ele>
        <time>2017-08-06T14:00:01.462Z</time>
      </trkpt>
      <trkpt lat="43.75993" lon="1.06168">
        <ele>283</ele>
        <time>2017-08-06T14:00:01.955Z</time>
      </trkpt>
      <trkpt lat="43.76006" lon="1.06203">
        <ele>283</ele>
        <time>2017-08-06T14:00:02.525Z</time>
      </trkpt>
      <trkpt lat="43.76018" lon="1.06266">
        <ele>283</ele>
        <time>2017-08-06T14:00:03.468Z</time>
      </trkpt>
      <trkpt lat="43.76021" lon="1.06274">
        <ele>283</ele>
        <time>2017-08-06T14:00:03.598Z</time>
      </trkpt>
      <trkpt lat="43.76043" lon="1.06302">
        <ele>282</ele>
        <time>2017-08-06T14:00:04.197Z</time>
      </trkpt>
      <trkpt lat="43.76052" lon="1.06316">
        <ele>282</ele>
        <time>2017-08-06T14:00:04.468Z</time>
      </trkpt>
      <trkpt lat="43.76067" lon="1.06349">
        <ele>280</ele>
        <time>2017-08-06T14:00:05.032Z</time>
      </trkpt>
      <trkpt lat="43.76102" lon="1.06424">
        <ele>276</ele>
        <time>2017-08-06T14:00:06.324Z</time>
      </trkpt>
      <trkpt lat="43.7611" lon="1.06435">
        <ele>275</ele>
        <time>2017-08-06T14:00:06.550Z</time>
      </trkpt>
      <trkpt lat="43.76122" lon="1.06454">
        <ele>274</ele>
        <time>2017-08-06T14:00:06.915Z</time>
      </trkpt>
      <trkpt lat="43.76136" lon="1.0647">
        <ele>274</ele>
        <time>2017-08-06T14:00:07.279Z</time>
      </trkpt>
      <trkpt lat="43.76154" lon="1.06485">
        <ele>273</ele>
        <time>2017-08-06T14:00:07.700Z</time>
      </trkpt>
      <trkpt lat="43.76188" lon="1.06519">
        <ele>269</ele>
        <time>2017-08-06T14:00:08.540Z</time>
      </trkpt>
      <trkpt lat="43.76199" lon="1.06537">
        <ele>269</ele>
        <time>2017-08-06T14:00:08.881Z</time>
      </trkpt>
      <trkpt lat="43.76206" lon="1.0656">
        <ele>268</ele>
        <time>2017-08-06T14:00:09.242Z</time>
      </trkpt>
      <trkpt lat="43.76222" lon="1.0665">
        <ele>269</ele>
        <time>2017-08-06T14:00:10.583Z</time>
      </trkpt>
      <trkpt lat="43.76225" lon="1.06669">
        <ele>269</ele>
        <time>2017-08-06T14:00:10.864Z</time>
      </trkpt>
      <trkpt lat="43.76232" lon="1.06693">
        <ele>269</ele>
        <time>2017-08-06T14:00:11.239Z</time>
      </trkpt>
      <trkpt lat="43.76291" lon="1.06843">
        <ele>274</ele>
        <time>2017-08-06T14:00:13.711Z</time>
      </trkpt>
      <trkpt lat="43.76383" lon="1.07063">
        <ele>267</ele>
        <time>2017-08-06T14:00:17.390Z</time>
      </trkpt>
      <trkpt lat="43.7639" lon="1.07079">
        <ele>267</ele>
        <time>2017-08-06T14:00:17.661Z</time>
      </trkpt>
      <trkpt lat="43.764" lon="1.07092">
        <ele>265</ele>
        <time>2017-08-06T14:00:17.936Z</time>
      </trkpt>
      <trkpt lat="43.76422" lon="1.0712">
        <ele>265</ele>
        <time>2017-08-06T14:00:18.535Z</time>
      </trkpt>
      <trkpt lat="43.76453" lon="1.07163">
        <ele>264</ele>
        <time>2017-08-06T14:00:19.414Z</time>
      </trkpt>
      <trkpt lat="43.76509" lon="1.0728">
        <ele>256</ele>
        <time>2017-08-06T14:00:21.445Z</time>
      </trkpt>
      <trkpt lat="43.76514" lon="1.07297">
        <ele>255</ele>
        <time>2017-08-06T14:00:21.711Z</time>
      </trkpt>
      <trkpt lat="43.76518" lon="1.07318">
        <ele>255</ele>
        <time>2017-08-06T14:00:22.025Z</time>
      </trkpt>
      <trkpt lat="43.76524" lon="1.07396">
        <ele>250</ele>
        <time>2017-08-06T14:00:23.160Z</time>
      </trkpt>
      <trkpt lat="43.76544" lon="1.07597">
        <ele>237</ele>
        <time>2017-08-06T14:00:26.096Z</time>
      </trkpt>
      <trkpt lat="43.76561" lon="1.07778">
        <ele>239</ele>
        <time>2017-08-06T14:00:28.737Z</time>
      </trkpt>
      <trkpt lat="43.76565" lon="1.07813">
        <ele>239</ele>
        <time>2017-08-06T14:00:29.250Z</time>
      </trkpt>
      <trkpt lat="43.7657" lon="1.07845">
        <ele>239</ele>
        <time>2017-08-06T14:00:29.724Z</time>
      </trkpt>
      <trkpt lat="43.76622" lon="1.08052">
        <ele>239</ele>
        <time>2017-08-06T14:00:32.896Z</time>
      </trkpt>
      <trkpt lat="43.76666" lon="1.08231">
        <ele>245</ele>
        <time>2017-08-06T14:00:35.632Z</time>
      </trkpt>
      <trkpt lat="43.76676" lon="1.0827">
        <ele>248</ele>
        <time>2017-08-06T14:00:36.231Z</time>
      </trkpt>
      <trkpt lat="43.76682" lon="1.08285">
        <ele>247</ele>
        <time>2017-08-06T14:00:36.479Z</time>
      </trkpt>
      <trkpt lat="43.7669" lon="1.08295">
        <ele>247</ele>
        <time>2017-08-06T14:00:36.695Z</time>
      </trkpt>
      <trkpt lat="43.76698" lon="1.08302">
        <ele>247</ele>
        <time>2017-08-06T14:00:36.885Z</time>
      </trkpt>
      <trkpt lat="43.76712" lon="1.08309">
        <ele>246</ele>
        <time>2017-08-06T14:00:37.183Z</time>
      </trkpt>
      <trkpt lat="43.76754" lon="1.0833">
        <ele>243</ele>
        <time>2017-08-06T14:00:38.078Z</time>
      </trkpt>
      <trkpt lat="43.76771" lon="1.08341">
        <ele>239</ele>
        <time>2017-08-06T14:00:38.454Z</time>
      </trkpt>
      <trkpt lat="43.76789" lon="1.08361">
        <ele>238</ele>
        <time>2017-08-06T14:00:38.916Z</time>
      </trkpt>
      <trkpt lat="43.76824" lon="1.08413">
        <ele>236</ele>
        <time>2017-08-06T14:00:39.945Z</time>
      </trkpt>
      <trkpt lat="43.76855" lon="1.08458">
        <ele>233</ele>
        <time>2017-08-06T14:00:40.845Z</time>
      </trkpt>
      <trkpt lat="43.76869" lon="1.08473">
        <ele>233</ele>
        <time>2017-08-06T14:00:41.200Z</time>
      </trkpt>
      <trkpt lat="43.76887" lon="1.08484">
        <ele>234</ele>
        <time>2017-08-06T14:00:41.594Z</time>
      </trkpt>
      <trkpt lat="43.76908" lon="1.08496">
        <ele>236</ele>
        <time>2017-08-06T14:00:42.049Z</time>
      </trkpt>
      <trkpt lat="43.7696" lon="1.08518">
        <ele>240</ele>
        <time>2017-08-06T14:00:43.139Z</time>
      </trkpt>
      <trkpt lat="43.77015" lon="1.08539">
        <ele>246</ele>
        <time>2017-08-06T14:00:44.282Z</time>
      </trkpt>
      <trkpt lat="43.77032" lon="1.08551">
        <ele>247</ele>
        <time>2017-08-06T14:00:44.664Z</time>
      </trkpt>
      <trkpt lat="43.77059" lon="1.08581">
        <ele>249</ele>
        <time>2017-08-06T14:00:45.358Z</time>
      </trkpt>
      <trkpt lat="43.7709" lon="1.08623">
        <ele>253</ele>
        <time>2017-08-06T14:00:46.227Z</time>
      </trkpt>
      <trkpt lat="43.77101" lon="1.08645">
        <ele>253</ele>
        <time>2017-08-06T14:00:46.614Z</time>
      </trkpt>
      <trkpt lat="43.77104" lon="1.08654">
        <ele>253</ele>
        <time>2017-08-06T14:00:46.757Z</time>
      </trkpt>
      <trkpt lat="43.77104" lon="1.08666">
        <ele>253</ele>
        <time>2017-08-06T14:00:46.931Z</time>
      </trkpt>
      <trkpt lat="43.77102" lon="1.08682">
        <ele>255</ele>
        <time>2017-08-06T14:00:47.166Z</time>
      </trkpt>
      <trkpt lat="43.77093" lon="1.08709">
        <ele>256</ele>
        <time>2017-08-06T14:00:47.596Z</time>
      </trkpt>
      <trkpt lat="43.77078" lon="1.08754">
        <ele>256</ele>
        <time>2017-08-06T14:00:48.313Z</time>
      </trkpt>
      <trkpt lat="43.7707" lon="1.088">
        <ele>254</ele>
        <time>2017-08-06T14:00:48.998Z</time>
      </trkpt>
      <trkpt lat="43.77066" lon="1.08836">
        <ele>257</ele>
        <time>2017-08-06T14:00:49.525Z</time>
      </trkpt>
      <trkpt lat="43.77067" lon="1.08872">
        <ele>256</ele>
        <time>2017-08-06T14:00:50.046Z</time>
      </trkpt>
      <trkpt lat="43.7707" lon="1.08894">
        <ele>257</ele>
        <time>2017-08-06T14:00:50.370Z</time>
      </trkpt>
      <trkpt lat="43.77078" lon="1.08926">
        <ele>260</ele>
        <time>2017-08-06T14:00:50.860Z</time>
      </trkpt>
      <trkpt lat="43.77093" lon="1.08982">
        <ele>265</ele>
        <time>2017-08-06T14:00:51.724Z</time>
      </trkpt>
      <trkpt lat="43.77101" lon="1.09026">
        <ele>265</ele>
        <time>2017-08-06T14:00:52.381Z</time>
      </trkpt>
      <trkpt lat="43.77104" lon="1.09044">
        <ele>265</ele>
        <time>2017-08-06T14:00:52.648Z</time>
      </trkpt>
      <trkpt lat="43.77104" lon="1.09067">
        <ele>265</ele>
        <time>2017-08-06T14:00:52.981Z</time>
      </trkpt>
      <trkpt lat="43.77102" lon="1.09093">
        <ele>264</ele>
        <time>2017-08-06T14:00:53.359Z</time>
      </trkpt>
      <trkpt lat="43.77097" lon="1.09117">
        <ele>264</ele>
        <time>2017-08-06T14:00:53.720Z</time>
      </trkpt>
      <trkpt lat="43.77084" lon="1.09164">
        <ele>263</ele>
        <time>2017-08-06T14:00:54.448Z</time>
      </trkpt>
      <trkpt lat="43.77052" lon="1.09267">
        <ele>254</ele>
        <time>2017-08-06T14:00:56.071Z</time>
      </trkpt>
      <trkpt lat="43.77046" lon="1.09294">
        <ele>253</ele>
        <time>2017-08-06T14:00:56.480Z</time>
      </trkpt>
      <trkpt lat="43.77046" lon="1.09314">
        <ele>253</ele>
        <time>2017-08-06T14:00:56.769Z</time>
      </trkpt>
      <trkpt lat="43.77051" lon="1.0933">
        <ele>253</ele>
        <time>2017-08-06T14:00:57.021Z</time>
      </trkpt>
      <trkpt lat="43.77054" lon="1.09334">
        <ele>251</ele>
        <time>2017-08-06T14:00:57.104Z</time>
      </trkpt>
      <trkpt lat="43.77062" lon="1.09338">
        <ele>252</ele>
        <time>2017-08-06T14:00:57.274Z</time>
      </trkpt>
      <trkpt lat="43.77072" lon="1.09337">
        <ele>254</ele>
        <time>2017-08-06T14:00:57.475Z</time>
      </trkpt>
      <trkpt lat="43.7708" lon="1.09334">
        <ele>256</ele>
        <time>2017-08-06T14:00:57.641Z</time>
      </trkpt>
      <trkpt lat="43.77092" lon="1.09325">
        <ele>257</ele>
        <time>2017-08-06T14:00:57.914Z</time>
      </trkpt>
      <trkpt lat="43.77106" lon="1.0931">
        <ele>257</ele>
        <time>2017-08-06T14:00:58.269Z</time>
      </trkpt>
      <trkpt lat="43.77138" lon="1.09264">
        <ele>258</ele>
        <time>2017-08-06T14:00:59.193Z</time>
      </trkpt>
      <trkpt lat="43.77148" lon="1.09254">
        <ele>258</ele>
        <time>2017-08-06T14:00:59.440Z</time>
      </trkpt>
      <trkpt lat="43.77168" lon="1.09241">
        <ele>260</ele>
        <time>2017-08-06T14:00:59.883Z</time>
      </trkpt>
      <trkpt lat="43.77186" lon="1.09236">
        <ele>261</ele>
        <time>2017-08-06T14:01:00.251Z</time>
      </trkpt>
      <trkpt lat="43.772" lon="1.09234">
        <ele>262</ele>
        <time>2017-08-06T14:01:00.533Z</time>
      </trkpt>
      <trkpt lat="43.77211" lon="1.09234">
        <ele>262</ele>
        <time>2017-08-06T14:01:00.753Z</time>
      </trkpt>
      <trkpt lat="43.77223" lon="1.09239">
        <ele>262</ele>
        <time>2017-08-06T14:01:01.004Z</time>
      </trkpt>
      <trkpt lat="43.77246" lon="1.09254">
        <ele>258</ele>
        <time>2017-08-06T14:01:01.513Z</time>
      </trkpt>
      <trkpt lat="43.77267" lon="1.09261">
        <ele>254</ele>
        <time>2017-08-06T14:01:01.946Z</time>
      </trkpt>
      <trkpt lat="43.7733" lon="1.09257">
        <ele>252</ele>
        <time>2017-08-06T14:01:03.210Z</time>
      </trkpt>
      <trkpt lat="43.77354" lon="1.09258">
        <ele>247</ele>
        <time>2017-08-06T14:01:03.691Z</time>
      </trkpt>
      <trkpt lat="43.77365" lon="1.09265">
        <ele>245</ele>
        <time>2017-08-06T14:01:03.934Z</time>
      </trkpt>
      <trkpt lat="43.77372" lon="1.09274">
        <ele>244</ele>
        <time>2017-08-06T14:01:04.125Z</time>
      </trkpt>
      <trkpt lat="43.77379" lon="1.09292">
        <ele>243</ele>
        <time>2017-08-06T14:01:04.421Z</time>
      </trkpt>
      <trkpt lat="43.77385" lon="1.09314">
        <ele>242</ele>
        <time>2017-08-06T14:01:04.761Z</time>
      </trkpt>
      <trkpt lat="43.77388" lon="1.09362">
        <ele>242</ele>
        <time>2017-08-06T14:01:05.458Z</time>
      </trkpt>
      <trkpt lat="43.77382" lon="1.09526">
        <ele>251</ele>
        <time>2017-08-06T14:01:07.834Z</time>
      </trkpt>
      <trkpt lat="43.77398" lon="1.09686">
        <ele>254</ele>
        <time>2017-08-06T14:01:10.171Z</time>
      </trkpt>
      <trkpt lat="43.774" lon="1.09697">
        <ele>254</ele>
        <time>2017-08-06T14:01:10.342Z</time>
      </trkpt>
      <trkpt lat="43.77406" lon="1.09728">
        <ele>254</ele>
        <time>2017-08-06T14:01:10.800Z</time>
      </trkpt>
      <trkpt lat="43.77413" lon="1.09749">
        <ele>254</ele>
        <time>2017-08-06T14:01:11.135Z</time>
      </trkpt>
      <trkpt lat="43.77445" lon="1.09824">
        <ele>252</ele>
        <time>2017-08-06T14:01:12.396Z</time>
      </trkpt>
      <trkpt lat="43.77463" lon="1.09869">
        <ele>251</ele>
        <time>2017-08-06T14:01:13.135Z</time>
      </trkpt>
      <trkpt lat="43.77472" lon="1.09892">
        <ele>251</ele>
        <time>2017-08-06T14:01:13.519Z</time>
      </trkpt>
      <trkpt lat="43.77487" lon="1.09948">
        <ele>250</ele>
        <time>2017-08-06T14:01:14.383Z</time>
      </trkpt>
      <trkpt lat="43.77495" lon="1.09985">
        <ele>251</ele>
        <time>2017-08-06T14:01:14.949Z</time>
      </trkpt>
      <trkpt lat="43.77499" lon="1.10001">
        <ele>252</ele>
        <time>2017-08-06T14:01:15.187Z</time>
      </trkpt>
      <trkpt lat="43.77503" lon="1.10036">
        <ele>247</ele>
        <time>2017-08-06T14:01:15.700Z</time>
      </trkpt>
      <trkpt lat="43.77505" lon="1.10045">
        <ele>247</ele>
        <time>2017-08-06T14:01:15.836Z</time>
      </trkpt>
      <trkpt lat="43.77503" lon="1.10062">
        <ele>247</ele>
        <time>2017-08-06T14:01:16.085Z</time>
      </trkpt>
      <trkpt lat="43.77473" lon="1.10155">
        <ele>248</ele>
        <time>2017-08-06T14:01:17.559Z</time>
      </trkpt>
      <trkpt lat="43.77462" lon="1.10185">
        <ele>248</ele>
        <time>2017-08-06T14:01:18.046Z</time>
      </trkpt>
      <trkpt lat="43.77431" lon="1.1027">
        <ele>249</ele>
        <time>2017-08-06T14:01:19.424Z</time>
      </trkpt>
      <trkpt lat="43.77391" lon="1.10359">
        <ele>253</ele>
        <time>2017-08-06T14:01:20.941Z</time>
      </trkpt>
      <trkpt lat="43.77371" lon="1.10395">
        <ele>253</ele>
        <time>2017-08-06T14:01:21.598Z</time>
      </trkpt>
      <trkpt lat="43.77362" lon="1.10412">
        <ele>254</ele>
        <time>2017-08-06T14:01:21.903Z</time>
      </trkpt>
      <trkpt lat="43.77351" lon="1.10428">
        <ele>257</ele>
        <time>2017-08-06T14:01:22.223Z</time>
      </trkpt>
      <trkpt lat="43.77337" lon="1.10447">
        <ele>257</ele>
        <time>2017-08-06T14:01:22.616Z</time>
      </trkpt>
      <trkpt lat="43.77322" lon="1.10476">
        <ele>258</ele>
        <time>2017-08-06T14:01:23.132Z</time>
      </trkpt>
      <trkpt lat="43.7731" lon="1.10507">
        <ele>263</ele>
        <time>2017-08-06T14:01:23.641Z</time>
      </trkpt>
      <trkpt lat="43.77309" lon="1.10514">
        <ele>263</ele>
        <time>2017-08-06T14:01:23.744Z</time>
      </trkpt>
      <trkpt lat="43.7731" lon="1.10526">
        <ele>264</ele>
        <time>2017-08-06T14:01:23.919Z</time>
      </trkpt>
      <trkpt lat="43.77316" lon="1.10537">
        <ele>264</ele>
        <time>2017-08-06T14:01:24.118Z</time>
      </trkpt>
      <trkpt lat="43.77334" lon="1.10554">
        <ele>263</ele>
        <time>2017-08-06T14:01:24.555Z</time>
      </trkpt>
      <trkpt lat="43.77408" lon="1.10616">
        <ele>266</ele>
        <time>2017-08-06T14:01:26.288Z</time>
      </trkpt>
      <trkpt lat="43.77421" lon="1.10637">
        <ele>264</ele>
        <time>2017-08-06T14:01:26.688Z</time>
      </trkpt>
      <trkpt lat="43.77464" lon="1.10733">
        <ele>266</ele>
        <time>2017-08-06T14:01:28.323Z</time>
      </trkpt>
      <trkpt lat="43.7753" lon="1.10871">
        <ele>263</ele>
        <time>2017-08-06T14:01:30.718Z</time>
      </trkpt>
      <trkpt lat="43.77542" lon="1.10904">
        <ele>262</ele>
        <time>2017-08-06T14:01:31.253Z</time>
      </trkpt>
      <trkpt lat="43.77547" lon="1.10938">
        <ele>258</ele>
        <time>2017-08-06T14:01:31.755Z</time>
      </trkpt>
      <trkpt lat="43.7755" lon="1.11029">
        <ele>253</ele>
        <time>2017-08-06T14:01:33.073Z</time>
      </trkpt>
      <trkpt lat="43.77549" lon="1.11095">
        <ele>249</ele>
        <time>2017-08-06T14:01:34.028Z</time>
      </trkpt>
      <trkpt lat="43.7754" lon="1.11165">
        <ele>249</ele>
        <time>2017-08-06T14:01:35.057Z</time>
      </trkpt>
      <trkpt lat="43.77533" lon="1.11228">
        <ele>249</ele>
        <time>2017-08-06T14:01:35.979Z</time>
      </trkpt>
      <trkpt lat="43.77534" lon="1.11251">
        <ele>250</ele>
        <time>2017-08-06T14:01:36.312Z</time>
      </trkpt>
      <trkpt lat="43.77542" lon="1.11289">
        <ele>250</ele>
        <time>2017-08-06T14:01:36.885Z</time>
      </trkpt>
      <trkpt lat="43.77568" lon="1.11394">
        <ele>253</ele>
        <time>2017-08-06T14:01:38.491Z</time>
      </trkpt>
      <trkpt lat="43.7761" lon="1.11531">
        <ele>249</ele>
        <time>2017-08-06T14:01:40.645Z</time>
      </trkpt>
      <trkpt lat="43.77656" lon="1.11682">
        <ele>250</ele>
        <time>2017-08-06T14:01:43.016Z</time>
      </trkpt>
      <trkpt lat="43.77677" lon="1.11746">
        <ele>252</ele>
        <time>2017-08-06T14:01:44.033Z</time>
      </trkpt>
      <trkpt lat="43.77684" lon="1.11771">
        <ele>254</ele>
        <time>2017-08-06T14:01:44.421Z</time>
      </trkpt>
      <trkpt lat="43.77685" lon="1.11779">
        <ele>254</ele>
        <time>2017-08-06T14:01:44.538Z</time>
      </trkpt>
      <trkpt lat="43.77679" lon="1.11819">
        <ele>254</ele>
        <time>2017-08-06T14:01:45.129Z</time>
      </trkpt>
      <trkpt lat="43.77662" lon="1.11901">
        <ele>250</ele>
        <time>2017-08-06T14:01:46.363Z</time>
      </trkpt>
      <trkpt lat="43.77657" lon="1.11921">
        <ele>250</ele>
        <time>2017-08-06T14:01:46.669Z</time>
      </trkpt>
      <trkpt lat="43.77653" lon="1.11946">
        <ele>247</ele>
        <time>2017-08-06T14:01:47.040Z</time>
      </trkpt>
      <trkpt lat="43.77653" lon="1.11969">
        <ele>246</ele>
        <time>2017-08-06T14:01:47.373Z</time>
      </trkpt>
      <trkpt lat="43.77664" lon="1.12">
        <ele>248</ele>
        <time>2017-08-06T14:01:47.873Z</time>
      </trkpt>
      <trkpt lat="43.77668" lon="1.12018">
        <ele>249</ele>
        <time>2017-08-06T14:01:48.146Z</time>
      </trkpt>
      <trkpt lat="43.77665" lon="1.1206">
        <ele>246</ele>
        <time>2017-08-06T14:01:48.757Z</time>
      </trkpt>
      <trkpt lat="43.7766" lon="1.1211">
        <ele>246</ele>
        <time>2017-08-06T14:01:49.487Z</time>
      </trkpt>
      <trkpt lat="43.77661" lon="1.12162">
        <ele>246</ele>
        <time>2017-08-06T14:01:50.240Z</time>
      </trkpt>
      <trkpt lat="43.77669" lon="1.12269">
        <ele>247</ele>
        <time>2017-08-06T14:01:51.796Z</time>
      </trkpt>
      <trkpt lat="43.77669" lon="1.12302">
        <ele>246</ele>
        <time>2017-08-06T14:01:52.273Z</time>
      </trkpt>
      <trkpt lat="43.77667" lon="1.12341">
        <ele>246</ele>
        <time>2017-08-06T14:01:52.839Z</time>
      </trkpt>
      <trkpt lat="43.77656" lon="1.12449">
        <ele>238</ele>
        <time>2017-08-06T14:01:54.417Z</time>
      </trkpt>
      <trkpt lat="43.77643" lon="1.12554">
        <ele>237</ele>
        <time>2017-08-06T14:01:55.958Z</time>
      </trkpt>
      <trkpt lat="43.77636" lon="1.12617">
        <ele>238</ele>
        <time>2017-08-06T14:01:56.880Z</time>
      </trkpt>
      <trkpt lat="43.77637" lon="1.12658">
        <ele>238</ele>
        <time>2017-08-06T14:01:57.474Z</time>
      </trkpt>
      <trkpt lat="43.77643" lon="1.12706">
        <ele>240</ele>
        <time>2017-08-06T14:01:58.179Z</time>
      </trkpt>
      <trkpt lat="43.77648" lon="1.12735">
        <ele>241</ele>
        <time>2017-08-06T14:01:58.610Z</time>
      </trkpt>
      <trkpt lat="43.77659" lon="1.12779">
        <ele>245</ele>
        <time>2017-08-06T14:01:59.284Z</time>
      </trkpt>
      <trkpt lat="43.77704" lon="1.12925">
        <ele>250</ele>
        <time>2017-08-06T14:02:01.581Z</time>
      </trkpt>
      <trkpt lat="43.77724" lon="1.12995">
        <ele>249</ele>
        <time>2017-08-06T14:02:02.670Z</time>
      </trkpt>
      <trkpt lat="43.7775" lon="1.13073">
        <ele>248</ele>
        <time>2017-08-06T14:02:03.913Z</time>
      </trkpt>
      <trkpt lat="43.7778" lon="1.13156">
        <ele>246</ele>
        <time>2017-08-06T14:02:05.256Z</time>
      </trkpt>
      <trkpt lat="43.77821" lon="1.13243">
        <ele>237</ele>
        <time>2017-08-06T14:02:06.759Z</time>
      </trkpt>
      <trkpt lat="43.77884" lon="1.13369">
        <ele>232</ele>
        <time>2017-08-06T14:02:08.977Z</time>
      </trkpt>
      <trkpt lat="43.77905" lon="1.13411">
        <ele>232</ele>
        <time>2017-08-06T14:02:09.716Z</time>
      </trkpt>
      <trkpt lat="43.77924" lon="1.13464">
        <ele>232</ele>
        <time>2017-08-06T14:02:10.572Z</time>
      </trkpt>
      <trkpt lat="43.77965" lon="1.13593">
        <ele>225</ele>
        <time>2017-08-06T14:02:12.615Z</time>
      </trkpt>
      <trkpt lat="43.77966" lon="1.13597">
        <ele>225</ele>
        <time>2017-08-06T14:02:12.672Z</time>
      </trkpt>
      <trkpt lat="43.77986" lon="1.13673">
        <ele>222</ele>
        <time>2017-08-06T14:02:13.842Z</time>
      </trkpt>
      <trkpt lat="43.78006" lon="1.13787">
        <ele>216</ele>
        <time>2017-08-06T14:02:15.536Z</time>
      </trkpt>
      <trkpt lat="43.78007" lon="1.13794">
        <ele>215</ele>
        <time>2017-08-06T14:02:15.643Z</time>
      </trkpt>
      <trkpt lat="43.78023" lon="1.13883">
        <ele>212</ele>
        <time>2017-08-06T14:02:16.970Z</time>
      </trkpt>
      <trkpt lat="43.78031" lon="1.13905">
        <ele>211</ele>
        <time>2017-08-06T14:02:17.326Z</time>
      </trkpt>
      <trkpt lat="43.78036" lon="1.13914">
        <ele>211</ele>
        <time>2017-08-06T14:02:17.481Z</time>
      </trkpt>
      <trkpt lat="43.78055" lon="1.13949">
        <ele>208</ele>
        <time>2017-08-06T14:02:18.124Z</time>
      </trkpt>
      <trkpt lat="43.78139" lon="1.14085">
        <ele>199</ele>
        <time>2017-08-06T14:02:20.713Z</time>
      </trkpt>
      <trkpt lat="43.78158" lon="1.14115">
        <ele>199</ele>
        <time>2017-08-06T14:02:21.290Z</time>
      </trkpt>
      <trkpt lat="43.78185" lon="1.14152">
        <ele>198</ele>
        <time>2017-08-06T14:02:22.051Z</time>
      </trkpt>
      <trkpt lat="43.78217" lon="1.14188">
        <ele>197</ele>
        <time>2017-08-06T14:02:22.877Z</time>
      </trkpt>
      <trkpt lat="43.7825" lon="1.14221">
        <ele>197</ele>
        <time>2017-08-06T14:02:23.693Z</time>
      </trkpt>
      <trkpt lat="43.78312" lon="1.14278">
        <ele>196</ele>
        <time>2017-08-06T14:02:25.184Z</time>
      </trkpt>
      <trkpt lat="43.78351" lon="1.14323">
        <ele>195</ele>
        <time>2017-08-06T14:02:26.201Z</time>
      </trkpt>
      <trkpt lat="43.78392" lon="1.14375">
        <ele>193</ele>
        <time>2017-08-06T14:02:27.315Z</time>
      </trkpt>
      <trkpt lat="43.78447" lon="1.14424">
        <ele>191</ele>
        <time>2017-08-06T14:02:28.625Z</time>
      </trkpt>
      <trkpt lat="43.78471" lon="1.14448">
        <ele>190</ele>
        <time>2017-08-06T14:02:29.218Z</time>
      </trkpt>
      <trkpt lat="43.78503" lon="1.14485">
        <ele>188</ele>
        <time>2017-08-06T14:02:30.053Z</time>
      </trkpt>
      <trkpt lat="43.78532" lon="1.14518">
        <ele>186</ele>
        <time>2017-08-06T14:02:30.805Z</time>
      </trkpt>
      <trkpt lat="43.78546" lon="1.14538">
        <ele>185</ele>
        <time>2017-08-06T14:02:31.208Z</time>
      </trkpt>
      <trkpt lat="43.78566" lon="1.14574">
        <ele>184</ele>
        <time>2017-08-06T14:02:31.865Z</time>
      </trkpt>
      <trkpt lat="43.78601" lon="1.14642">
        <ele>180</ele>
        <time>2017-08-06T14:02:33.073Z</time>
      </trkpt>
      <trkpt lat="43.78654" lon="1.14723">
        <ele>179</ele>
        <time>2017-08-06T14:02:34.655Z</time>
      </trkpt>
      <trkpt lat="43.78673" lon="1.14754">
        <ele>177</ele>
        <time>2017-08-06T14:02:35.243Z</time>
      </trkpt>
      <trkpt lat="43.78684" lon="1.14778">
        <ele>176</ele>
        <time>2017-08-06T14:02:35.654Z</time>
      </trkpt>
      <trkpt lat="43.78698" lon="1.14802">
        <ele>175</ele>
        <time>2017-08-06T14:02:36.100Z</time>
      </trkpt>
      <trkpt lat="43.78715" lon="1.14819">
        <ele>175</ele>
        <time>2017-08-06T14:02:36.520Z</time>
      </trkpt>
      <trkpt lat="43.78742" lon="1.14839">
        <ele>173</ele>
        <time>2017-08-06T14:02:37.134Z</time>
      </trkpt>
      <trkpt lat="43.78761" lon="1.14849">
        <ele>172</ele>
        <time>2017-08-06T14:02:37.541Z</time>
      </trkpt>
      <trkpt lat="43.78786" lon="1.1486">
        <ele>172</ele>
        <time>2017-08-06T14:02:38.067Z</time>
      </trkpt>
      <trkpt lat="43.78846" lon="1.14878">
        <ele>173</ele>
        <time>2017-08-06T14:02:39.297Z</time>
      </trkpt>
      <trkpt lat="43.78886" lon="1.14889">
        <ele>175</ele>
        <time>2017-08-06T14:02:40.114Z</time>
      </trkpt>
      <trkpt lat="43.78927" lon="1.14899">
        <ele>178</ele>
        <time>2017-08-06T14:02:40.948Z</time>
      </trkpt>
      <trkpt lat="43.78986" lon="1.14904">
        <ele>179</ele>
        <time>2017-08-06T14:02:42.133Z</time>
      </trkpt>
      <trkpt lat="43.79015" lon="1.14906">
        <ele>180</ele>
        <time>2017-08-06T14:02:42.715Z</time>
      </trkpt>
      <trkpt lat="43.79038" lon="1.14906">
        <ele>180</ele>
        <time>2017-08-06T14:02:43.176Z</time>
      </trkpt>
      <trkpt lat="43.79042" lon="1.14935">
        <ele>179</ele>
        <time>2017-08-06T14:02:43.603Z</time>
      </trkpt>
      <trkpt lat="43.79054" lon="1.15044">
        <ele>178</ele>
        <time>2017-08-06T14:02:45.198Z</time>
      </trkpt>
      <trkpt lat="43.79065" lon="1.15142">
        <ele>176</ele>
        <time>2017-08-06T14:02:46.633Z</time>
      </trkpt>
      <trkpt lat="43.79073" lon="1.15217">
        <ele>176</ele>
        <time>2017-08-06T14:02:47.730Z</time>
      </trkpt>
      <trkpt lat="43.79077" lon="1.1532">
        <ele>175</ele>
        <time>2017-08-06T14:02:49.222Z</time>
      </trkpt>
      <trkpt lat="43.79077" lon="1.15372">
        <ele>175</ele>
        <time>2017-08-06T14:02:49.974Z</time>
      </trkpt>
      <trkpt lat="43.79078" lon="1.15388">
        <ele>175</ele>
        <time>2017-08-06T14:02:50.199Z</time>
      </trkpt>
      <trkpt lat="43.7908" lon="1.15406">
        <ele>174</ele>
        <time>2017-08-06T14:02:50.469Z</time>
      </trkpt>
      <trkpt lat="43.79091" lon="1.1547">
        <ele>174</ele>
        <time>2017-08-06T14:02:51.421Z</time>
      </trkpt>
      <trkpt lat="43.79095" lon="1.15535">
        <ele>173</ele>
        <time>2017-08-06T14:02:52.365Z</time>
      </trkpt>
      <trkpt lat="43.79093" lon="1.15591">
        <ele>172</ele>
        <time>2017-08-06T14:02:53.168Z</time>
      </trkpt>
      <trkpt lat="43.79091" lon="1.15671">
        <ele>175</ele>
        <time>2017-08-06T14:02:54.334Z</time>
      </trkpt>
      <trkpt lat="43.79085" lon="1.15728">
        <ele>173</ele>
        <time>2017-08-06T14:02:55.160Z</time>
      </trkpt>
      <trkpt lat="43.79077" lon="1.15809">
        <ele>173</ele>
        <time>2017-08-06T14:02:56.350Z</time>
      </trkpt>
      <trkpt lat="43.79075" lon="1.15836">
        <ele>173</ele>
        <time>2017-08-06T14:02:56.743Z</time>
      </trkpt>
      <trkpt lat="43.79078" lon="1.15838">
        <ele>173</ele>
        <time>2017-08-06T14:02:56.810Z</time>
      </trkpt>
      <trkpt lat="43.79087" lon="1.15846">
        <ele>173</ele>
        <time>2017-08-06T14:02:57.024Z</time>
      </trkpt>
      <trkpt lat="43.79126" lon="1.15881">
        <ele>172</ele>
        <time>2017-08-06T14:02:57.955Z</time>
      </trkpt>
      <trkpt lat="43.79144" lon="1.15903">
        <ele>172</ele>
        <time>2017-08-06T14:02:58.436Z</time>
      </trkpt>
      <trkpt lat="43.79202" lon="1.15971">
        <ele>171</ele>
        <time>2017-08-06T14:02:59.959Z</time>
      </trkpt>
      <trkpt lat="43.79239" lon="1.16005">
        <ele>170</ele>
        <time>2017-08-06T14:03:00.849Z</time>
      </trkpt>
      <trkpt lat="43.79341" lon="1.1609">
        <ele>169</ele>
        <time>2017-08-06T14:03:03.234Z</time>
      </trkpt>
      <trkpt lat="43.79391" lon="1.1613">
        <ele>169</ele>
        <time>2017-08-06T14:03:04.391Z</time>
      </trkpt>
      <trkpt lat="43.79438" lon="1.16162">
        <ele>169</ele>
        <time>2017-08-06T14:03:05.440Z</time>
      </trkpt>
      <trkpt lat="43.79456" lon="1.16177">
        <ele>169</ele>
        <time>2017-08-06T14:03:05.861Z</time>
      </trkpt>
      <trkpt lat="43.79462" lon="1.16188">
        <ele>169</ele>
        <time>2017-08-06T14:03:06.060Z</time>
      </trkpt>
      <trkpt lat="43.79462" lon="1.16189">
        <ele>169</ele>
        <time>2017-08-06T14:03:06.074Z</time>
      </trkpt>
      <trkpt lat="43.7946" lon="1.16191">
        <ele>169</ele>
        <time>2017-08-06T14:03:06.123Z</time>
      </trkpt>
      <trkpt lat="43.79459" lon="1.16196">
        <ele>169</ele>
        <time>2017-08-06T14:03:06.198Z</time>
      </trkpt>
      <trkpt lat="43.79461" lon="1.16202">
        <ele>169</ele>
        <time>2017-08-06T14:03:06.294Z</time>
      </trkpt>
      <trkpt lat="43.79462" lon="1.16204">
        <ele>169</ele>
        <time>2017-08-06T14:03:06.329Z</time>
      </trkpt>
      <trkpt lat="43.79463" lon="1.16205">
        <ele>169</ele>
        <time>2017-08-06T14:03:06.354Z</time>
      </trkpt>
      <trkpt lat="43.7945" lon="1.16237">
        <ele>169</ele>
        <time>2017-08-06T14:03:06.885Z</time>
      </trkpt>
      <trkpt lat="43.79418" lon="1.16292">
        <ele>170</ele>
        <time>2017-08-06T14:03:07.907Z</time>
      </trkpt>
      <trkpt lat="43.79411" lon="1.16317">
        <ele>170</ele>
        <time>2017-08-06T14:03:08.295Z</time>
      </trkpt>
      <trkpt lat="43.7941" lon="1.16327">
        <ele>170</ele>
        <time>2017-08-06T14:03:08.435Z</time>
      </trkpt>
      <trkpt lat="43.79408" lon="1.16355">
        <ele>170</ele>
        <time>2017-08-06T14:03:08.848Z</time>
      </trkpt>
      <trkpt lat="43.79407" lon="1.16423">
        <ele>169</ele>
        <time>2017-08-06T14:03:09.832Z</time>
      </trkpt>
      <trkpt lat="43.79406" lon="1.16483">
        <ele>169</ele>
        <time>2017-08-06T14:03:10.700Z</time>
      </trkpt>
      <trkpt lat="43.79402" lon="1.16533">
        <ele>169</ele>
        <time>2017-08-06T14:03:11.428Z</time>
      </trkpt>
      <trkpt lat="43.794" lon="1.16557">
        <ele>169</ele>
        <time>2017-08-06T14:03:11.777Z</time>
      </trkpt>
      <trkpt lat="43.79391" lon="1.16643">
        <ele>168</ele>
        <time>2017-08-06T14:03:13.034Z</time>
      </trkpt>
      <trkpt lat="43.79389" lon="1.16671">
        <ele>167</ele>
        <time>2017-08-06T14:03:13.444Z</time>
      </trkpt>
      <trkpt lat="43.79388" lon="1.16693">
        <ele>167</ele>
        <time>2017-08-06T14:03:13.759Z</time>
      </trkpt>
      <trkpt lat="43.79393" lon="1.1674">
        <ele>167</ele>
        <time>2017-08-06T14:03:14.446Z</time>
      </trkpt>
      <trkpt lat="43.79405" lon="1.16816">
        <ele>167</ele>
        <time>2017-08-06T14:03:15.571Z</time>
      </trkpt>
      <trkpt lat="43.79408" lon="1.16875">
        <ele>167</ele>
        <time>2017-08-06T14:03:16.427Z</time>
      </trkpt>
      <trkpt lat="43.79408" lon="1.16897">
        <ele>166</ele>
        <time>2017-08-06T14:03:16.745Z</time>
      </trkpt>
      <trkpt lat="43.79409" lon="1.16979">
        <ele>166</ele>
        <time>2017-08-06T14:03:17.931Z</time>
      </trkpt>
      <trkpt lat="43.79407" lon="1.17059">
        <ele>165</ele>
        <time>2017-08-06T14:03:19.089Z</time>
      </trkpt>
      <trkpt lat="43.79411" lon="1.17262">
        <ele>162</ele>
        <time>2017-08-06T14:03:22.026Z</time>
      </trkpt>
      <trkpt lat="43.79415" lon="1.17384">
        <ele>161</ele>
        <time>2017-08-06T14:03:23.793Z</time>
      </trkpt>
      <trkpt lat="43.79418" lon="1.17418">
        <ele>160</ele>
        <time>2017-08-06T14:03:24.288Z</time>
      </trkpt>
      <trkpt lat="43.79433" lon="1.17533">
        <ele>160</ele>
        <time>2017-08-06T14:03:25.978Z</time>
      </trkpt>
      <trkpt lat="43.79443" lon="1.17598">
        <ele>158</ele>
        <time>2017-08-06T14:03:26.939Z</time>
      </trkpt>
      <trkpt lat="43.79449" lon="1.17629">
        <ele>158</ele>
        <time>2017-08-06T14:03:27.403Z</time>
      </trkpt>
      <trkpt lat="43.79502" lon="1.17856">
        <ele>154</ele>
        <time>2017-08-06T14:03:30.854Z</time>
      </trkpt>
      <trkpt lat="43.79535" lon="1.17992">
        <ele>151</ele>
        <time>2017-08-06T14:03:32.929Z</time>
      </trkpt>
      <trkpt lat="43.79566" lon="1.1813">
        <ele>157</ele>
        <time>2017-08-06T14:03:35.020Z</time>
      </trkpt>
      <trkpt lat="43.79587" lon="1.18224">
        <ele>159</ele>
        <time>2017-08-06T14:03:36.443Z</time>
      </trkpt>
      <trkpt lat="43.79606" lon="1.18306">
        <ele>159</ele>
        <time>2017-08-06T14:03:37.689Z</time>
      </trkpt>
      <trkpt lat="43.79623" lon="1.18398">
        <ele>161</ele>
        <time>2017-08-06T14:03:39.063Z</time>
      </trkpt>
      <trkpt lat="43.79635" lon="1.18472">
        <ele>162</ele>
        <time>2017-08-06T14:03:40.160Z</time>
      </trkpt>
      <trkpt lat="43.79645" lon="1.18514">
        <ele>163</ele>
        <time>2017-08-06T14:03:40.800Z</time>
      </trkpt>
      <trkpt lat="43.79667" lon="1.18569">
        <ele>164</ele>
        <time>2017-08-06T14:03:41.710Z</time>
      </trkpt>
      <trkpt lat="43.79696" lon="1.18658">
        <ele>164</ele>
        <time>2017-08-06T14:03:43.122Z</time>
      </trkpt>
      <trkpt lat="43.79711" lon="1.1872">
        <ele>164</ele>
        <time>2017-08-06T14:03:44.068Z</time>
      </trkpt>
      <trkpt lat="43.79736" lon="1.19026">
        <ele>163</ele>
        <time>2017-08-06T14:03:48.522Z</time>
      </trkpt>
      <trkpt lat="43.7976" lon="1.1933">
        <ele>162</ele>
        <time>2017-08-06T14:03:52.945Z</time>
      </trkpt>
      <trkpt lat="43.79767" lon="1.19345">
        <ele>162</ele>
        <time>2017-08-06T14:03:53.203Z</time>
      </trkpt>
      <trkpt lat="43.79779" lon="1.19346">
        <ele>162</ele>
        <time>2017-08-06T14:03:53.444Z</time>
      </trkpt>
      <trkpt lat="43.79835" lon="1.19332">
        <ele>162</ele>
        <time>2017-08-06T14:03:54.584Z</time>
      </trkpt>
      <trkpt lat="43.79842" lon="1.19332">
        <ele>162</ele>
        <time>2017-08-06T14:03:54.724Z</time>
      </trkpt>
      <trkpt lat="43.79848" lon="1.19336">
        <ele>162</ele>
        <time>2017-08-06T14:03:54.857Z</time>
      </trkpt>
      <trkpt lat="43.79857" lon="1.19351">
        <ele>162</ele>
        <time>2017-08-06T14:03:55.139Z</time>
      </trkpt>
      <trkpt lat="43.79869" lon="1.1945">
        <ele>162</ele>
        <time>2017-08-06T14:03:56.591Z</time>
      </trkpt>
      <trkpt lat="43.7989" lon="1.19636">
        <ele>161</ele>
        <time>2017-08-06T14:03:59.314Z</time>
      </trkpt>
      <trkpt lat="43.79916" lon="1.19872">
        <ele>162</ele>
        <time>2017-08-06T14:04:02.767Z</time>
      </trkpt>
      <trkpt lat="43.79952" lon="1.20113">
        <ele>161</ele>
        <time>2017-08-06T14:04:06.327Z</time>
      </trkpt>
      <trkpt lat="43.79975" lon="1.20256">
        <ele>161</ele>
        <time>2017-08-06T14:04:08.450Z</time>
      </trkpt>
      <trkpt lat="43.80008" lon="1.20468">
        <ele>158</ele>
        <time>2017-08-06T14:04:11.587Z</time>
      </trkpt>
      <trkpt lat="43.80018" lon="1.20529">
        <ele>158</ele>
        <time>2017-08-06T14:04:12.487Z</time>
      </trkpt>
      <trkpt lat="43.8003" lon="1.20611">
        <ele>159</ele>
        <time>2017-08-06T14:04:13.697Z</time>
      </trkpt>
      <trkpt lat="43.8003" lon="1.20614">
        <ele>159</ele>
        <time>2017-08-06T14:04:13.742Z</time>
      </trkpt>
      <trkpt lat="43.80037" lon="1.20674">
        <ele>160</ele>
        <time>2017-08-06T14:04:14.619Z</time>
      </trkpt>
      <trkpt lat="43.80046" lon="1.20736">
        <ele>160</ele>
        <time>2017-08-06T14:04:15.534Z</time>
      </trkpt>
      <trkpt lat="43.80063" lon="1.20801">
        <ele>159</ele>
        <time>2017-08-06T14:04:16.534Z</time>
      </trkpt>
      <trkpt lat="43.80074" lon="1.20844">
        <ele>158</ele>
        <time>2017-08-06T14:04:17.194Z</time>
      </trkpt>
      <trkpt lat="43.80101" lon="1.2095">
        <ele>157</ele>
        <time>2017-08-06T14:04:18.821Z</time>
      </trkpt>
      <trkpt lat="43.80103" lon="1.20958">
        <ele>157</ele>
        <time>2017-08-06T14:04:18.942Z</time>
      </trkpt>
      <trkpt lat="43.80105" lon="1.21">
        <ele>157</ele>
        <time>2017-08-06T14:04:19.551Z</time>
      </trkpt>
      <trkpt lat="43.80101" lon="1.21092">
        <ele>156</ele>
        <time>2017-08-06T14:04:20.884Z</time>
      </trkpt>
      <trkpt lat="43.80102" lon="1.2112">
        <ele>156</ele>
        <time>2017-08-06T14:04:21.289Z</time>
      </trkpt>
      <trkpt lat="43.80109" lon="1.21167">
        <ele>156</ele>
        <time>2017-08-06T14:04:21.985Z</time>
      </trkpt>
      <trkpt lat="43.80114" lon="1.21201">
        <ele>156</ele>
        <time>2017-08-06T14:04:22.485Z</time>
      </trkpt>
      <trkpt lat="43.80121" lon="1.21238">
        <ele>156</ele>
        <time>2017-08-06T14:04:23.038Z</time>
      </trkpt>
      <trkpt lat="43.8013" lon="1.21262">
        <ele>155</ele>
        <time>2017-08-06T14:04:23.429Z</time>
      </trkpt>
      <trkpt lat="43.80153" lon="1.21303">
        <ele>155</ele>
        <time>2017-08-06T14:04:24.177Z</time>
      </trkpt>
      <trkpt lat="43.80153" lon="1.21303">
        <ele>155</ele>
        <time>2017-08-06T14:04:24.179Z</time>
      </trkpt>
      <trkpt lat="43.80172" lon="1.21327">
        <ele>155</ele>
        <time>2017-08-06T14:04:24.693Z</time>
      </trkpt>
      <trkpt lat="43.80179" lon="1.21337">
        <ele>155</ele>
        <time>2017-08-06T14:04:24.895Z</time>
      </trkpt>
      <trkpt lat="43.8019" lon="1.21356">
        <ele>155</ele>
        <time>2017-08-06T14:04:25.247Z</time>
      </trkpt>
      <trkpt lat="43.802" lon="1.21385">
        <ele>155</ele>
        <time>2017-08-06T14:04:25.712Z</time>
      </trkpt>
      <trkpt lat="43.80211" lon="1.21427">
        <ele>154</ele>
        <time>2017-08-06T14:04:26.358Z</time>
      </trkpt>
      <trkpt lat="43.80222" lon="1.21462">
        <ele>153</ele>
        <time>2017-08-06T14:04:26.910Z</time>
      </trkpt>
      <trkpt lat="43.80241" lon="1.21506">
        <ele>151</ele>
        <time>2017-08-06T14:04:27.652Z</time>
      </trkpt>
      <trkpt lat="43.80247" lon="1.21519">
        <ele>151</ele>
        <time>2017-08-06T14:04:27.875Z</time>
      </trkpt>
      <trkpt lat="43.80254" lon="1.21534">
        <ele>148</ele>
        <time>2017-08-06T14:04:28.134Z</time>
      </trkpt>
      <trkpt lat="43.80272" lon="1.21561">
        <ele>147</ele>
        <time>2017-08-06T14:04:28.666Z</time>
      </trkpt>
      <trkpt lat="43.80279" lon="1.21569">
        <ele>147</ele>
        <time>2017-08-06T14:04:28.848Z</time>
      </trkpt>
      <trkpt lat="43.80298" lon="1.21537">
        <ele>147</ele>
        <time>2017-08-06T14:04:29.447Z</time>
      </trkpt>
      <trkpt lat="43.80305" lon="1.21522">
        <ele>147</ele>
        <time>2017-08-06T14:04:29.705Z</time>
      </trkpt>
      <trkpt lat="43.8031" lon="1.21523">
        <ele>147</ele>
        <time>2017-08-06T14:04:29.806Z</time>
      </trkpt>
      <trkpt lat="43.80313" lon="1.21522">
        <ele>147</ele>
        <time>2017-08-06T14:04:29.868Z</time>
      </trkpt>
      <trkpt lat="43.80322" lon="1.21514">
        <ele>147</ele>
        <time>2017-08-06T14:04:30.080Z</time>
      </trkpt>
      <trkpt lat="43.80335" lon="1.21501">
        <ele>146</ele>
        <time>2017-08-06T14:04:30.404Z</time>
      </trkpt>
      <trkpt lat="43.80344" lon="1.21495">
        <ele>146</ele>
        <time>2017-08-06T14:04:30.604Z</time>
      </trkpt>
      <trkpt lat="43.80353" lon="1.21494">
        <ele>145</ele>
        <time>2017-08-06T14:04:30.785Z</time>
      </trkpt>
      <trkpt lat="43.80376" lon="1.215">
        <ele>143</ele>
        <time>2017-08-06T14:04:31.254Z</time>
      </trkpt>
      <trkpt lat="43.80437" lon="1.21523">
        <ele>139</ele>
        <time>2017-08-06T14:04:32.521Z</time>
      </trkpt>
      <trkpt lat="43.80424" lon="1.21593">
        <ele>139</ele>
        <time>2017-08-06T14:04:33.566Z</time>
      </trkpt>
      <trkpt lat="43.80417" lon="1.21632">
        <ele>139</ele>
        <time>2017-08-06T14:04:34.149Z</time>
      </trkpt>
      <trkpt lat="43.80409" lon="1.21674">
        <ele>139</ele>
        <time>2017-08-06T14:04:34.775Z</time>
      </trkpt>
      <trkpt lat="43.80414" lon="1.21715">
        <ele>139</ele>
        <time>2017-08-06T14:04:35.376Z</time>
      </trkpt>
      <trkpt lat="43.80429" lon="1.2181">
        <ele>136</ele>
        <time>2017-08-06T14:04:36.782Z</time>
      </trkpt>
      <trkpt lat="43.80434" lon="1.21848">
        <ele>135</ele>
        <time>2017-08-06T14:04:37.340Z</time>
      </trkpt>
      <trkpt lat="43.80448" lon="1.21967">
        <ele>134</ele>
        <time>2017-08-06T14:04:39.084Z</time>
      </trkpt>
      <trkpt lat="43.80449" lon="1.22">
        <ele>134</ele>
        <time>2017-08-06T14:04:39.557Z</time>
      </trkpt>
      <trkpt lat="43.80451" lon="1.22043">
        <ele>134</ele>
        <time>2017-08-06T14:04:40.184Z</time>
      </trkpt>
      <trkpt lat="43.8045" lon="1.2216">
        <ele>134</ele>
        <time>2017-08-06T14:04:41.876Z</time>
      </trkpt>
      <trkpt lat="43.80449" lon="1.22194">
        <ele>133</ele>
        <time>2017-08-06T14:04:42.368Z</time>
      </trkpt>
      <trkpt lat="43.80455" lon="1.22241">
        <ele>133</ele>
        <time>2017-08-06T14:04:43.058Z</time>
      </trkpt>
      <trkpt lat="43.80461" lon="1.22265">
        <ele>132</ele>
        <time>2017-08-06T14:04:43.425Z</time>
      </trkpt>
      <trkpt lat="43.80476" lon="1.22311">
        <ele>132</ele>
        <time>2017-08-06T14:04:44.155Z</time>
      </trkpt>
      <trkpt lat="43.80511" lon="1.22381">
        <ele>132</ele>
        <time>2017-08-06T14:04:45.387Z</time>
      </trkpt>
      <trkpt lat="43.8053" lon="1.22424">
        <ele>132</ele>
        <time>2017-08-06T14:04:46.116Z</time>
      </trkpt>
      <trkpt lat="43.8055" lon="1.2249">
        <ele>132</ele>
        <time>2017-08-06T14:04:47.151Z</time>
      </trkpt>
      <trkpt lat="43.8056" lon="1.2253">
        <ele>132</ele>
        <time>2017-08-06T14:04:47.763Z</time>
      </trkpt>
      <trkpt lat="43.8057" lon="1.22602">
        <ele>131</ele>
        <time>2017-08-06T14:04:48.823Z</time>
      </trkpt>
      <trkpt lat="43.80577" lon="1.22668">
        <ele>131</ele>
        <time>2017-08-06T14:04:49.788Z</time>
      </trkpt>
      <trkpt lat="43.80596" lon="1.22771">
        <ele>129</ele>
        <time>2017-08-06T14:04:51.325Z</time>
      </trkpt>
      <trkpt lat="43.8062" lon="1.22868">
        <ele>130</ele>
        <time>2017-08-06T14:04:52.808Z</time>
      </trkpt>
      <trkpt lat="43.80648" lon="1.22978">
        <ele>129</ele>
        <time>2017-08-06T14:04:54.495Z</time>
      </trkpt>
      <trkpt lat="43.80668" lon="1.23065">
        <ele>127</ele>
        <time>2017-08-06T14:04:55.815Z</time>
      </trkpt>
      <trkpt lat="43.80688" lon="1.23172">
        <ele>127</ele>
        <time>2017-08-06T14:04:57.413Z</time>
      </trkpt>
      <trkpt lat="43.80763" lon="1.23563">
        <ele>124</ele>
        <time>2017-08-06T14:05:03.264Z</time>
      </trkpt>
      <trkpt lat="43.80794" lon="1.23681">
        <ele>124</ele>
        <time>2017-08-06T14:05:05.080Z</time>
      </trkpt>
      <trkpt lat="43.80822" lon="1.23765">
        <ele>124</ele>
        <time>2017-08-06T14:05:06.418Z</time>
      </trkpt>
      <trkpt lat="43.80833" lon="1.23796">
        <ele>125</ele>
        <time>2017-08-06T14:05:06.918Z</time>
      </trkpt>
      <trkpt lat="43.80848" lon="1.23823">
        <ele>124</ele>
        <time>2017-08-06T14:05:07.411Z</time>
      </trkpt>
      <trkpt lat="43.80957" lon="1.24001">
        <ele>124</ele>
        <time>2017-08-06T14:05:10.787Z</time>
      </trkpt>
      <trkpt lat="43.8097" lon="1.24029">
        <ele>124</ele>
        <time>2017-08-06T14:05:11.268Z</time>
      </trkpt>
      <trkpt lat="43.80971" lon="1.24036">
        <ele>124</ele>
        <time>2017-08-06T14:05:11.371Z</time>
      </trkpt>
      <trkpt lat="43.80973" lon="1.24064">
        <ele>124</ele>
        <time>2017-08-06T14:05:11.778Z</time>
      </trkpt>
      <trkpt lat="43.80939" lon="1.2431">
        <ele>123</ele>
        <time>2017-08-06T14:05:15.400Z</time>
      </trkpt>
      <trkpt lat="43.80921" lon="1.24397">
        <ele>123</ele>
        <time>2017-08-06T14:05:16.709Z</time>
      </trkpt>
      <trkpt lat="43.80916" lon="1.24463">
        <ele>122</ele>
        <time>2017-08-06T14:05:17.669Z</time>
      </trkpt>
      <trkpt lat="43.80903" lon="1.24559">
        <ele>120</ele>
        <time>2017-08-06T14:05:19.082Z</time>
      </trkpt>
      <trkpt lat="43.80876" lon="1.24744">
        <ele>119</ele>
        <time>2017-08-06T14:05:21.812Z</time>
      </trkpt>
      <trkpt lat="43.80849" lon="1.24962">
        <ele>119</ele>
        <time>2017-08-06T14:05:25.011Z</time>
      </trkpt>
      <trkpt lat="43.80845" lon="1.25007">
        <ele>119</ele>
        <time>2017-08-06T14:05:25.667Z</time>
      </trkpt>
      <trkpt lat="43.80844" lon="1.25045">
        <ele>118</ele>
        <time>2017-08-06T14:05:26.217Z</time>
      </trkpt>
      <trkpt lat="43.80845" lon="1.25065">
        <ele>118</ele>
        <time>2017-08-06T14:05:26.507Z</time>
      </trkpt>
      <trkpt lat="43.80866" lon="1.25182">
        <ele>116</ele>
        <time>2017-08-06T14:05:28.251Z</time>
      </trkpt>
      <trkpt lat="43.80869" lon="1.25199">
        <ele>116</ele>
        <time>2017-08-06T14:05:28.503Z</time>
      </trkpt>
      <trkpt lat="43.80879" lon="1.25255">
        <ele>115</ele>
        <time>2017-08-06T14:05:29.339Z</time>
      </trkpt>
      <trkpt lat="43.80914" lon="1.2542">
        <ele>115</ele>
        <time>2017-08-06T14:05:31.827Z</time>
      </trkpt>
      <trkpt lat="43.80918" lon="1.25437">
        <ele>115</ele>
        <time>2017-08-06T14:05:32.085Z</time>
      </trkpt>
      <trkpt lat="43.80924" lon="1.25476">
        <ele>113</ele>
        <time>2017-08-06T14:05:32.662Z</time>
      </trkpt>
      <trkpt lat="43.80923" lon="1.2548">
        <ele>113</ele>
        <time>2017-08-06T14:05:32.723Z</time>
      </trkpt>
      <trkpt lat="43.80922" lon="1.25483">
        <ele>113</ele>
        <time>2017-08-06T14:05:32.771Z</time>
      </trkpt>
      <trkpt lat="43.80923" lon="1.25491">
        <ele>112</ele>
        <time>2017-08-06T14:05:32.888Z</time>
      </trkpt>
      <trkpt lat="43.80924" lon="1.25493">
        <ele>112</ele>
        <time>2017-08-06T14:05:32.923Z</time>
      </trkpt>
      <trkpt lat="43.80891" lon="1.25542">
        <ele>106</ele>
        <time>2017-08-06T14:05:33.892Z</time>
      </trkpt>
      <trkpt lat="43.80888" lon="1.2555">
        <ele>106</ele>
        <time>2017-08-06T14:05:34.022Z</time>
      </trkpt>
      <trkpt lat="43.80883" lon="1.25557">
        <ele>105</ele>
        <time>2017-08-06T14:05:34.170Z</time>
      </trkpt>
      <trkpt lat="43.80848" lon="1.25609">
        <ele>103</ele>
        <time>2017-08-06T14:05:35.193Z</time>
      </trkpt>
      <trkpt lat="43.80757" lon="1.25738">
        <ele>101</ele>
        <time>2017-08-06T14:05:37.802Z</time>
      </trkpt>
      <trkpt lat="43.80719" lon="1.25793">
        <ele>102</ele>
        <time>2017-08-06T14:05:38.903Z</time>
      </trkpt>
      <trkpt lat="43.80708" lon="1.25817">
        <ele>102</ele>
        <time>2017-08-06T14:05:39.314Z</time>
      </trkpt>
      <trkpt lat="43.80667" lon="1.25872">
        <ele>102</ele>
        <time>2017-08-06T14:05:40.458Z</time>
      </trkpt>
      <trkpt lat="43.80634" lon="1.25918">
        <ele>102</ele>
        <time>2017-08-06T14:05:41.396Z</time>
      </trkpt>
      <trkpt lat="43.80612" lon="1.25943">
        <ele>102</ele>
        <time>2017-08-06T14:05:41.966Z</time>
      </trkpt>
      <trkpt lat="43.8058" lon="1.25971">
        <ele>103</ele>
        <time>2017-08-06T14:05:42.724Z</time>
      </trkpt>
      <trkpt lat="43.80502" lon="1.26026">
        <ele>103</ele>
        <time>2017-08-06T14:05:44.478Z</time>
      </trkpt>
      <trkpt lat="43.80419" lon="1.26082">
        <ele>110</ele>
        <time>2017-08-06T14:05:46.328Z</time>
      </trkpt>
      <trkpt lat="43.80365" lon="1.26115">
        <ele>113</ele>
        <time>2017-08-06T14:05:47.511Z</time>
      </trkpt>
      <trkpt lat="43.80315" lon="1.26138">
        <ele>115</ele>
        <time>2017-08-06T14:05:48.567Z</time>
      </trkpt>
      <trkpt lat="43.80229" lon="1.2617">
        <ele>116</ele>
        <time>2017-08-06T14:05:50.351Z</time>
      </trkpt>
      <trkpt lat="43.80183" lon="1.2619">
        <ele>117</ele>
        <time>2017-08-06T14:05:51.317Z</time>
      </trkpt>
      <trkpt lat="43.80156" lon="1.26208">
        <ele>117</ele>
        <time>2017-08-06T14:05:51.917Z</time>
      </trkpt>
      <trkpt lat="43.80121" lon="1.26243">
        <ele>117</ele>
        <time>2017-08-06T14:05:52.782Z</time>
      </trkpt>
      <trkpt lat="43.80094" lon="1.26278">
        <ele>116</ele>
        <time>2017-08-06T14:05:53.523Z</time>
      </trkpt>
      <trkpt lat="43.80005" lon="1.26399">
        <ele>117</ele>
        <time>2017-08-06T14:05:56.022Z</time>
      </trkpt>
      <trkpt lat="43.79982" lon="1.26423">
        <ele>117</ele>
        <time>2017-08-06T14:05:56.599Z</time>
      </trkpt>
      <trkpt lat="43.79934" lon="1.26457">
        <ele>117</ele>
        <time>2017-08-06T14:05:57.679Z</time>
      </trkpt>
      <trkpt lat="43.79845" lon="1.26516">
        <ele>117</ele>
        <time>2017-08-06T14:05:59.656Z</time>
      </trkpt>
      <trkpt lat="43.79788" lon="1.26547">
        <ele>117</ele>
        <time>2017-08-06T14:06:00.876Z</time>
      </trkpt>
      <trkpt lat="43.79788" lon="1.26547">
        <ele>117</ele>
        <time>2017-08-06T14:06:00.883Z</time>
      </trkpt>
      <trkpt lat="43.79736" lon="1.26568">
        <ele>117</ele>
        <time>2017-08-06T14:06:01.968Z</time>
      </trkpt>
      <trkpt lat="43.79649" lon="1.26601">
        <ele>114</ele>
        <time>2017-08-06T14:06:03.776Z</time>
      </trkpt>
      <trkpt lat="43.79627" lon="1.26608">
        <ele>113</ele>
        <time>2017-08-06T14:06:04.222Z</time>
      </trkpt>
      <trkpt lat="43.79604" lon="1.26615">
        <ele>113</ele>
        <time>2017-08-06T14:06:04.700Z</time>
      </trkpt>
      <trkpt lat="43.79575" lon="1.26622">
        <ele>113</ele>
        <time>2017-08-06T14:06:05.290Z</time>
      </trkpt>
      <trkpt lat="43.79548" lon="1.26629">
        <ele>113</ele>
        <time>2017-08-06T14:06:05.840Z</time>
      </trkpt>
      <trkpt lat="43.79529" lon="1.26637">
        <ele>114</ele>
        <time>2017-08-06T14:06:06.238Z</time>
      </trkpt>
      <trkpt lat="43.79513" lon="1.26644">
        <ele>114</ele>
        <time>2017-08-06T14:06:06.582Z</time>
      </trkpt>
      <trkpt lat="43.79494" lon="1.26651">
        <ele>115</ele>
        <time>2017-08-06T14:06:06.968Z</time>
      </trkpt>
      <trkpt lat="43.79453" lon="1.26674">
        <ele>113</ele>
        <time>2017-08-06T14:06:07.854Z</time>
      </trkpt>
      <trkpt lat="43.79345" lon="1.2674">
        <ele>118</ele>
        <time>2017-08-06T14:06:10.219Z</time>
      </trkpt>
      <trkpt lat="43.79305" lon="1.26764">
        <ele>117</ele>
        <time>2017-08-06T14:06:11.093Z</time>
      </trkpt>
      <trkpt lat="43.79225" lon="1.26825">
        <ele>118</ele>
        <time>2017-08-06T14:06:12.923Z</time>
      </trkpt>
      <trkpt lat="43.7915" lon="1.26886">
        <ele>115</ele>
        <time>2017-08-06T14:06:14.666Z</time>
      </trkpt>
      <trkpt lat="43.79124" lon="1.26901">
        <ele>115</ele>
        <time>2017-08-06T14:06:15.230Z</time>
      </trkpt>
      <trkpt lat="43.79015" lon="1.26959">
        <ele>112</ele>
        <time>2017-08-06T14:06:17.570Z</time>
      </trkpt>
      <trkpt lat="43.78959" lon="1.26993">
        <ele>111</ele>
        <time>2017-08-06T14:06:18.795Z</time>
      </trkpt>
      <trkpt lat="43.78911" lon="1.27021">
        <ele>107</ele>
        <time>2017-08-06T14:06:19.839Z</time>
      </trkpt>
      <trkpt lat="43.78808" lon="1.27088">
        <ele>105</ele>
        <time>2017-08-06T14:06:22.119Z</time>
      </trkpt>
      <trkpt lat="43.78725" lon="1.27136">
        <ele>106</ele>
        <time>2017-08-06T14:06:23.921Z</time>
      </trkpt>
      <trkpt lat="43.7865" lon="1.27175">
        <ele>106</ele>
        <time>2017-08-06T14:06:25.526Z</time>
      </trkpt>
      <trkpt lat="43.78579" lon="1.27214">
        <ele>108</ele>
        <time>2017-08-06T14:06:27.057Z</time>
      </trkpt>
      <trkpt lat="43.78525" lon="1.27248">
        <ele>108</ele>
        <time>2017-08-06T14:06:28.246Z</time>
      </trkpt>
      <trkpt lat="43.78474" lon="1.27285">
        <ele>108</ele>
        <time>2017-08-06T14:06:29.400Z</time>
      </trkpt>
      <trkpt lat="43.78385" lon="1.27345">
        <ele>108</ele>
        <time>2017-08-06T14:06:31.384Z</time>
      </trkpt>
      <trkpt lat="43.7837" lon="1.27357">
        <ele>109</ele>
        <time>2017-08-06T14:06:31.731Z</time>
      </trkpt>
      <trkpt lat="43.78356" lon="1.27369">
        <ele>109</ele>
        <time>2017-08-06T14:06:32.061Z</time>
      </trkpt>
      <trkpt lat="43.78343" lon="1.27383">
        <ele>109</ele>
        <time>2017-08-06T14:06:32.391Z</time>
      </trkpt>
      <trkpt lat="43.78334" lon="1.27389">
        <ele>109</ele>
        <time>2017-08-06T14:06:32.591Z</time>
      </trkpt>
      <trkpt lat="43.78331" lon="1.27389">
        <ele>108</ele>
        <time>2017-08-06T14:06:32.651Z</time>
      </trkpt>
      <trkpt lat="43.78328" lon="1.2739">
        <ele>108</ele>
        <time>2017-08-06T14:06:32.713Z</time>
      </trkpt>
      <trkpt lat="43.78315" lon="1.2738">
        <ele>108</ele>
        <time>2017-08-06T14:06:33.011Z</time>
      </trkpt>
      <trkpt lat="43.78312" lon="1.27376">
        <ele>108</ele>
        <time>2017-08-06T14:06:33.094Z</time>
      </trkpt>
      <trkpt lat="43.78304" lon="1.27368">
        <ele>108</ele>
        <time>2017-08-06T14:06:33.292Z</time>
      </trkpt>
      <trkpt lat="43.78299" lon="1.27352">
        <ele>107</ele>
        <time>2017-08-06T14:06:33.544Z</time>
      </trkpt>
      <trkpt lat="43.78285" lon="1.2731">
        <ele>108</ele>
        <time>2017-08-06T14:06:34.213Z</time>
      </trkpt>
      <trkpt lat="43.78261" lon="1.27235">
        <ele>109</ele>
        <time>2017-08-06T14:06:35.400Z</time>
      </trkpt>
      <trkpt lat="43.78233" lon="1.27142">
        <ele>111</ele>
        <time>2017-08-06T14:06:36.859Z</time>
      </trkpt>
      <trkpt lat="43.7823" lon="1.27132">
        <ele>111</ele>
        <time>2017-08-06T14:06:37.014Z</time>
      </trkpt>
      <trkpt lat="43.78206" lon="1.27069">
        <ele>113</ele>
        <time>2017-08-06T14:06:38.045Z</time>
      </trkpt>
      <trkpt lat="43.78192" lon="1.27043">
        <ele>113</ele>
        <time>2017-08-06T14:06:38.514Z</time>
      </trkpt>
      <trkpt lat="43.78169" lon="1.27015">
        <ele>114</ele>
        <time>2017-08-06T14:06:39.128Z</time>
      </trkpt>
      <trkpt lat="43.78126" lon="1.26972">
        <ele>115</ele>
        <time>2017-08-06T14:06:40.202Z</time>
      </trkpt>
      <trkpt lat="43.78112" lon="1.26958">
        <ele>115</ele>
        <time>2017-08-06T14:06:40.537Z</time>
      </trkpt>
      <trkpt lat="43.78033" lon="1.2687">
        <ele>117</ele>
        <time>2017-08-06T14:06:42.568Z</time>
      </trkpt>
      <trkpt lat="43.77976" lon="1.26806">
        <ele>118</ele>
        <time>2017-08-06T14:06:44.039Z</time>
      </trkpt>
      <trkpt lat="43.77949" lon="1.26778">
        <ele>118</ele>
        <time>2017-08-06T14:06:44.715Z</time>
      </trkpt>
      <trkpt lat="43.7793" lon="1.26762">
        <ele>118</ele>
        <time>2017-08-06T14:06:45.161Z</time>
      </trkpt>
      <trkpt lat="43.7791" lon="1.26751">
        <ele>118</ele>
        <time>2017-08-06T14:06:45.592Z</time>
      </trkpt>
      <trkpt lat="43.77893" lon="1.26787">
        <ele>117</ele>
        <time>2017-08-06T14:06:46.214Z</time>
      </trkpt>
      <trkpt lat="43.77824" lon="1.26945">
        <ele>109</ele>
        <time>2017-08-06T14:06:48.886Z</time>
      </trkpt>
      <trkpt lat="43.77762" lon="1.27076">
        <ele>106</ele>
        <time>2017-08-06T14:06:51.152Z</time>
      </trkpt>
      <trkpt lat="43.77651" lon="1.27318">
        <ele>107</ele>
        <time>2017-08-06T14:06:55.300Z</time>
      </trkpt>
      <trkpt lat="43.77566" lon="1.2751">
        <ele>107</ele>
        <time>2017-08-06T14:06:58.559Z</time>
      </trkpt>
      <trkpt lat="43.77469" lon="1.27724">
        <ele>107</ele>
        <time>2017-08-06T14:07:02.220Z</time>
      </trkpt>
      <trkpt lat="43.77442" lon="1.27783">
        <ele>107</ele>
        <time>2017-08-06T14:07:03.226Z</time>
      </trkpt>
      <trkpt lat="43.7738" lon="1.27922">
        <ele>108</ele>
        <time>2017-08-06T14:07:05.596Z</time>
      </trkpt>
      <trkpt lat="43.77352" lon="1.27983">
        <ele>109</ele>
        <time>2017-08-06T14:07:06.636Z</time>
      </trkpt>
      <trkpt lat="43.7733" lon="1.28033">
        <ele>108</ele>
        <time>2017-08-06T14:07:07.485Z</time>
      </trkpt>
      <trkpt lat="43.77116" lon="1.28505">
        <ele>108</ele>
      </trkpt>
    </trkseg>
  </trk>
</gpx>